[[{"header":{"parameterUnit":"m.s-1","parameterCategory":1,"la1":30.6,"la2":28.766,"lo1":-90.7593,"lo2":-88.6598,"dy":0.0162,"dx":0.0183,"nx":116,"ny":114,"refTime":"2023-04-22T06:00:00:Z","depth":0,"parameterNumber":2,"parameterNumberName":"U-component_of_WINDS"},"data":[0.0,0.0,0.0,0.0,0.0,0.0,0.0,0.0,0.0,0.0,0.0,0.0,0.0,0.0,0.0,0.0,0.0,0.0,0.0,0.0,0.0,0.0,0.0,0.0,0.0,0.0,0.0,0.0,0.0,0.0,0.0,0.0,0.0,0.0,0.0,0.0,0.0,0.0,0.0,0.0,0.0,0.0,0.0,0.0,0.0,0.0,0.0,0.0,0.0,0.0,0.0,0.0,0.0,0.0,0.0,0.0,0.0,0.0,0.0,0.0,0.0,0.0,0.0,0.0,0.0,0.0,0.0,0.0,0.0,0.0,0.0,0.0,0.0,0.0,0.0,0.0,0.0,0.0,0.0,0.0,0.0,0.0,0.0,0.0,0.0,0.0,0.0,0.0,0.0,0.0,0.0,0.0,0.0,0.0,0.0,0.0,0.0,0.0,0.0,0.0,0.0,0.0,0.0,0.0,0.0,0.0,0.0,0.0,0.0,0.0,0.0,0.0,0.0,0.0,0.0,0.0,0.0,0.0,0.0,0.0,0.0,0.0,0.0,0.0,0.0,0.0,0.0,0.0,0.0,0.0,0.0,0.0,0.0,0.0,0.0,0.0,0.0,0.0,0.0,0.0,0.0,0.0,0.0,0.0,0.0,0.0,0.0,0.0,0.0,0.0,0.0,0.0,0.0,0.0,0.0,0.0,0.0,0.0,0.0,0.0,0.0,0.0,0.0,0.0,0.0,0.0,0.0,0.0,0.0,0.0,0.0,0.0,0.0,0.0,0.0,0.0,0.0,0.0,0.0,0.0,0.0,0.0,0.0,0.0,0.0,0.0,0.0,0.0,0.0,0.0,0.0,0.0,0.0,0.0,0.0,0.0,0.0,0.0,0.0,0.0,0.0,0.0,0.0,0.0,0.0,0.0,0.0,0.0,0.0,0.0,0.0,0.0,0.0,0.0,0.0,0.0,0.0,0.0,0.0,0.0,0.0,0.0,0.0,0.0,0.0,0.0,0.0,0.0,0.0,0.0,0.0,0.0,0.0,0.0,0.0,0.0,0.0,0.0,0.0,0.0,0.0,0.0,0.0,0.0,0.0,0.0,0.0,0.0,0.0,0.0,0.0,0.0,0.0,0.0,0.0,0.0,0.0,0.0,0.0,0.0,0.0,0.0,0.0,0.0,0.0,0.0,0.0,0.0,0.0,0.0,0.0,0.0,0.0,0.0,0.0,0.0,0.0,0.0,0.0,0.0,0.0,0.0,0.0,0.0,0.0,0.0,0.0,0.0,0.0,0.0,0.0,0.0,0.0,0.0,0.0,0.0,0.0,0.0,0.0,0.0,0.0,0.0,0.0,0.0,0.0,0.0,0.0,0.0,0.0,0.0,0.0,0.0,0.0,0.0,0.0,0.0,0.0,0.0,0.0,0.0,0.0,0.0,0.0,0.0,0.0,0.0,0.0,0.0,0.0,0.0,0.0,0.0,0.0,0.0,0.0,0.0,0.0,0.0,0.0,0.0,0.0,0.0,0.0,0.0,0.0,0.0,0.0,0.0,0.0,0.0,0.0,0.0,0.0,0.0,0.0,0.0,0.0,0.0,0.0,0.0,0.0,0.0,0.0,0.0,0.0,0.0,0.0,0.0,0.0,0.0,0.0,0.0,0.0,0.0,0.0,0.0,0.0,0.0,0.0,0.0,0.0,0.0,0.0,0.0,0.0,0.0,0.0,0.0,0.0,0.0,0.0,0.0,0.0,0.0,0.0,0.0,0.0,0.0,0.0,0.0,0.0,0.0,0.0,0.0,0.0,0.0,0.0,0.0,0.0,0.0,0.0,0.0,0.0,0.0,0.0,0.0,0.0,0.0,0.0,0.0,0.0,0.0,0.0,0.0,0.0,0.0,0.0,0.0,0.0,0.0,0.0,0.0,0.0,0.0,0.0,0.0,0.0,0.0,0.0,0.0,0.0,0.0,0.0,0.0,0.0,0.0,0.0,0.0,0.0,0.0,0.0,0.0,0.0,0.0,0.0,0.0,0.0,0.0,0.0,0.0,0.0,0.0,0.0,0.0,0.0,0.0,0.0,0.0,0.0,0.0,0.0,0.0,0.0,0.0,0.0,0.0,0.0,0.0,0.0,0.0,0.0,0.0,0.0,0.0,0.0,0.0,0.0,0.0,0.0,0.0,0.0,0.0,0.0,0.0,0.0,0.0,0.0,0.0,0.0,0.0,0.0,0.0,0.0,0.0,0.0,0.0,0.0,0.0,0.0,0.0,0.0,0.0,0.0,0.0,0.0,0.0,0.0,0.0,0.0,0.0,0.0,0.0,0.0,0.0,0.0,0.0,0.0,0.0,0.0,0.0,0.0,0.0,0.0,0.0,0.0,0.0,0.0,0.0,0.0,0.0,0.0,0.0,0.0,0.0,0.0,0.0,0.0,0.0,0.0,0.0,0.0,0.0,0.0,0.0,0.0,0.0,0.0,0.0,0.0,0.0,0.0,0.0,0.0,0.0,0.0,0.0,0.0,0.0,0.0,0.0,0.0,0.0,0.0,0.0,0.0,0.0,0.0,0.0,0.0,0.0,0.0,0.0,0.0,0.0,0.0,0.0,0.0,0.0,0.0,0.0,0.0,0.0,0.0,0.0,0.0,0.0,0.0,0.0,0.0,0.0,0.0,0.0,0.0,0.0,0.0,0.0,0.0,0.0,0.0,0.0,0.0,0.0,0.0,0.0,0.0,0.0,0.0,0.0,0.0,0.0,0.0,0.0,0.0,0.0,0.0,0.0,0.0,0.0,0.0,0.0,0.0,0.0,0.0,0.0,0.0,0.0,0.0,0.0,0.0,0.0,0.0,0.0,0.0,0.0,0.0,0.0,0.0,0.0,0.0,0.0,0.0,0.0,0.0,0.0,0.0,0.0,0.0,0.0,0.0,0.0,0.0,0.0,0.0,0.0,0.0,0.0,0.0,0.0,0.0,0.0,0.0,0.0,0.0,0.0,0.0,0.0,0.0,0.0,0.0,0.0,0.0,0.0,0.0,0.0,0.0,0.0,0.0,0.0,0.0,0.0,0.0,0.0,0.0,0.0,0.0,0.0,0.0,0.0,0.0,0.0,0.0,0.0,0.0,0.0,0.0,0.0,0.0,0.0,0.0,0.0,0.0,0.0,0.0,0.0,0.0,0.0,0.0,0.0,0.0,0.0,0.0,0.0,0.0,0.0,0.0,0.0,0.0,0.0,0.0,0.0,0.0,0.0,0.0,0.0,0.0,0.0,0.0,0.0,0.0,0.0,0.0,0.0,0.0,0.0,0.0,0.0,0.0,0.0,0.0,0.0,0.0,0.0,0.0,0.0,0.0,0.0,0.0,0.0,0.0,0.0,0.0,0.0,0.0,0.0,0.0,0.0,0.0,0.0,0.0,0.0,0.0,0.0,0.0,0.0,0.0,0.0,0.0,0.0,0.0,0.0,0.0,0.0,0.0,0.0,0.0,0.0,0.0,0.0,0.0,0.0,0.0,0.0,0.0,0.0,0.0,0.0,0.0,0.0,0.0,0.0,0.0,0.0,0.0,0.0,0.0,0.0,0.0,0.0,0.0,0.0,0.0,0.0,0.0,0.0,0.0,0.0,0.0,0.0,0.0,0.0,0.0,0.0,0.0,0.0,0.0,0.0,0.0,0.0,0.0,0.0,0.0,0.0,0.0,0.0,0.0,0.0,0.0,0.0,0.0,0.0,0.0,0.0,0.0,0.0,0.0,0.0,0.0,0.0,0.0,0.0,0.0,0.0,0.0,0.0,0.0,0.0,0.0,0.0,0.0,0.0,0.0,0.0,0.0,0.0,0.0,0.0,0.0,0.0,0.0,0.0,0.0,0.0,0.0,0.0,0.0,0.0,0.0,0.0,0.0,0.0,0.0,0.0,0.0,0.0,0.0,0.0,0.0,0.0,0.0,0.0,0.0,0.0,0.0,0.0,0.0,0.0,0.0,0.0,0.0,0.0,0.0,0.0,0.0,0.0,0.0,0.0,0.0,0.0,0.0,0.0,0.0,0.0,0.0,0.0,0.0,0.0,0.0,0.0,0.0,0.0,0.0,0.0,0.0,0.0,0.0,0.0,0.0,0.0,0.0,0.0,0.0,0.0,0.0,0.0,0.0,0.0,0.0,0.0,0.0,0.0,0.0,0.0,0.0,0.0,0.0,0.0,0.0,0.0,0.0,0.0,0.0,0.0,0.0,0.0,0.0,0.0,0.0,0.0,0.0,0.0,0.0,0.0,0.0,0.0,0.0,0.0,0.0,0.0,0.0,0.0,0.0,0.0,0.0,0.0,0.0,0.0,0.0,0.0,0.0,0.0,0.0,0.0,0.0,0.0,0.0,0.0,0.0,0.0,0.0,0.0,0.0,0.0,0.0,0.0,0.0,0.0,0.0,0.0,0.0,0.0,0.0,0.0,0.0,0.0,0.0,0.0,0.0,0.0,0.0,0.0,0.0,0.0,0.0,0.0,0.0,0.0,0.0,0.0,0.0,0.0,0.0,0.0,0.0,0.0,0.0,0.0,0.0,0.0,0.0,0.0,0.0,0.0,0.0,0.0,0.0,0.0,0.0,0.0,0.0,0.0,0.0,0.0,0.0,0.0,0.0,0.0,0.0,0.0,0.0,0.0,0.0,0.0,0.0,0.0,0.0,0.0,0.0,0.0,0.0,0.0,0.0,0.0,0.0,0.0,0.0,0.0,0.0,0.0,0.0,0.0,0.0,0.0,0.0,0.0,0.0,0.0,0.0,0.0,0.0,0.0,0.0,0.0,0.0,0.0,0.0,0.0,0.0,0.0,0.0,0.0,0.0,0.0,0.0,0.0,0.0,0.0,0.0,0.0,0.0,0.0,0.0,0.0,0.0,0.0,0.0,0.0,0.0,0.0,0.0,0.0,0.0,0.0,0.0,0.0,0.0,0.0,0.0,0.0,0.0,0.0,0.0,0.0,0.0,0.0,0.0,0.0,0.0,0.0,0.0,0.0,0.0,0.0,0.0,0.0,0.0,0.0,0.0,0.0,0.0,0.0,0.0,0.0,0.0,0.0,0.0,0.0,0.0,0.0,0.0,0.0,0.0,0.0,0.0,0.0,0.0,0.0,0.0,0.0,0.0,0.0,0.0,0.0,0.0,0.0,0.0,0.0,0.0,0.0,0.0,0.0,0.0,0.0,0.0,0.0,0.0,0.0,0.0,0.0,0.0,0.0,0.0,0.0,0.0,0.0,0.0,0.0,0.0,0.0,0.0,0.0,0.0,0.0,0.0,0.0,0.0,0.0,0.0,0.0,0.0,0.0,0.0,0.0,0.0,0.0,0.0,0.0,0.0,0.0,0.0,0.0,0.0,0.0,0.0,0.0,0.0,0.0,0.0,0.0,0.0,0.0,0.0,0.0,0.0,0.0,0.0,0.0,0.0,0.0,0.0,0.0,0.0,0.0,0.0,0.0,0.0,0.0,0.0,0.0,0.0,0.0,0.0,0.0,0.0,0.0,0.0,0.0,0.0,0.0,0.0,0.0,0.0,0.0,0.0,0.0,0.0,0.0,0.0,0.0,0.0,0.0,0.0,0.0,0.0,0.0,0.0,0.0,0.0,0.0,0.0,0.0,0.0,0.0,0.0,0.0,0.0,0.0,0.0,0.0,0.0,0.0,0.0,0.0,0.0,0.0,0.0,0.0,0.0,0.0,0.0,0.0,0.0,0.0,0.0,0.0,0.0,0.0,0.0,0.0,0.0,0.0,0.0,0.0,0.0,0.0,0.0,0.0,0.0,0.0,0.0,0.0,0.0,0.0,0.0,0.0,0.0,0.0,0.0,0.0,0.0,0.0,0.0,0.0,0.0,0.0,0.0,0.0,0.0,0.0,0.0,0.0,0.0,0.0,0.0,0.0,0.0,0.0,0.0,0.0,0.0,0.0,0.0,0.0,0.0,0.0,0.0,0.0,0.0,0.0,0.0,0.0,0.0,0.0,0.0,0.0,0.0,0.0,0.0,0.0,0.0,0.0,0.0,0.0,0.0,0.0,0.0,0.0,0.0,0.0,0.0,0.0,0.0,0.0,0.0,0.0,0.0,0.0,0.0,0.0,0.0,0.0,6.108,6.2034,0.0,0.0,0.0,0.0,0.0,0.0,0.0,0.0,0.0,0.0,0.0,0.0,0.0,0.0,0.0,0.0,0.0,0.0,0.0,0.0,0.0,0.0,0.0,0.0,0.0,0.0,0.0,0.0,0.0,0.0,0.0,0.0,0.0,0.0,0.0,0.0,0.0,0.0,0.0,0.0,0.0,0.0,0.0,0.0,0.0,0.0,0.0,0.0,0.0,0.0,0.0,0.0,0.0,0.0,0.0,0.0,0.0,0.0,0.0,0.0,0.0,0.0,0.0,0.0,0.0,0.0,0.0,0.0,0.0,0.0,0.0,0.0,0.0,0.0,0.0,0.0,0.0,0.0,0.0,0.0,0.0,0.0,0.0,0.0,0.0,0.0,0.0,0.0,0.0,0.0,0.0,0.0,0.0,0.0,0.0,0.0,0.0,0.0,0.0,0.0,0.0,0.0,0.0,0.0,0.0,0.0,0.0,0.0,0.0,0.0,0.0,0.0,0.0,0.0,6.3282,6.2365,0.0,0.0,0.0,0.0,0.0,0.0,0.0,0.0,0.0,0.0,0.0,0.0,0.0,0.0,0.0,0.0,0.0,0.0,0.0,0.0,0.0,0.0,0.0,0.0,5.1259,5.1379,5.1379,5.1439,0.0,0.0,0.0,0.0,0.0,0.0,0.0,0.0,0.0,0.0,0.0,0.0,0.0,0.0,0.0,0.0,0.0,0.0,0.0,0.0,0.0,0.0,0.0,0.0,0.0,0.0,0.0,0.0,0.0,0.0,0.0,0.0,0.0,0.0,0.0,0.0,0.0,0.0,0.0,0.0,0.0,0.0,0.0,0.0,0.0,0.0,0.0,0.0,0.0,0.0,0.0,0.0,0.0,0.0,0.0,0.0,0.0,0.0,0.0,0.0,0.0,0.0,0.0,0.0,0.0,0.0,0.0,0.0,0.0,0.0,0.0,0.0,0.0,0.0,0.0,0.0,0.0,0.0,0.0,0.0,6.7687,6.9449,7.1505,7.0807,7.066,7.0734,6.743,6.4347,6.1887,6.4861,0.0,0.0,0.0,0.0,0.0,0.0,0.0,0.0,0.0,0.0,0.0,0.0,0.0,0.0,0.0,0.0,0.0,0.0,0.0,0.0,0.0,5.078,5.1439,5.2007,5.2067,5.2306,0.0,0.0,0.0,0.0,0.0,0.0,0.0,5.6905,5.7347,5.6066,0.0,5.6294,5.958,5.8137,5.8464,6.0225,6.2946,0.0,0.0,0.0,0.0,0.0,0.0,0.0,0.0,0.0,0.0,0.0,0.0,0.0,0.0,0.0,0.0,0.0,0.0,0.0,0.0,0.0,0.0,0.0,0.0,0.0,0.0,0.0,0.0,0.0,0.0,0.0,0.0,0.0,0.0,0.0,0.0,0.0,0.0,0.0,0.0,0.0,0.0,0.0,5.9222,6.0103,0.0,0.0,0.0,0.0,0.0,0.0,0.0,0.0,0.0,0.0,0.0,0.0,0.0,6.6733,6.8972,6.9082,6.9596,7.0513,7.0734,7.1358,7.2349,7.2239,7.2973,7.4258,7.3707,0.0,6.6623,6.5044,0.0,0.0,0.0,0.0,0.0,0.0,0.0,0.0,0.0,0.0,0.0,0.0,0.0,0.0,0.0,0.0,0.0,0.0,0.0,0.0,0.0,5.1139,5.1887,5.2187,5.2905,5.3443,5.3743,5.3773,0.0,0.0,0.0,0.0,5.5852,5.6264,5.6176,5.5645,5.5994,5.6839,5.7974,5.7418,5.7503,5.8406,6.0708,6.2394,6.3594,6.408,0.0,0.0,0.0,0.0,0.0,0.0,0.0,0.0,0.0,0.0,0.0,0.0,0.0,0.0,0.0,0.0,0.0,0.0,0.0,0.0,0.0,0.0,0.0,0.0,0.0,0.0,0.0,0.0,0.0,0.0,0.0,0.0,0.0,0.0,0.0,0.0,0.0,0.0,0.0,6.0583,6.2756,6.1251,6.3319,6.4237,0.0,0.0,0.0,0.0,0.0,0.0,0.0,0.0,0.0,6.7944,6.8788,6.9706,7.077,7.2129,7.345,7.4698,7.5616,7.6754,7.7965,7.7965,7.8332,7.8993,7.8993,7.7011,7.356,7.0183,6.765,6.5668,0.0,0.0,0.0,0.0,6.42,6.4912,0.0,0.0,0.0,0.0,0.0,0.0,0.0,0.0,0.0,0.0,0.0,0.0,5.069,5.1618,5.2336,5.2695,5.3773,5.4521,5.47,5.4551,0.0,0.0,0.0,5.5043,5.6298,5.5411,5.5409,5.6445,5.737,5.7623,5.7325,5.7565,5.7603,5.7738,5.9204,6.0951,6.2808,6.2844,6.3574,0.0,0.0,0.0,0.0,0.0,0.0,0.0,0.0,0.0,0.0,0.0,0.0,0.0,0.0,0.0,0.0,0.0,0.0,0.0,0.0,0.0,0.0,0.0,0.0,0.0,0.0,0.0,0.0,0.0,0.0,0.0,0.0,0.0,0.0,0.0,0.0,0.0,0.0,6.2694,6.4824,6.1924,6.431,6.5485,0.0,0.0,0.0,0.0,0.0,0.0,6.6769,6.8348,7.0073,7.1872,7.2936,7.367,7.4074,7.6276,7.8112,7.9507,8.0938,8.248,8.4058,8.4058,8.3911,8.3728,8.3508,8.2186,7.9764,7.5065,7.0881,6.7393,6.6549,6.5852,6.5375,6.5999,6.6733,6.743,0.0,0.0,0.0,0.0,0.0,0.0,0.0,0.0,0.0,0.0,0.0,5.0032,5.1887,5.2157,5.2725,5.4012,5.473,5.5418,5.6047,5.5478,5.5418,5.6047,5.5478,5.522,5.526,5.519,5.6352,5.8652,5.7603,5.7698,5.8845,5.8957,5.9009,5.9009,5.9147,5.9166,5.929,6.1249,6.1722,6.1177,0.0,0.0,0.0,0.0,0.0,0.0,0.0,0.0,0.0,0.0,0.0,0.0,0.0,0.0,0.0,0.0,0.0,0.0,0.0,0.0,0.0,0.0,0.0,0.0,0.0,0.0,0.0,0.0,0.0,0.0,0.0,0.0,0.0,0.0,0.0,0.0,0.0,0.0,0.0,6.1814,6.3833,0.0,0.0,0.0,0.0,6.5081,6.7981,7.011,7.0954,7.2532,7.4478,7.6864,7.8516,8.0094,8.1636,8.3287,8.4535,8.538,8.6224,8.7509,8.905,8.905,8.8647,8.7876,8.7105,8.582,8.3801,7.7414,7.4184,7.2973,6.9926,7.0073,7.1762,6.9522,6.9229,6.9706,0.0,0.0,0.0,0.0,0.0,0.0,0.0,0.0,4.9164,4.9793,5.0272,5.1439,5.3862,5.4132,5.482,5.6585,5.7334,5.7633,5.7453,5.6795,5.6346,5.6196,5.5538,5.5179,5.5179,5.6412,5.7205,5.7702,5.8535,5.9225,5.9728,6.0156,6.0386,6.0386,6.0386,6.0336,6.0304,5.9735,6.002,6.0913,6.0383,6.1754,0.0,0.0,0.0,0.0,0.0,0.0,0.0,0.0,0.0,0.0,0.0,0.0,0.0,0.0,0.0,0.0,0.0,0.0,0.0,0.0,0.0,0.0,0.0,0.0,0.0,0.0,0.0,0.0,0.0,0.0,0.0,0.0,0.0,0.0,0.0,0.0,0.0,6.721,7.0146,0.0,6.8128,6.7907,6.8274,6.9119,7.1174,7.323,7.5065,7.7231,7.9507,8.1929,8.3581,8.4976,8.604,8.7142,8.7839,8.8133,8.8426,8.8867,8.9417,8.9417,8.9271,8.894,8.8133,8.7142,8.5857,8.1966,7.8369,7.4992,7.2275,7.1101,7.0991,7.1138,7.1725,7.2422,0.0,0.0,0.0,0.0,0.0,0.0,0.0,0.0,4.9344,4.9553,5.093,5.2636,5.464,5.5658,5.6795,5.8321,5.865,5.859,5.8141,5.7064,5.6376,5.6196,5.5748,5.5418,5.5179,5.7324,5.8206,5.7782,5.9787,6.0655,6.0446,6.1343,6.1642,6.1433,6.1433,6.1433,6.1343,5.9787,5.9606,6.0206,5.8991,6.0348,6.3088,0.0,0.0,0.0,0.0,0.0,0.0,0.0,0.0,0.0,0.0,0.0,0.0,0.0,0.0,0.0,0.0,0.0,0.0,0.0,0.0,0.0,0.0,0.0,0.0,0.0,0.0,0.0,0.0,0.0,0.0,0.0,0.0,0.0,0.0,0.0,7.2422,7.2165,7.4735,7.5469,7.2789,7.2532,7.2863,7.3707,7.5763,7.8038,8.0461,8.215,8.4022,8.6151,8.7545,8.8353,8.861,8.9674,9.0078,8.9821,9.0078,9.0225,9.0225,9.0225,9.0078,8.9784,8.9234,8.839,8.7252,8.5416,8.2406,7.8699,7.6019,7.4294,7.3487,7.4551,7.5285,7.5726,0.0,0.0,0.0,0.0,0.0,0.0,0.0,4.8416,4.9045,4.8386,5.1169,5.3503,5.4251,5.6645,5.8471,5.9189,5.859,5.8171,5.8141,5.6316,5.5508,5.6137,5.6137,5.5867,5.5329,5.7812,5.9159,5.9189,6.1164,6.1792,6.1194,6.248,6.272,6.2121,6.2121,6.2121,6.2091,6.1433,6.0386,5.9069,5.7693,5.8286,6.026,0.0,0.0,0.0,0.0,0.0,0.0,0.0,0.0,0.0,0.0,0.0,0.0,0.0,0.0,0.0,0.0,0.0,0.0,0.0,0.0,0.0,0.0,0.0,0.0,0.0,0.0,0.0,0.0,0.0,0.0,0.0,0.0,0.0,6.7834,7.2092,7.5395,7.624,7.7084,7.6974,7.5359,7.6644,7.7928,7.8809,8.1782,8.4609,8.6958,8.7105,8.7839,8.9454,9.0225,9.0298,8.9528,9.1033,9.14,9.0665,9.1436,9.1803,9.1803,9.1803,9.1363,9.0629,9.0629,8.9711,8.8206,8.7399,8.6114,8.4352,8.1122,7.9837,7.98,7.98,7.9764,7.9507,0.0,0.0,0.0,0.0,0.0,0.0,0.0,4.8416,4.9194,4.9015,5.1887,5.473,5.6825,5.853,6.0386,6.248,6.0745,5.9338,5.886,5.7004,5.5987,5.6166,5.5718,5.6256,5.7992,5.9189,6.0296,6.1283,6.2301,6.272,6.254,6.2899,6.2989,6.281,6.281,6.281,6.275,6.2121,6.1613,6.1074,5.877,5.8984,6.0687,0.0,0.0,0.0,0.0,0.0,0.0,0.0,0.0,0.0,0.0,0.0,0.0,0.0,0.0,0.0,0.0,0.0,0.0,0.0,0.0,0.0,0.0,0.0,0.0,0.0,0.0,0.0,0.0,0.0,0.0,0.0,0.0,7.3523,7.3744,7.6974,7.9837,8.1232,8.3141,8.3728,8.2113,8.2847,8.3801,8.4646,8.604,8.7435,8.8683,8.9307,9.0078,9.1106,9.1363,9.1657,9.2097,9.1877,9.1693,9.1473,9.1693,9.1803,9.1803,9.1803,9.1693,9.1436,9.0849,9.0372,8.9821,8.8426,8.7288,8.604,8.281,8.1158,8.0608,8.0021,7.9433,7.8846,0.0,0.0,0.0,0.0,0.0,0.0,0.0,4.8177,4.8745,4.8476,5.2276,5.5508,5.6765,5.9548,6.1613,6.2301,6.0715,5.9159,5.7962,5.6795,5.6047,5.5777,5.6436,5.7663,5.9488,6.0715,6.1852,6.2899,6.3288,6.3617,6.3887,6.3588,6.3617,6.3887,6.3887,6.3887,6.3857,6.3498,6.3169,6.275,6.0924,6.0572,6.0958,6.0074,6.0871,6.2513,6.335,6.4479,6.5486,6.5401,0.0,0.0,0.0,0.0,0.0,0.0,0.0,0.0,0.0,0.0,0.0,0.0,0.0,0.0,0.0,0.0,0.0,0.0,0.0,0.0,0.0,0.0,0.0,0.0,7.5749,7.9599,8.0709,8.2142,8.3728,8.571,8.7178,8.7655,8.6701,8.7655,8.8353,8.85,8.9895,9.0812,9.0959,9.173,9.2354,9.2831,9.2831,9.3088,9.3602,9.3088,9.2831,9.2831,9.2501,9.2354,9.2317,9.195,9.1803,9.1767,9.1326,9.0922,9.0519,8.9601,8.872,8.7729,0.0,0.0,0.0,0.0,8.0571,7.9543,0.0,0.0,0.0,0.0,0.0,0.0,0.0,4.7938,4.8147,4.7489,5.2576,5.5957,5.5179,5.9668,6.2061,6.0356,5.9338,5.8022,5.6286,5.6047,5.5897,5.5748,5.8052,5.9727,6.0625,6.245,6.3677,6.4216,6.4216,6.4485,6.5024,6.4485,6.4545,6.5144,6.5203,6.5263,6.5263,6.5263,6.4904,6.4276,6.3737,6.254,6.1126,6.1645,6.213,6.2836,6.4228,6.4739,6.4958,6.5099,0.0,0.0,0.0,0.0,0.0,0.0,0.0,0.0,0.0,0.0,0.0,0.0,0.0,0.0,0.0,0.0,0.0,0.0,0.0,0.0,0.0,0.0,0.0,0.0,8.1012,8.4895,8.7847,8.7377,8.7545,8.9711,8.9968,8.9931,8.9858,9.1179,9.1767,9.0959,9.3015,9.3969,9.3272,9.3896,0.0,0.0,0.0,9.4336,9.441,9.4336,9.4299,9.4299,9.3492,9.3088,9.3088,9.2207,9.1803,9.1803,9.1803,9.14,9.0739,9.0739,9.0225,8.9197,8.6848,8.538,8.4499,8.3728,8.2443,8.1012,0.0,0.0,0.0,0.0,0.0,0.0,0.0,4.8327,4.8835,4.8177,5.3234,5.6286,5.4581,5.8141,6.0745,6.0894,5.8351,5.6585,5.6196,5.5179,5.5957,5.9009,6.0146,6.1792,6.4036,6.4964,6.5503,6.5622,6.5622,6.5413,6.5054,6.5443,6.5682,6.5832,6.637,6.661,6.661,6.661,6.652,6.64,6.6281,6.4186,6.1044,6.0656,6.0554,6.091,6.2725,6.4512,6.6031,6.7035,6.8128,6.8774,6.6948,0.0,0.0,0.0,0.0,0.0,0.0,0.0,0.0,0.0,0.0,0.0,0.0,0.0,0.0,0.0,0.0,0.0,0.0,0.0,0.0,7.9569,8.4026,8.8071,9.1882,9.2514,9.2831,9.3308,9.3345,9.3088,9.2464,9.3235,9.3492,9.2684,9.3639,9.4226,9.4079,9.4226,9.4593,9.5217,9.463,9.4593,9.5254,9.463,9.4299,9.4299,9.3492,0.0,9.3088,9.2207,9.1803,9.1803,9.1803,9.1693,9.1583,9.1583,9.0702,8.9234,8.7472,8.5894,8.4499,8.3728,8.281,8.1746,0.0,0.0,0.0,0.0,0.0,0.0,0.0,4.8147,4.8656,4.8327,5.2576,5.5269,5.4311,5.7423,5.9219,5.8231,5.6017,5.497,5.5628,5.6615,5.8321,6.0984,6.269,6.4485,6.646,6.7148,6.7657,6.7956,6.7657,6.7508,6.7508,6.7148,6.7178,6.7537,6.8196,6.8495,6.8495,6.8824,6.8585,6.8046,6.8704,6.6969,6.3977,6.3318,6.3049,6.3189,6.3746,6.4905,6.6177,6.7099,6.8144,6.8842,6.7726,6.7117,6.6745,0.0,0.0,0.0,0.0,0.0,0.0,0.0,0.0,0.0,0.0,0.0,0.0,0.0,0.0,6.7856,0.0,0.0,7.9231,8.2731,8.7772,9.1667,9.3086,9.5213,9.6245,9.5034,9.4556,9.4299,9.4299,9.4666,9.4887,9.4887,9.5254,9.5658,9.6061,9.6098,9.6282,9.6685,9.6282,9.6098,9.6098,9.5694,9.5511,9.5474,9.4263,9.3712,9.3639,9.2391,9.1803,9.1803,9.1803,9.1803,9.1803,9.1803,9.0849,8.9344,8.8536,8.6995,8.5086,8.4315,8.3508,8.2517,0.0,0.0,0.0,0.0,0.0,0.0,0.0,4.8057,4.8536,4.8656,5.1917,5.4102,5.3832,5.6406,5.7184,5.482,5.4102,5.4371,5.5867,5.868,6.1164,6.3139,6.5383,6.7268,6.8704,6.9273,6.9812,7.029,6.9812,6.9752,7.0141,6.9183,6.9034,6.9602,7.026,7.056,7.059,7.1068,7.0709,6.9842,7.0889,7.0021,6.8076,6.7388,6.6759,6.6101,6.565,6.5633,6.6033,6.7112,6.7739,6.8166,6.8301,6.7929,6.7421,6.7117,6.5865,0.0,0.0,0.0,0.0,0.0,0.0,0.0,0.0,0.0,6.6656,6.7639,7.0093,7.308,7.6246,8.0384,8.3821,8.5456,9.0528,9.4086,9.3629,9.6553,9.8137,9.6649,9.5731,9.5437,9.5914,9.6135,9.6428,9.6906,9.7089,9.7456,9.808,9.8117,9.8043,9.7897,9.7897,9.7493,9.6722,9.6685,9.6685,9.6685,9.5217,9.452,9.4483,9.2794,9.206,9.2024,9.1877,9.1803,9.1803,9.162,9.0702,8.9381,8.9234,8.7876,8.593,8.4939,8.4205,8.3287,0.0,0.0,0.0,0.0,0.0,0.0,0.0,0.0,4.9374,4.9942,5.2456,5.3743,5.2546,5.3832,5.4162,5.2665,5.4551,5.6645,5.853,6.0116,6.2899,6.7119,6.8196,6.9542,7.1398,7.1517,7.1607,7.1667,7.1607,7.1308,7.0799,7.1248,7.1487,7.1577,7.2265,7.2595,7.2595,7.2654,7.2595,7.2505,7.2624,7.2505,7.2176,7.1487,6.9423,6.6943,6.6851,6.637,6.6135,6.8242,6.8918,6.9079,6.9722,6.9891,6.9553,6.8166,0.0,6.4613,6.4613,6.3057,6.2076,6.4783,6.4546,6.4512,0.0,0.0,6.9079,7.0575,7.2678,7.5082,7.7733,8.1153,8.4489,8.7605,9.0501,9.3234,9.5666,9.6777,9.7888,9.9616,9.9071,9.8337,9.7676,9.83,9.8447,9.7787,9.8447,9.8888,9.8961,9.8961,9.8631,9.7897,9.7897,9.7493,9.6722,9.6685,9.6685,9.6685,9.5804,9.5364,9.5327,9.3712,9.2941,9.2905,9.2134,9.1803,9.173,9.1033,9.0225,8.9344,8.861,8.7729,8.6701,8.5159,8.4535,8.4132,0.0,0.0,0.0,0.0,0.0,0.0,0.0,0.0,0.0,5.0152,5.2217,5.3264,5.2306,5.2695,5.2815,5.2247,5.3922,5.6196,5.8919,6.1792,6.5114,6.8944,7.05,7.1846,7.3043,7.3043,7.3253,7.3612,7.3253,7.2924,7.2624,7.2535,7.2475,7.2535,7.3582,7.3851,7.3522,7.433,7.421,7.3522,7.3911,7.3612,7.2804,7.1727,6.9512,6.7093,6.7457,6.6541,0.0,0.0,6.8378,6.9147,6.9451,6.9553,6.9248,6.7726,6.6,0.0,6.3024,6.326,0.0,0.0,6.7523,6.9316,7.1751,7.3003,7.395,7.4965,7.7299,7.9935,8.2306,8.4995,8.7668,0.0,9.2929,9.5347,9.7399,9.8812,9.965,9.9579,9.9732,9.9659,9.9328,9.9585,9.9842,9.9989,9.9879,9.9989,10.0503,10.0099,9.9659,9.9292,9.9292,9.8924,9.8117,9.764,9.7383,9.7383,9.6098,9.5511,9.5474,9.4336,9.3529,9.3051,9.217,9.1803,9.1767,9.1436,9.0812,9.0041,8.9234,8.8426,8.7509,8.5894,8.5306,8.4939,0.0,0.0,0.0,0.0,0.0,0.0,0.0,0.0,0.0,0.0,5.2037,5.2725,5.2247,5.2366,5.2336,5.1977,5.3503,5.5807,5.889,6.263,6.637,7.0051,7.1936,7.3402,7.442,7.445,7.4779,7.5407,7.4929,7.4719,7.4689,7.421,7.4001,7.4031,7.4988,7.5138,7.4779,7.5736,7.5497,7.448,7.4958,7.427,7.2744,7.1218,6.9015,6.6581,6.669,6.5214,6.3579,6.5465,6.6712,6.7692,6.8504,6.8774,6.8504,6.7218,6.5764,6.4275,6.2888,0.0,0.0,6.7996,7.0838,7.3815,7.5709,7.7468,7.8991,7.9938,8.2171,8.4505,8.6366,8.8328,9.0357,9.2421,9.4503,9.662,9.846,9.9236,9.928,9.8372,9.8416,9.8562,9.8782,9.9719,10.0613,10.1384,10.12,10.109,10.1494,10.12,10.0796,10.0319,10.0283,9.9916,9.9108,9.83,9.7897,9.786,9.6502,9.5841,9.5804,9.4777,9.3712,9.2721,9.206,9.1803,9.1803,9.1803,9.1326,9.0519,8.9711,8.894,8.8023,8.6628,8.5967,8.549,0.0,0.0,0.0,0.0,0.0,0.0,0.0,0.0,0.0,0.0,0.0,0.0,0.0,5.2755,5.2636,5.1349,5.3653,5.6286,5.8919,6.2181,6.6071,7.0679,7.2176,7.3821,7.5796,7.5856,7.6155,7.6754,7.6754,7.6724,7.6724,7.6724,7.6694,7.6694,7.6754,7.6754,7.6754,7.6784,7.6425,7.5856,7.5856,7.4689,7.2714,7.0739,6.8213,6.5596,6.4272,6.2058,6.0064,6.2885,6.3748,6.4174,6.7049,6.7929,0.0,6.7015,6.5764,6.4749,6.5392,0.0,6.8538,7.1481,7.3916,7.6386,7.9363,8.1731,8.3727,8.5249,8.6771,8.8057,8.8835,9.0222,9.1744,9.33,9.4265,9.5652,9.8332,9.6379,9.504,9.6126,9.4868,9.4253,0.0,9.8254,10.0613,10.1384,10.2191,10.2301,10.1494,10.2191,10.1898,10.0319,10.0283,9.9916,9.9108,9.83,9.7897,9.7897,9.7052,9.6649,9.6612,9.4997,9.3382,9.184,9.1803,9.1803,9.1803,9.1803,9.1326,9.0519,8.9711,8.894,8.8096,8.7288,8.6481,8.5563,0.0,0.0,0.0,0.0,0.0,0.0,0.0,0.0,0.0,0.0,0.0,0.0,0.0,0.0,0.0,0.0,5.2845,5.497,5.7603,6.1283,6.4844,6.8166,7.1278,7.3432,7.454,7.4988,7.5736,7.6814,7.6425,7.6425,7.6814,7.6814,7.6814,7.6844,7.7293,7.7233,7.6844,7.7293,7.6874,7.5826,7.4929,7.3911,7.2667,7.031,6.7059,6.3733,0.0,6.1348,5.9479,6.0835,6.166,6.2212,6.3226,6.4208,6.485,6.4106,6.4918,6.6136,6.6373,6.9688,7.368,7.6217,7.9261,8.2272,8.4809,8.6332,8.7211,8.7245,8.6873,8.6771,8.7516,8.8057,8.9342,9.2319,9.4112,9.6352,9.974,9.9215,9.7716,9.565,9.6031,0.0,0.0,0.0,9.9475,10.1384,10.2191,10.2815,10.3072,10.3293,10.3219,10.2705,10.2191,10.1494,10.0686,9.9365,9.8411,9.7897,9.7089,9.6685,9.6649,9.5034,9.3969,9.3382,9.2281,9.1803,9.1803,9.1803,9.1657,9.1326,9.0519,9.0041,8.9638,8.828,8.7619,8.7142,0.0,0.0,0.0,0.0,0.0,0.0,0.0,0.0,0.0,0.0,0.0,0.0,0.0,0.0,0.0,0.0,0.0,5.3743,5.5927,5.8919,6.1882,6.4755,6.7777,6.9931,7.1038,7.1487,7.2475,7.4031,7.3881,7.436,7.5437,7.5677,7.6036,7.6514,7.6933,7.7023,7.6814,7.6784,7.5886,7.43,7.2505,7.1058,6.9665,6.6866,6.4159,0.0,6.0922,5.9812,5.8794,5.9515,6.0047,6.0588,6.1129,6.2144,6.3159,6.3463,6.5696,6.8267,6.9316,7.395,7.8957,8.0987,8.4065,8.7076,8.8801,8.9342,8.914,8.7854,8.6196,8.5046,8.5249,8.4674,8.552,8.9782,9.128,9.3864,9.9101,9.7611,9.5961,9.5455,9.4866,9.3742,0.0,0.0,0.0,10.0393,10.1898,10.2925,10.3403,10.3696,10.3806,10.3513,10.2705,10.2008,10.1494,10.0209,9.8998,9.7897,9.7089,9.6539,9.6245,9.4887,9.4153,9.3786,9.2391,9.1803,9.1803,9.1803,9.1803,9.173,9.0922,9.0592,9.0408,8.8793,8.8206,8.7949,0.0,0.0,0.0,0.0,0.0,0.0,0.0,0.0,0.0,0.0,0.0,0.0,0.0,0.0,0.0,0.0,0.0,0.0,5.4012,5.5388,5.7543,6.0715,6.2211,6.3857,6.5772,6.5832,6.6819,6.8794,6.9423,7.0709,7.2565,7.3223,7.424,7.5437,7.5437,7.5766,7.6245,7.4958,7.3313,7.1438,6.883,6.6516,6.432,6.1196,6.0044,5.9919,5.81,5.7586,5.8017,5.8727,5.8998,5.9336,6.0791,6.1806,6.2956,6.5189,6.8064,7.1176,7.4187,7.9329,8.42,8.5723,8.8294,9.0594,9.1203,9.0763,8.9545,8.7177,8.4776,8.2847,0.0,0.0,8.0682,8.6,8.6474,8.8943,9.6805,9.2616,9.0642,0.0,0.0,0.0,0.0,0.0,0.0,9.8924,10.131,10.2705,10.2889,10.3586,10.3696,10.2889,10.2081,10.1604,10.1567,10.0613,9.9402,9.7897,9.7089,9.6318,9.5547,9.4703,9.3859,9.3125,9.2207,9.1803,9.1803,9.1803,9.1803,9.173,9.0959,9.0665,9.0482,8.8904,8.8316,8.8023,0.0,0.0,0.0,0.0,0.0,0.0,0.0,0.0,0.0,0.0,0.0,0.0,0.0,0.0,0.0,0.0,0.0,0.0,5.2665,5.4431,5.6047,5.7363,6.0116,6.2091,6.3079,6.3558,6.4545,6.6041,6.6221,6.6789,6.7777,6.8435,6.8944,6.9273,6.9273,6.9363,6.9453,6.8615,6.815,6.7779,6.5696,6.4723,6.4326,6.3068,6.1548,6.022,6.0244,5.9245,5.7915,5.8118,5.8896,5.9911,6.0283,6.2076,6.458,6.7421,7.1548,7.5946,7.9464,8.437,8.8869,9.0357,9.215,9.33,9.2353,9.1135,8.8937,8.4471,8.0412,7.6961,0.0,0.0,0.0,8.4988,8.9467,0.0,10.1629,10.072,0.0,9.8865,0.0,9.7414,9.5495,9.6684,0.0,0.0,10.0907,10.2191,10.5311,10.5678,10.5678,10.5495,10.399,10.2999,10.2412,9.9805,9.83,9.7897,9.7089,9.6575,9.6355,9.4923,9.4189,9.3896,9.2427,9.1803,9.1803,9.1803,9.1803,9.1767,9.1583,9.1473,9.1363,9.0372,8.9601,8.8977,0.0,0.0,0.0,0.0,0.0,0.0,0.0,0.0,0.0,0.0,0.0,0.0,0.0,0.0,0.0,0.0,0.0,0.0,0.0,5.2815,5.3743,5.4401,5.6226,5.7513,5.8171,5.853,5.9518,6.1134,6.1134,6.1912,6.3408,6.3797,6.4276,6.4844,6.4844,6.5319,6.594,6.5001,6.4677,0.0,0.0,6.1498,6.1552,6.0631,5.9812,5.9172,5.9313,5.9133,0.0,0.0,0.0,6.2313,6.3632,6.6102,6.9147,7.2529,7.6724,8.1088,8.4809,8.941,9.3402,9.4586,9.4789,9.4045,9.1541,8.8801,8.5114,7.9228,7.4965,0.0,6.9282,7.165,7.6002,0.0,0.0,0.0,10.1373,10.145,10.1018,0.0,10.1437,0.0,9.9645,10.018,10.131,0.0,10.2008,10.2705,10.5715,10.5789,10.5789,10.5789,10.421,10.2815,10.1714,9.9512,9.8264,9.7897,9.7089,9.6685,9.6649,9.5034,9.4299,9.4189,9.2537,9.1803,9.1803,9.1803,9.1803,9.1803,9.1803,9.1803,9.1657,9.0519,8.9821,8.9234,0.0,0.0,0.0,0.0,0.0,0.0,0.0,0.0,0.0,0.0,0.0,0.0,0.0,0.0,0.0,0.0,0.0,0.0,0.0,0.0,5.1468,5.2037,5.2067,5.2336,5.2905,5.2905,5.3773,5.5508,5.5598,5.6795,5.9039,5.9129,5.9897,6.1117,6.1006,6.191,6.3547,6.2236,6.1683,6.1599,5.9138,5.8162,5.8063,0.0,0.0,5.7645,5.6934,0.0,0.0,0.0,6.4174,6.617,6.918,7.2157,7.5303,7.9261,8.278,8.6196,9.0053,9.4079,9.7326,9.8003,9.6413,9.3639,8.9579,8.5114,7.9904,7.3071,0.0,6.6711,6.5222,6.7658,7.2151,7.9128,0.0,9.1101,9.938,9.9633,10.0337,10.3952,10.291,10.26,10.4058,10.3484,10.3714,10.5311,10.397,10.3714,10.5201,10.5311,10.5201,10.4908,10.3513,10.2008,10.0503,9.9548,9.8741,9.8043,9.7126,9.6685,9.6649,9.5034,9.4299,9.4189,9.2537,9.1803,9.1803,9.1803,9.1803,9.1803,9.1803,9.1803,9.162,9.0225,8.9601,8.9234,0.0,0.0,0.0,0.0,0.0,0.0,0.0,0.0,0.0,0.0,5.2306,5.2215,0.0,0.0,0.0,0.0,0.0,0.0,0.0,0.0,0.0,5.1379,5.1379,5.1439,5.1558,5.1558,5.1738,5.2067,5.2636,5.3114,5.3563,5.4132,5.5054,5.6111,5.5198,5.5949,5.7797,5.6124,5.6499,5.8017,5.6988,5.7144,5.7924,5.7729,0.0,0.0,0.0,0.0,0.0,0.0,6.8267,7.1582,7.4593,7.757,8.0919,8.5892,8.826,9.0188,9.4552,9.7191,9.8747,9.8882,9.6785,9.3233,8.7651,8.2408,0.0,0.0,6.5425,6.2888,6.1366,6.5019,7.1095,7.956,8.5933,9.2992,10.2421,10.3973,10.4512,0.0,10.6604,10.7086,10.6227,10.541,0.0,0.0,10.5744,10.529,10.6071,10.6192,10.5495,10.4173,10.3219,10.2191,10.1274,9.9842,9.9035,9.8888,9.7419,9.6685,9.6649,9.5034,9.4299,9.4189,9.2537,9.1803,9.1803,9.1803,9.1803,9.1803,9.1803,9.1803,9.1767,9.1473,9.0555,8.9381,0.0,0.0,0.0,0.0,0.0,0.0,0.0,5.0747,5.1717,5.2617,5.3406,5.3316,5.1862,5.1439,5.1229,0.0,0.0,0.0,0.0,0.0,0.0,0.0,5.1229,5.1479,5.2063,5.2063,5.2579,5.3517,0.0,5.307,5.3923,5.3285,5.362,5.475,5.413,5.4806,5.6302,5.5448,5.6059,5.7573,5.7205,5.7372,5.7881,0.0,0.0,0.0,0.0,0.0,0.0,0.0,6.9079,7.5337,7.872,8.234,8.6061,8.9748,9.1913,9.3909,9.7631,9.9728,10.0777,10.0405,9.6582,9.1169,8.4403,0.0,0.0,0.0,6.0994,5.9268,5.8524,6.2651,6.8436,7.5457,8.122,8.8391,9.8446,10.0493,10.1968,10.4794,10.6702,10.7772,0.0,10.7509,10.7662,10.8785,10.7796,10.6904,10.6413,10.6376,10.5789,10.4614,10.3696,10.2705,10.1494,9.9916,9.8888,9.8447,9.7273,9.6685,9.6649,9.5034,9.4299,9.4189,9.2537,9.1803,9.1803,9.1803,9.1803,9.1803,9.1803,9.1803,9.173,9.1326,9.0445,8.9344,0.0,0.0,0.0,0.0,0.0,0.0,0.0,5.1682,5.2958,5.4291,5.5101,5.4823,5.2997,5.1867,5.1293,0.0,0.0,0.0,0.0,0.0,0.0,0.0,0.0,0.0,0.0,0.0,0.0,5.5421,5.3939,0.0,0.0,0.0,0.0,0.0,5.4672,5.5329,5.6547,5.6282,5.6887,0.0,0.0,5.7881,0.0,0.0,0.0,0.0,0.0,0.0,0.0,0.0,6.7793,7.5168,7.9058,8.4539,8.9918,9.1846,9.4248,9.6886,9.9694,10.1487,10.2231,10.1183,9.5804,8.8835,8.1224,7.3849,0.0,6.0114,5.7712,5.6867,5.7002,6.052,6.5221,0.0,7.5793,8.2637,9.3196,9.5958,9.8585,0.0,10.5593,0.0,10.801,10.8173,0.0,10.8802,10.7945,10.7102,10.6413,10.6192,10.5789,10.5128,10.421,10.2999,10.1788,9.9989,9.8778,9.8154,9.7163,9.6685,9.6649,9.5217,9.4446,9.4226,9.2721,9.195,9.1803,9.1803,9.1803,9.1803,9.1803,9.1803,9.173,9.1106,9.0262,8.9307,0.0,0.0,0.0,0.0,0.0,0.0,0.0,5.3376,5.5453,5.8058,5.7835,5.6842,5.5007,5.2639,5.1635,0.0,0.0,0.0,0.0,0.0,0.0,0.0,0.0,0.0,0.0,0.0,0.0,5.4685,5.4537,0.0,0.0,0.0,0.0,0.0,0.0,5.573,5.7701,5.6624,0.0,0.0,0.0,0.0,0.0,0.0,0.0,0.0,0.0,0.0,0.0,0.0,0.0,6.7489,7.1921,8.1494,9.1271,9.215,0.0,0.0,10.0675,10.1893,10.1995,9.9829,9.4248,8.7177,7.9058,0.0,6.5324,5.9235,5.734,5.7002,5.7679,5.8727,0.0,0.0,0.0,7.8952,9.0109,9.4737,9.8074,10.1349,0.0,0.0,10.5158,10.555,10.5678,10.5107,10.3614,10.3927,10.6328,10.5605,10.5201,10.5128,10.3623,10.2705,10.2595,10.0319,9.9071,9.8961,9.7419,9.6685,9.6685,9.5804,9.4997,9.4226,9.3345,9.2537,9.1803,9.1803,9.1803,9.1803,9.1803,9.1803,9.1803,9.173,9.0739,8.9344,0.0,0.0,0.0,0.0,0.0,0.0,5.0575,5.2095,5.4033,5.6801,5.7471,5.7452,5.681,5.4637,5.2822,5.1754,0.0,0.0,0.0,0.0,0.0,0.0,0.0,0.0,0.0,0.0,5.5398,5.5918,5.5693,0.0,0.0,0.0,0.0,0.0,0.0,5.7072,5.7881,5.7372,0.0,0.0,0.0,0.0,0.0,0.0,0.0,0.0,0.0,0.0,5.4905,5.7002,0.0,0.0,6.4208,7.1515,0.0,0.0,9.1406,9.506,9.9999,10.1893,10.1995,9.966,9.3064,8.5317,7.845,0.0,6.3396,5.8287,5.6664,5.6089,5.5919,5.6156,5.8051,0.0,0.0,0.0,7.9803,8.2955,8.7083,9.5077,9.8084,0.0,0.0,0.0,10.6174,10.5856,10.4781,10.4516,10.5054,10.4817,10.4845,10.5128,10.399,10.3182,10.2705,10.0319,9.9108,9.9071,9.7456,9.6685,9.6685,9.5878,9.507,9.4263,9.3455,9.2611,9.1803,9.1803,9.1803,9.1803,9.1803,9.1803,9.1803,9.1803,9.0776,8.9381,0.0,0.0,0.0,0.0,0.0,4.8511,5.0974,5.2426,5.4179,5.6822,5.7579,5.7958,5.8012,5.5859,5.3728,5.1891,5.2253,0.0,0.0,0.0,0.0,0.0,0.0,0.0,0.0,0.0,5.6571,5.7137,5.688,5.7114,0.0,0.0,5.7114,5.7881,0.0,0.0,0.0,0.0,0.0,0.0,0.0,0.0,0.0,0.0,0.0,0.0,0.0,0.0,0.0,0.0,0.0,0.0,0.0,0.0,0.0,0.0,8.6771,9.1913,9.78,10.0912,10.1825,9.9119,9.2049,8.4099,0.0,0.0,6.2313,5.8017,5.6393,5.5547,5.5006,5.4566,5.5412,5.8896,6.0182,6.4005,7.3308,7.5811,8.0209,8.9681,0.0,9.5093,10.1046,10.3948,10.5535,10.5669,10.461,10.41,10.4563,10.3772,10.3906,10.5081,10.432,10.3513,10.2705,10.0319,9.9108,9.9071,9.7456,9.6685,9.6685,9.6098,9.5437,9.4593,9.3786,9.2978,9.217,9.1913,9.1803,9.1803,9.1803,9.1803,9.1803,9.1803,9.0776,8.9381,0.0,0.0,0.0,0.0,0.0,0.0,5.3531,5.5391,5.7233,5.9726,5.9006,5.8378,5.8573,5.5842,5.3945,5.4063,5.3404,0.0,0.0,0.0,0.0,0.0,0.0,0.0,0.0,0.0,5.7171,5.7881,5.7881,5.7881,5.7881,5.7881,5.7881,5.7881,0.0,0.0,0.0,0.0,0.0,0.0,0.0,0.0,0.0,0.0,0.0,0.0,0.0,0.0,0.0,0.0,0.0,0.0,0.0,0.0,0.0,0.0,8.1562,8.9951,9.374,9.8544,10.1589,9.7834,9.1305,8.3828,0.0,6.8876,6.2448,5.866,5.6731,5.5716,5.5716,5.4499,5.4499,5.7442,6.0419,6.5222,7.3477,7.7198,8.1054,8.6332,8.7617,8.985,9.4349,9.9347,10.2579,10.3341,10.1414,10.1711,10.5188,10.2602,10.2273,10.5007,10.432,10.3513,10.2705,10.0319,9.9108,9.9071,9.7456,9.6685,9.6685,9.6685,9.6245,9.5437,9.463,9.3822,9.3015,9.217,9.1803,9.1803,9.1803,9.1803,9.1803,9.1803,9.0776,8.9344,0.0,0.0,0.0,0.0,0.0,0.0,0.0,5.3324,5.4675,5.6469,5.7005,5.7465,5.8043,5.6292,5.5152,5.5223,5.4082,0.0,0.0,0.0,0.0,0.0,0.0,0.0,0.0,0.0,5.7645,5.7881,5.8389,5.893,5.937,5.8896,5.866,5.8626,5.8118,5.7881,0.0,0.0,0.0,0.0,0.0,0.0,5.7712,0.0,0.0,0.0,0.0,0.0,0.0,0.0,0.0,0.0,0.0,0.0,0.0,6.3937,7.2022,8.0006,8.3761,8.7482,8.941,8.5655,8.1021,7.6082,7.1142,6.5425,6.0283,5.707,5.5615,5.4803,5.4296,5.3822,5.4972,5.9505,6.1434,6.4174,6.9316,7.483,8.0107,8.4843,9.2793,9.8901,10.1218,10.2753,10.383,10.4154,10.3366,10.35,10.4563,10.3808,10.3617,10.4274,10.3513,10.2705,10.1898,9.9989,9.9108,9.9071,9.7456,9.6685,9.6685,9.6685,9.5951,9.4666,9.441,9.3492,9.217,9.1913,9.1803,9.1803,9.1803,9.1803,9.1803,9.1803,9.0776,8.9381,0.0,0.0,0.0,0.0,0.0,0.0,0.0,5.299,5.3956,5.4782,5.5564,5.6359,5.7374,5.5919,5.5108,5.5683,5.46,0.0,0.0,0.0,0.0,0.0,0.0,0.0,5.7205,5.7645,5.7931,5.7983,5.8451,5.8864,5.9098,5.8831,5.8595,5.8294,5.8039,5.7881,0.0,0.0,0.0,0.0,0.0,0.0,5.6934,0.0,0.0,0.0,0.0,0.0,0.0,0.0,0.0,0.0,0.0,0.0,0.0,0.0,6.414,7.0026,7.6048,8.0445,8.2611,7.9464,7.5845,0.0,6.8335,6.3429,5.8998,5.663,5.531,5.4465,5.3991,5.3687,5.4668,5.8186,6.008,6.2618,0.0,0.0,0.0,8.5249,9.4011,9.9763,10.0411,10.2361,10.3615,10.3659,10.363,10.3796,10.4618,10.3854,10.3402,10.3439,10.3293,10.2595,10.1494,9.9916,9.9108,9.9071,9.7456,9.6685,9.6685,9.6392,9.5694,9.4703,9.4116,9.3272,0.0,9.195,9.1803,9.1803,9.1803,9.1803,9.1803,9.1803,9.0959,8.9858,0.0,0.0,0.0,0.0,0.0,0.0,0.0,5.4093,5.4499,5.4499,5.4499,5.504,5.6427,5.4735,5.4093,5.5513,0.0,0.0,0.0,0.0,0.0,0.0,0.0,0.0,5.7881,5.7881,5.8001,5.8231,5.8297,5.8162,5.778,5.813,5.8049,5.7437,5.7741,5.7881,0.0,0.0,0.0,0.0,0.0,0.0,0.0,0.0,0.0,0.0,0.0,0.0,0.0,0.0,0.0,0.0,0.0,0.0,0.0,0.0,0.0,0.0,0.0,7.598,7.9261,7.7096,7.395,7.0466,0.0,0.0,0.0,5.6934,5.5513,5.4532,5.4668,5.4025,5.3856,5.4905,5.7476,6.1095,0.0,7.2428,0.0,0.0,9.259,9.489,9.3977,9.9087,10.2378,10.2315,10.2414,10.3328,10.496,10.3218,10.233,10.2742,10.3403,10.2999,10.1384,9.9879,9.9071,9.8998,9.7456,9.6685,9.6575,9.5841,9.5437,9.5254,9.3749,9.3051,9.2941,9.2134,9.1803,9.1803,9.1803,9.1803,9.1803,9.1803,9.1289,9.0555,0.0,0.0,0.0,0.0,0.0,0.0,0.0,0.0,0.0,0.0,5.3754,5.389,5.4228,5.3822,5.389,0.0,0.0,0.0,0.0,0.0,0.0,0.0,0.0,0.0,5.7881,5.7881,5.8174,5.8858,5.9396,5.9912,6.0378,5.9879,5.9598,5.9362,5.8383,5.7881,0.0,0.0,0.0,0.0,0.0,0.0,0.0,0.0,0.0,0.0,5.46,5.4972,0.0,0.0,0.0,0.0,0.0,0.0,0.0,0.0,5.7205,5.7239,6.0622,0.0,6.4681,6.3024,6.1941,6.1061,0.0,0.0,0.0,0.0,0.0,5.4093,5.5243,5.4397,5.4871,5.9066,6.1264,6.3666,6.7151,0.0,0.0,9.4755,9.8645,9.9694,9.7225,10.1185,10.3691,10.3058,10.4527,10.5261,10.5044,10.4619,10.385,10.2705,10.2889,10.2191,10.0613,9.9622,9.8778,9.8154,9.7163,9.6392,9.5804,9.5584,9.485,9.3639,9.3272,9.2721,9.2097,9.1877,9.1803,9.1803,9.1803,9.1803,9.1803,9.1803,9.1289,9.0592,0.0,0.0,0.0,0.0,0.0,0.0,0.0,0.0,0.0,0.0,0.0,5.3518,5.3518,5.3518,0.0,0.0,0.0,0.0,0.0,0.0,0.0,0.0,0.0,5.7476,5.7881,5.7881,5.8167,5.8675,5.9042,5.9538,6.0043,5.9505,5.9243,5.9254,5.8302,5.7712,0.0,0.0,0.0,0.0,5.5953,0.0,0.0,0.0,0.0,0.0,5.4465,5.4871,0.0,5.6427,5.707,5.7408,0.0,0.0,0.0,0.0,5.6359,5.5513,5.7002,5.8457,5.9404,5.8592,5.8389,5.8321,5.7983,0.0,0.0,0.0,0.0,0.0,5.4566,5.4329,5.5141,5.866,6.1061,0.0,0.0,0.0,8.9681,9.7123,9.9457,10.0284,9.9966,10.2098,10.3477,10.3701,10.4831,10.5261,10.5044,10.4724,10.3703,10.1806,10.2019,10.1604,10.0283,9.9512,9.8704,9.7897,9.6722,9.5914,9.5474,9.474,9.3932,9.3088,9.2684,9.2244,9.1803,9.1803,9.1803,9.1803,9.1803,9.1803,9.1803,9.1803,9.151,9.1143,0.0,0.0,0.0,0.0,0.0,0.0,0.0,0.0,0.0,0.0,0.0,0.0,0.0,0.0,0.0,0.0,0.0,0.0,0.0,0.0,0.0,0.0,5.7509,5.7881,5.7881,5.7881,5.801,5.8162,5.8624,5.8936,5.9,5.9002,5.8771,5.8257,5.7917,5.7306,0.0,0.0,0.0,0.0,5.4634,0.0,0.0,0.0,0.0,0.0,0.0,0.0,0.0,5.619,5.663,5.663,5.663,0.0,0.0,0.0,0.0,0.0,5.6799,5.8389,5.9404,5.8829,5.8592,5.8355,5.7712,0.0,0.0,0.0,0.0,0.0,0.0,5.4668,0.0,0.0,0.0,0.0,7.9972,8.5012,9.0053,9.7157,9.8206,9.9193,10.1359,10.2052,10.2944,10.4,10.4304,10.4526,10.4677,10.41,10.2719,10.0634,10.0786,10.0591,9.9822,9.9359,9.8631,9.7676,9.6318,9.5547,9.529,9.3896,9.3125,9.2868,9.2134,9.1803,9.1803,9.1803,9.1803,9.1803,9.1803,9.1803,9.1803,9.1803,9.1803,9.1767,0.0,0.0,0.0,0.0,0.0,0.0,0.0,0.0,0.0,0.0,0.0,0.0,0.0,0.0,0.0,0.0,0.0,0.0,0.0,0.0,0.0,5.6833,5.7509,5.7881,5.7881,5.7881,5.791,5.7965,6.0526,6.1492,6.093,6.2165,6.1032,5.7931,5.7268,5.6562,5.5886,5.5886,0.0,0.0,5.4837,0.0,0.0,0.0,0.0,0.0,0.0,0.0,0.0,5.5581,5.5886,5.5886,5.5886,0.0,0.0,0.0,0.0,0.0,5.8693,6.0689,6.1129,5.7915,5.6664,5.619,5.6089,0.0,0.0,0.0,0.0,0.0,0.0,5.7306,5.8693,0.0,0.0,7.5608,8.7076,8.9275,9.1778,9.736,9.9119,9.9499,9.8671,10.1283,10.3227,10.3301,10.4268,10.4447,10.3109,10.2999,10.1915,9.9714,9.9134,9.8426,9.763,9.8591,9.8374,9.6869,9.6649,9.5804,9.4483,9.4226,9.3345,9.1987,9.184,9.1803,9.1803,9.1803,9.1803,9.1803,9.1803,9.1803,9.1803,9.1803,9.1803,9.1657,0.0,0.0,0.0,0.0,0.0,0.0,0.0,0.0,0.0,0.0,0.0,0.0,0.0,0.0,0.0,0.0,0.0,0.0,0.0,0.0,5.6934,5.7374,5.734,5.7306,5.7306,5.849,5.9302,5.9742,6.1941,6.3226,6.3666,6.3159,6.0892,5.7273,5.6934,5.619,5.5108,5.5108,5.4871,5.4499,0.0,0.0,0.0,0.0,0.0,0.0,0.0,0.0,0.0,0.0,5.5108,5.5108,5.5108,0.0,0.0,0.0,0.0,0.0,5.7645,5.8829,5.9336,5.9268,5.9573,5.9404,5.734,0.0,0.0,0.0,0.0,0.0,0.0,0.0,6.3768,7.0703,0.0,8.1765,8.8125,8.9715,9.1846,9.6277,9.7428,9.8599,10.0614,10.2281,10.3487,10.4107,10.4753,10.4614,10.3403,10.2195,10.0778,9.9147,9.8559,9.7552,9.6086,9.7595,9.786,9.6685,9.6282,9.5437,9.4299,9.3859,9.2978,9.1803,9.1803,9.1803,9.1803,9.1803,9.1803,9.1803,9.1803,9.1803,9.173,9.1326,9.1436,9.1546,0.0,0.0,0.0,0.0,0.0,0.0,0.0,0.0,0.0,0.0,0.0,0.0,0.0,0.0,0.0,0.0,0.0,0.0,0.0,5.6325,5.6156,5.707,5.707,5.7306,5.7848,5.9674,6.1197,6.2347,6.4005,6.5121,6.5628,6.326,6.0216,5.6799,5.6427,5.5547,5.4329,5.4329,5.4025,5.3518,0.0,0.0,0.0,0.0,0.0,0.0,0.0,0.0,0.0,0.0,0.0,0.0,0.0,0.0,0.0,5.4532,5.46,5.4938,5.6596,5.7306,5.8118,6.0452,0.0,6.1772,6.008,0.0,0.0,0.0,0.0,0.0,0.0,6.4749,0.0,7.7536,8.2813,8.6907,8.9444,9.0797,9.2759,9.6176,9.6413,9.8064,10.2317,10.2844,10.3321,10.441,10.4504,10.421,10.3403,10.1277,9.9524,9.82,9.7609,9.6501,9.4853,9.6363,9.7002,9.6685,9.5878,9.507,9.4263,9.3455,9.2611,9.1803,9.1803,9.1803,9.1803,9.1803,9.1803,9.1803,9.1803,9.1803,9.1693,9.0812,9.1069,9.1473,0.0,0.0,0.0,0.0,0.0,0.0,0.0,0.0,0.0,0.0,0.0,0.0,0.0,0.0,0.0,0.0,0.0,0.0,0.0,5.5784,5.5446,5.4837,5.6731,5.8795,6.0926,6.1806,6.326,6.5358,6.7624,6.7658,6.5628,6.2719,5.9742,5.6731,5.5378,5.4329,5.3585,5.3585,5.3551,5.3518,5.3518,0.0,0.0,0.0,0.0,0.0,0.0,0.0,0.0,0.0,0.0,0.0,0.0,0.0,5.3721,5.4397,5.46,5.5074,5.7205,5.8829,5.9911,6.0148,5.9235,0.0,6.4072,6.3497,0.0,0.0,0.0,0.0,0.0,7.1176,7.713,8.0479,8.5993,9.1102,9.4721,9.533,9.6244,9.8578,9.8273,9.87,10.0905,10.1251,10.1639,10.2798,10.2889,10.2522,10.1677,9.9729,9.7908,9.6605,9.5117,9.4302,9.4039,9.4714,9.5622,9.6685,9.5878,9.507,9.4263,9.3455,9.2611,9.1803,9.1803,9.1803,9.1803,9.1803,9.1803,9.1803,9.1803,9.1803,9.1657,9.0629,9.0886,9.1473,0.0,0.0,0.0,0.0,0.0,0.0,0.0,0.0,0.0,0.0,0.0,0.0,0.0,0.0,0.0,0.0,0.0,0.0,0.0,5.4837,5.4634,5.5277,5.6089,5.7577,5.9844,6.3328,6.6237,6.8504,6.891,6.7455,6.4275,6.1738,5.8727,5.5412,5.4837,5.4194,5.3518,5.3518,5.3518,5.3518,5.3518,5.3518,0.0,0.0,0.0,0.0,0.0,0.0,0.0,0.0,5.3518,5.3619,5.4363,5.4397,5.4228,5.4499,5.46,5.4769,5.5615,5.7577,5.9674,6.0622,0.0,0.0,0.0,0.0,0.0,0.0,0.0,0.0,0.0,0.0,8.075,8.4234,8.941,9.3808,9.6142,9.6886,9.7495,9.8307,9.8172,9.8769,10.0799,10.1039,10.1532,10.2614,10.2191,10.1323,9.9705,9.7533,9.5816,9.4457,9.4242,9.3817,9.3226,9.4566,9.5236,9.5217,9.5401,9.4813,9.3529,9.3235,9.2611,9.1803,9.1803,9.1803,9.1803,9.1803,9.1803,9.1803,9.1803,9.1803,9.162,9.0225,9.0592,9.14,0.0,0.0,0.0,0.0,0.0,0.0,0.0,0.0,0.0,0.0,0.0,0.0,0.0,0.0,0.0,0.0,0.0,0.0,5.4938,5.4059,5.3957,5.4972,5.548,5.6765,5.8964,6.414,6.7692,6.9451,6.8977,6.6711,6.2787,6.0723,5.8017,5.4938,5.4702,5.4329,5.3822,5.3585,5.3518,5.3518,5.3518,5.3518,0.0,0.0,0.0,0.0,0.0,0.0,0.0,0.0,5.3518,5.3619,5.4363,5.4431,5.4296,5.4532,5.4431,5.4262,5.4262,5.5716,5.7814,0.0,0.0,0.0,0.0,0.0,0.0,0.0,7.5709,0.0,0.0,0.0,0.0,8.6298,9.1102,9.5026,9.6954,9.7461,9.7732,9.7969,9.78,9.8392,10.0411,10.0437,10.0745,10.1918,10.1384,10.0162,9.8106,9.6029,9.4348,9.3237,9.3264,9.3061,9.2652,9.4277,9.4703,9.3932,9.4483,9.4189,9.3088,9.2831,9.2354,9.1803,9.1803,9.1803,9.1803,9.1803,9.1803,9.1803,9.1803,9.1803,9.1546,8.9417,8.9344,8.9968,0.0,0.0,0.0,0.0,0.0,0.0,0.0,0.0,0.0,0.0,0.0,0.0,0.0,0.0,0.0,0.0,0.0,0.0,5.3518,5.3518,5.3518,5.3518,5.4938,5.6731,5.893,6.4072,6.7117,6.7895,6.7895,6.5595,6.1231,5.9708,5.7814,5.5683,5.4905,5.46,5.4532,5.3822,5.3518,5.3518,5.3518,5.3518,5.3518,0.0,0.0,0.0,0.0,0.0,0.0,0.0,5.3518,5.3619,5.4363,5.4093,5.3653,5.4397,5.4093,5.3518,5.3518,5.3518,0.0,0.0,0.0,0.0,0.0,0.0,0.0,8.2306,0.0,7.8044,7.8044,7.9837,0.0,8.6298,9.0662,9.462,9.7563,9.7326,9.7157,9.7901,9.7326,9.7638,9.9566,9.9163,9.917,10.0196,10.0283,9.9321,9.7239,9.5244,9.3675,9.2896,9.2153,9.1924,9.234,9.3618,9.3859,9.3088,9.3088,9.3088,9.3051,9.217,9.1803,9.1803,9.1803,9.1803,9.1803,9.1803,9.1803,9.1803,9.1803,9.1803,9.14,8.8206,8.6995,8.6995,0.0,0.0,0.0,0.0,0.0,0.0,0.0,0.0,0.0,0.0,0.0,0.0,0.0,0.0,0.0,0.0,0.0,0.0,5.3518,5.3518,5.3518,5.3518,5.4431,5.5006,5.5141,5.8693,6.3226,6.8741,6.6609,6.3294,5.8863,5.7374,5.5784,5.416,5.4465,5.4296,5.3856,5.416,5.4262,5.4329,5.4837,5.4735,5.4262,0.0,0.0,0.0,0.0,0.0,0.0,0.0,0.0,0.0,5.4363,5.4803,5.5006,5.4668,5.4803,5.4837,5.3788,5.5006,0.0,0.0,0.0,0.0,0.0,7.7536,0.0,0.0,8.3761,8.1697,8.119,8.2949,8.4809,8.5926,9.0324,9.4079,9.5499,9.5939,9.621,9.6413,9.7062,9.7994,9.896,9.9134,9.9515,10.0239,9.9255,9.736,9.4388,9.3142,9.1704,8.9995,9.0587,9.1105,9.1511,9.2815,9.3015,9.217,9.217,9.217,9.217,9.1913,9.1803,9.1767,9.1216,9.1289,9.173,9.0996,9.1106,9.1803,9.1803,9.1803,9.14,8.8206,8.6995,8.6995,0.0,0.0,0.0,0.0,0.0,0.0,0.0,0.0,0.0,0.0,0.0,0.0,0.0,0.0,0.0,0.0,0.0,0.0,0.0,5.3518,5.3518,5.3518,5.3923,5.4499,5.5243,5.7273,6.0419,6.4647,6.3125,6.0554,5.7036,5.7036,5.6224,5.4871,5.619,5.6055,5.4837,5.5277,5.5141,5.4668,5.5412,5.5446,5.5006,0.0,0.0,0.0,0.0,0.0,0.0,0.0,0.0,0.0,5.4025,5.4465,5.4803,5.4634,5.4499,5.4363,5.4363,0.0,0.0,0.0,0.0,0.0,0.0,0.0,0.0,0.0,8.6196,8.4708,8.4268,8.4809,8.5824,8.7313,9.0425,9.3233,9.4924,9.5263,9.5466,9.577,9.6383,9.7283,9.8077,9.8347,9.86,9.8846,9.797,9.6085,9.2907,9.2282,9.1316,8.98,9.0408,9.1018,9.14,9.2203,9.2317,9.1803,9.1473,9.1326,9.1326,9.1657,9.162,9.1289,9.0482,9.0408,9.0812,9.0152,9.0262,9.0849,9.0849,9.0482,8.9674,8.7729,8.6995,8.6995,0.0,0.0,0.0,0.0,0.0,0.0,0.0,0.0,0.0,0.0,0.0,0.0,0.0,0.0,0.0,0.0,0.0,0.0,0.0,5.3518,5.3518,5.3518,5.3518,5.4769,5.7442,5.8152,5.8186,5.7476,5.8457,5.7746,5.5581,5.7848,5.8118,5.6799,5.8998,5.8761,5.6697,5.6697,5.5919,5.4769,5.5513,5.5818,5.5716,5.4972,0.0,0.0,0.0,0.0,0.0,0.0,0.0,0.0,5.3518,5.3551,5.3721,5.4329,5.3551,5.301,5.531,0.0,0.0,0.0,0.0,0.0,0.0,0.0,8.9985,8.914,0.0,8.7177,8.711,8.6027,8.6264,8.9647,9.0831,9.2252,9.4992,9.4823,9.4654,9.5296,9.5321,9.5783,9.7123,9.7023,9.6896,9.6718,9.6649,9.5303,9.2424,9.2352,9.1955,9.1078,9.1042,9.1321,9.1803,9.173,9.1693,9.1693,9.0886,9.0482,9.0519,9.1253,9.1143,9.0335,8.9711,8.9381,8.9307,8.9307,8.9344,8.9381,8.916,8.8206,8.6995,8.6995,8.6995,8.6995,0.0,0.0,0.0,0.0,0.0,0.0,0.0,0.0,0.0,0.0,0.0,0.0,0.0,0.0,0.0,0.0,0.0,0.0,0.0,5.3518,5.3518,5.3518,5.3518,5.3788,5.4431,5.46,5.46,5.4465,5.6934,5.6697,5.4025,5.6833,5.734,5.6055,5.8254,5.8017,5.5953,5.5953,5.575,5.5547,5.6292,5.6562,5.6494,5.575,5.5108,0.0,0.0,0.0,0.0,0.0,0.0,0.0,5.3518,5.389,5.4262,5.3856,5.3923,5.4566,5.6799,5.8389,0.0,0.0,7.6995,8.3456,8.6366,8.87,8.985,8.8497,8.8903,8.9309,8.8734,8.8835,8.9275,9.0087,9.0831,9.1508,9.2184,9.2116,9.2083,9.2252,9.3168,9.4252,9.5498,9.6005,9.64,9.6682,9.6098,9.45,9.1676,9.1522,9.1125,9.0295,9.0258,9.074,9.1803,9.1179,9.0849,9.0849,9.0041,8.9674,8.9674,8.9858,8.9491,8.8757,8.9197,8.905,8.8463,8.8463,8.883,8.9197,8.7105,8.6554,8.6995,8.6995,8.6995,8.6995,0.0,0.0,0.0,0.0,0.0,0.0,0.0,0.0,0.0,0.0,0.0,0.0,0.0,0.0,0.0,0.0,0.0,0.0,0.0,0.0,5.3518,5.3518,5.3822,5.3856,5.3518,5.3856,5.3856,5.3518,5.504,5.5006,5.3551,5.6528,5.7306,5.6325,5.8558,5.8321,5.6258,5.6596,5.6359,5.5818,5.69,5.734,5.7205,5.6122,5.548,5.4972,5.389,0.0,0.0,0.0,0.0,0.0,0.0,0.0,5.4059,5.4025,5.3788,5.4296,5.7949,0.0,0.0,7.4255,0.0,8.6095,8.7211,8.8091,8.8598,8.8531,8.941,8.9985,8.9241,8.941,8.9782,9.0154,9.0527,9.0899,9.1237,9.1305,9.1305,9.1305,9.2173,9.2999,9.3681,9.3924,9.4136,9.4576,9.3972,9.2873,9.1635,9.1562,9.1344,9.0907,9.0466,9.0589,9.1216,9.0445,9.0041,9.0041,8.9234,8.8647,8.828,8.8647,8.861,8.8206,8.8243,8.7802,8.7031,8.7031,8.7215,8.7399,8.6518,8.5563,8.4903,8.6444,8.6995,8.6995,0.0,0.0,0.0,0.0,0.0,0.0,0.0,0.0,0.0,0.0,0.0,0.0,0.0,0.0,0.0,0.0,0.0,0.0,0.0,0.0,0.0,5.3518,5.4093,5.4126,5.3518,5.4093,5.4093,5.3518,5.3518,5.3653,5.3957,5.663,5.7577,5.707,5.9032,5.8761,5.6833,5.7171,5.6697,5.5818,5.7036,5.7679,5.7712,5.6258,5.5716,5.5513,5.4025,5.3518,5.3518,5.3518,0.0,0.0,0.0,0.0,5.3619,5.4228,5.3518,5.3551,5.8423,0.0,6.8571,7.8754,8.3558,0.0,8.6738,8.6907,8.7245,8.8463,8.9309,8.9715,8.9342,8.9072,8.914,8.9884,8.9816,8.985,9.0459,9.0527,9.0527,9.0527,9.096,9.1333,9.1817,9.1723,9.1871,9.2482,9.1994,9.1703,9.1767,9.1803,9.173,9.1583,9.0959,9.0555,9.0408,8.9601,8.9197,8.9197,8.839,8.7582,8.6811,8.7472,8.7802,8.7729,8.7068,8.6334,8.56,8.56,8.5416,8.5233,8.6114,8.4719,8.2517,8.5196,8.6187,8.6187,0.0,0.0,0.0,0.0,0.0,0.0,0.0,0.0,0.0,0.0,0.0,0.0,0.0,0.0,0.0,0.0,0.0,0.0,5.3518,0.0,0.0,5.3518,5.3585,5.3585,5.3518,5.3585,5.3585,5.3518,5.3518,5.416,5.5446,5.7103,5.7848,5.778,5.8727,5.8287,5.6731,5.5547,5.531,5.575,5.5919,5.6765,5.7712,5.6258,5.5716,5.5513,5.4025,5.3518,5.3518,5.3518,5.3518,0.0,0.0,0.0,5.3518,5.3619,5.3518,5.4059,0.0,0.0,7.3747,0.0,8.3558,8.5993,0.0,0.0,8.6974,8.7144,8.7786,8.8666,8.985,8.9004,8.8395,8.9106,8.8158,8.738,8.7482,8.7482,8.7482,8.7482,8.76,8.8465,9.0587,9.0786,9.1352,9.2859,9.2901,9.2536,9.184,9.1803,9.1473,9.0776,9.0665,9.0298,8.9601,8.8757,8.8353,8.8353,8.7545,8.6738,8.5967,8.6077,8.6114,8.6114,8.6004,8.549,8.4756,8.4756,8.4462,8.4022,8.4168,8.3398,8.226,8.2663,8.2847,8.2847,0.0,0.0,0.0,0.0,0.0,0.0,0.0,0.0,0.0,0.0,0.0,0.0,0.0,0.0,0.0,5.3518,5.3518,5.3518,5.3518,5.3518,5.3518,5.3518,5.3518,5.3518,5.3518,5.3518,5.3518,5.3518,5.3518,5.4905,0.0,5.822,5.8287,5.7915,5.8254,5.778,5.6765,5.6122,5.6021,5.6359,5.6765,5.707,5.7171,5.6122,5.5446,5.4938,5.389,5.3518,5.3518,5.3518,5.3518,5.3518,5.3518,0.0,0.0,0.0,5.3179,5.4194,6.0554,6.7151,7.3815,0.0,8.2915,8.4302,8.5926,8.5926,8.5892,8.6738,8.6839,8.7076,8.8158,8.782,8.7482,8.782,8.7313,8.6907,8.6907,8.6907,8.6907,8.6907,8.7454,8.8398,8.9396,8.9742,9.0534,9.1945,9.163,9.1498,9.1803,9.1363,9.0959,9.0629,8.9748,8.9087,8.872,8.7472,8.6628,8.6187,8.582,8.5637,8.5563,8.527,8.5123,8.5123,8.5123,8.4682,8.3948,8.3948,8.3508,8.2884,8.2884,8.2627,8.2186,8.2186,8.2186,8.2186,0.0,0.0,0.0,0.0,0.0,0.0,0.0,0.0,0.0,0.0,0.0,0.0,0.0,0.0,0.0,0.0,5.3518,5.3518,5.3518,5.3518,5.3518,5.3518,5.3518,5.3518,5.3518,5.3518,5.3518,5.3518,5.3518,0.0,5.9302,5.9302,5.9505,0.0,5.9099,5.8254,5.734,0.0,0.0,5.707,5.6867,5.6664,5.6427,5.5513,5.4938,5.4499,5.3754,5.3518,0.0,0.0,5.3518,5.3518,5.3518,5.3518,0.0,0.0,0.0,0.0,0.0,0.0,7.121,7.7908,8.0581,8.2171,8.4403,8.4606,8.4708,8.6061,8.5892,8.5655,8.623,8.6501,8.6636,8.6636,8.6467,8.6332,8.6332,8.6332,8.6406,8.6695,8.7607,8.8346,8.8995,8.9194,8.9743,9.098,9.0335,9.0211,9.1107,9.0629,9.0225,9.0005,8.8647,8.7802,8.7582,8.6187,8.527,8.4792,8.4682,8.4609,8.4572,8.4168,8.3765,8.3398,8.3801,8.3434,8.2517,8.2627,8.2333,8.1819,8.2076,8.2186,8.2186,8.2186,8.2186,8.2186,0.0,0.0,0.0,0.0,0.0,0.0,0.0,0.0,0.0,0.0,0.0,0.0,5.3518,5.3518,5.3518,5.3518,5.3518,5.3518,5.3518,5.3518,5.3518,5.3518,5.3518,0.0,5.3518,5.3518,5.3518,5.3518,0.0,0.0,6.0047,6.0047,6.1907,6.5155,6.2381,6.0283,5.8761,0.0,0.0,0.0,5.4837,5.4532,5.5615,5.416,5.4025,5.4499,5.3754,0.0,0.0,0.0,0.0,0.0,0.0,5.3518,5.3518,0.0,0.0,0.0,0.0,6.1028,0.0,7.0737,7.5608,7.987,8.2069,8.3084,8.3795,8.4573,8.4708,8.4708,8.4742,8.5351,8.5858,8.5858,8.5215,8.4742,8.4742,8.4742,8.5097,8.6256,8.642,8.7445,8.9702,8.9266,8.9314,9.0557,8.9896,8.9456,8.9528,8.9491,8.9124,8.8353,8.7509,8.6701,8.593,8.5086,8.4903,8.5343,8.4829,8.3838,8.237,8.2333,8.1489,8.0131,8.1636,8.1415,8.0021,8.0534,8.0718,8.0755,8.1782,8.2186,8.2186,8.2186,8.2186,8.2186,0.0,0.0,0.0,0.0,0.0,0.0,0.0,0.0,0.0,0.0,0.0,0.0,0.0,5.3518,5.3518,5.3518,5.3518,5.3518,5.3518,5.3518,5.3518,5.3518,5.3518,5.3518,5.3518,5.3518,5.3518,5.3518,5.3518,5.5277,5.8693,5.9674,6.1095,6.2854,6.2279,6.1163,5.9573,5.7374,0.0,0.0,0.0,0.0,0.0,0.0,0.0,0.0,0.0,0.0,0.0,0.0,0.0,0.0,0.0,0.0,0.0,0.0,0.0,0.0,0.0,0.0,6.2448,6.8402,7.236,7.5506,7.8247,8.0547,8.2137,8.2441,8.2881,8.3219,8.3219,8.42,8.5046,8.5046,8.4809,8.464,8.464,8.464,8.5066,8.6217,8.7056,8.8223,8.9842,8.9989,9.0154,9.0592,8.9858,8.9417,8.9417,8.8426,8.7729,8.7435,8.6151,8.5086,8.4278,8.3471,8.2884,8.259,8.1856,8.1379,8.1158,8.0791,7.9764,7.8259,7.958,8.0204,8.0314,8.0498,8.1012,8.1672,8.2039,8.0901,7.9066,7.9066,8.0388,8.2186,0.0,0.0,0.0,0.0,0.0,0.0,0.0,0.0,0.0,5.3518,0.0,0.0,0.0,0.0,5.3518,5.3518,5.3518,5.3518,5.3518,5.3518,5.3518,5.3518,5.3518,5.3518,5.3518,5.3247,5.3247,5.3518,5.3247,5.4735,5.7915,5.8896,6.0182,6.167,6.1366,6.0825,0.0,0.0,0.0,5.6325,0.0,0.0,5.4905,0.0,0.0,0.0,0.0,0.0,0.0,0.0,0.0,0.0,0.0,0.0,0.0,0.0,0.0,0.0,5.5547,0.0,0.0,6.573,6.8335,7.0669,7.5405,7.7638,7.9092,8.0615,8.1528,8.2103,8.2374,8.3219,8.3862,8.3862,8.4099,8.4234,8.4234,8.4471,8.5068,8.642,8.729,8.8342,8.9682,8.9825,8.9674,8.9417,8.8647,8.8096,8.7802,8.6775,8.6077,8.582,8.4499,8.3398,8.2627,8.1782,8.1048,8.0314,7.9947,7.969,7.9507,7.9433,7.8626,7.7378,7.8112,7.8809,7.9507,7.9507,7.991,8.0571,8.0571,7.925,7.7304,7.7304,7.8699,8.0571,0.0,0.0,0.0,0.0,0.0,0.0,0.0,0.0,5.3518,5.3518,0.0,0.0,0.0,0.0,0.0,5.3518,5.3518,5.3518,5.3518,5.3518,5.3518,5.3518,5.3518,5.3518,5.3518,5.2739,5.2706,5.3518,5.2706,5.4194,5.7746,5.7814,5.9404,6.211,5.9945,5.9336,5.9877,0.0,5.7814,5.7509,0.0,5.3721,5.575,0.0,0.0,0.0,5.6258,5.5446,0.0,5.3653,0.0,0.0,0.0,0.0,0.0,0.0,0.0,0.0,0.0,0.0,0.0,6.2144,6.3294,6.5425,7.3409,7.4187,7.4492,7.8991,8.0513,8.1291,8.2171,8.2306,8.2306,8.234,8.2983,8.3456,8.3456,8.4099,8.5207,8.6733,8.6931,8.7598,8.9202,8.8647,8.7839,8.7031,8.6224,8.5416,8.4646,8.4535,8.4168,8.3324,8.2553,8.1746,8.0975,8.0167,7.947,7.8956,7.947,7.8883,7.7341,7.8185,7.8112,7.7304,7.7304,7.7304,7.7304,7.7304,7.7304,7.7304,7.7304,7.7304,7.7304,7.7304,7.7304,7.7304,0.0,0.0,0.0,0.0,0.0,0.0,5.2638,5.3145,5.3518,0.0,0.0,0.0,5.3518,5.3518,5.3518,5.3518,5.3518,5.3518,5.3518,5.3518,5.3518,5.3518,5.3518,5.3518,5.3518,5.3281,5.3281,5.3518,5.3281,5.3687,5.4735,5.5818,5.6765,5.7577,5.8017,5.7746,5.6867,5.5919,0.0,5.619,5.46,5.4972,0.0,0.0,0.0,0.0,0.0,5.6664,5.7408,0.0,5.619,5.531,0.0,0.0,0.0,0.0,0.0,0.0,5.3247,0.0,0.0,0.0,0.0,0.0,6.3666,6.5797,6.8335,7.2834,7.4356,7.5912,7.9397,8.004,8.0209,8.0716,8.1866,8.2712,8.2712,8.2881,8.3837,8.6011,8.6241,8.6811,8.836,8.7802,8.6995,8.6187,8.538,8.4829,8.4609,8.3508,8.2223,8.0828,8.0571,8.0351,8.0131,7.9323,7.8846,7.8699,7.8222,7.7781,7.7341,7.7561,7.7561,7.7304,7.7304,7.7304,7.7304,7.7304,7.7304,7.7304,7.7304,7.7304,7.7304,7.7304,7.7304,7.7304,0.0,0.0,0.0,0.0,0.0,5.2401,5.2739,5.3213,5.3518,0.0,0.0,0.0,5.3518,5.3788,5.3822,5.3518,5.3518,5.3518,5.3518,5.3518,5.3518,5.3518,5.3518,5.3518,5.3518,5.3179,5.3179,5.3518,5.3179,5.3179,5.3518,5.4397,5.4803,5.4837,0.0,0.0,0.0,0.0,0.0,0.0,5.5446,0.0,0.0,5.7679,5.8084,0.0,0.0,0.0,5.9911,5.9471,5.8186,0.0,0.0,0.0,0.0,0.0,0.0,0.0,0.0,0.0,0.0,0.0,0.0,0.0,6.0622,6.1907,6.3802,6.9282,7.121,7.3037,7.6589,7.7468,7.7942,7.8686,7.9532,8.0715,8.2374,8.2645,8.3286,8.5344,8.5359,8.5542,8.6599,8.6261,8.5673,8.4866,8.4058,8.3324,8.2627,8.1709,8.0755,7.98,7.947,7.9286,7.9286,7.8479,7.8075,7.8075,7.7561,7.7304,7.7304,7.7304,7.7304,7.7304,7.7304,7.7304,7.7304,7.7304,7.7304,7.7304,7.7304,7.7304,7.7304,7.7304,7.7304,7.7304,0.0,0.0,0.0,5.1792,5.2131,5.2469,5.3247,5.345,5.3518,0.0,5.3653,5.3788,5.3856,5.4363,5.4431,5.3687,5.3551,5.3518,5.3518,5.3518,5.3518,5.3518,5.3518,5.3518,5.3518,5.2807,5.2773,5.3518,5.2773,5.2807,5.3518,5.3518,5.3518,5.3518,0.0,0.0,0.0,0.0,0.0,5.4735,5.6292,5.7814,0.0,0.0,6.2685,6.1941,6.4005,6.3565,6.1975,6.167,5.9607,0.0,0.0,0.0,0.0,0.0,5.3551,0.0,0.0,0.0,0.0,0.0,5.5006,0.0,6.0867,6.0461,6.0419,6.6844,6.9184,7.0825,7.3375,7.4551,7.5263,7.5912,7.6454,7.806,8.181,8.2414,8.3026,8.4342,8.4043,8.3845,8.4211,8.4205,8.3875,8.3067,8.2333,8.1269,7.9727,7.9653,7.9617,7.9507,7.8809,7.8479,7.8479,7.7708,7.7304,7.7304,7.7304,7.7304,7.7304,7.7304,7.7304,7.7304,7.7304,7.7304,7.7304,7.7304,7.7304,7.7304,7.7304,7.7304,7.7304,7.7304,7.7304,7.7304,0.0,0.0,4.9492,5.0371,5.1014,5.1691,5.2435,5.3078,5.3518,5.3518,5.4532,5.5513,5.6089,5.575,5.5209,5.4431,5.3856,5.3518,5.3518,5.3518,5.3518,5.3518,5.3518,5.3518,5.3518,5.3348,5.3348,5.3518,5.3348,5.3348,5.3518,5.3518,5.3518,5.3518,5.3518,0.0,0.0,0.0,0.0,5.4769,5.6833,5.8558,6.008,6.1907,6.3159,6.4072,6.5121,6.5967,6.6237,6.3869,6.1467,5.9032,0.0,0.0,0.0,5.4397,0.0,0.0,0.0,0.0,0.0,0.0,5.4668,0.0,5.5506,5.5894,5.742,6.1139,6.2144,6.3776,6.8404,7.0362,7.1165,7.0656,7.3612,7.6448,7.7924,7.9359,8.021,8.0207,8.1358,8.1998,8.1754,8.1709,8.1379,8.0571,8.0351,7.9837,7.8883,7.8809,7.8516,7.7818,7.7671,7.7561,7.7561,7.7414,7.7304,7.7304,7.7304,7.7304,7.7304,7.7304,7.7304,7.7304,7.7304,7.7304,7.7304,7.7304,7.7304,7.7304,7.7304,7.7304,7.7304,7.7304,7.7304,7.7304,0.0,0.0,4.9357,5.0473,5.0947,5.1589,5.2739,5.3247,5.3754,5.4499,5.5886,5.6799,5.6799,5.6461,5.5818,5.4702,5.4262,5.389,5.3518,5.3518,5.3518,5.3518,5.3518,5.3518,5.3518,5.3518,5.3518,5.3518,5.3518,5.3518,5.3518,5.3518,5.3112,5.2401,5.3179,0.0,0.0,0.0,5.3721,5.4363,5.8084,0.0,6.1569,6.458,6.6203,6.6948,6.7658,6.8402,6.8402,6.4343,6.2448,0.0,5.7848,5.6528,5.6156,0.0,5.5175,5.4465,0.0,0.0,0.0,5.4025,5.4296,0.0,0.0,5.4873,5.5587,5.8944,5.9598,6.0771,6.4444,6.5739,6.6735,6.8303,7.0364,7.2508,7.4513,7.6927,7.8847,7.9899,7.9973,8.0076,8.0397,8.0388,8.0057,7.925,7.9176,7.8846,7.8002,7.7965,7.7781,7.7341,7.7304,7.7304,7.7304,7.7304,7.7304,7.7304,7.7304,7.7304,7.7304,7.7304,7.7304,7.7304,7.7304,7.7304,7.7304,7.7304,7.7304,7.7304,7.7304,7.7304,7.7304,7.7304,7.7304,7.7304,0.0,0.0,0.0,5.0947,5.1217,5.1725,5.3281,5.3518,5.4126,5.5919,5.7273,5.7983,5.7712,5.7408,5.6867,5.5953,5.4837,5.4194,5.4329,5.3687,5.3281,5.3281,5.3416,5.345,5.3281,5.3416,5.3518,5.3518,5.3518,5.3518,5.3518,5.3518,5.2841,5.1691,5.2773,0.0,0.0,0.0,0.0,5.4769,0.0,6.1434,6.1839,6.6609,6.8436,6.8605,6.9925,7.0398,6.9688,6.485,6.3565,6.3193,5.8998,5.7949,0.0,0.0,0.0,0.0,0.0,0.0,0.0,0.0,5.4972,5.4635,0.0,0.0,0.0,5.7633,5.8181,5.877,6.077,6.1323,6.2346,6.4945,6.6437,6.8056,7.0278,7.3391,7.6438,7.9208,7.8353,7.7959,7.8966,7.8662,7.8369,7.8369,7.7781,7.7378,7.7304,7.7304,7.7304,7.7304,7.7304,7.7304,7.7304,7.7304,7.7304,7.7304,7.7304,7.7304,7.7304,7.7304,7.7304,7.7304,7.7304,7.7304,7.7304,7.7304,7.7304,7.7304,7.7304,7.7304,7.7304,7.7304,7.7304,7.7304,4.9018,4.9018,0.0,0.0,5.1217,5.1725,5.3281,5.3518,5.4499,5.7273,5.8389,5.937,6.0655,0.0,0.0,0.0,0.0,0.0,5.7171,0.0,5.2435,5.2435,5.3112,5.3179,5.2469,5.3145,5.3518,5.3518,5.3518,5.3518,5.3518,5.3518,5.3416,5.3213,5.2672,0.0,0.0,0.0,5.4363,5.7679,6.096,6.0317,5.8084,6.3869,6.6068,6.6508,6.9958,7.1176,7.0703,6.7421,6.5933,6.4884,0.0,6.0351,5.9844,5.9742,0.0,0.0,0.0,0.0,5.9674,5.6494,5.849,6.0136,5.5843,0.0,5.6199,5.5283,0.0,5.5391,5.6301,0.0,0.0,5.6365,6.1165,6.4627,6.3306,6.6001,6.9672,7.3802,7.4842,7.5605,7.646,7.4588,7.4478,7.7268,7.4808,7.4404,7.7157,7.7304,7.7304,7.7304,7.7304,7.7304,7.7304,7.7304,7.7304,7.7304,7.7304,7.7304,7.7304,7.7304,7.7304,7.7304,7.7304,7.7304,7.7304,7.7304,7.7304,7.7304,7.7304,7.7304,7.7304,7.7304,7.7304,7.7304,4.9018,4.9018,0.0,0.0,5.1217,5.1725,5.3281,5.5344,5.7002,5.778,5.9674,6.14,0.0,0.0,0.0,0.0,0.0,5.6934,0.0,0.0,0.0,5.301,5.3315,5.3348,5.301,5.3348,5.3518,5.3518,5.3518,5.3518,5.3518,5.3518,5.3044,5.2198,5.2739,0.0,5.2841,0.0,5.4532,5.6224,5.9235,5.9235,5.8287,6.6,6.8944,6.918,7.0737,7.1312,7.0838,6.7827,6.6609,6.5967,6.3869,6.2381,6.1434,6.1434,0.0,0.0,0.0,5.9471,6.0013,5.7577,5.8389,5.897,5.5962,5.5077,5.4839,5.4626,0.0,0.0,0.0,0.0,0.0,0.0,5.9185,6.1185,6.2699,6.3796,6.6155,7.0896,7.0532,7.0798,7.3098,7.2422,7.2569,7.4404,7.2826,7.2606,7.4441,7.5836,7.6607,7.6607,7.7084,7.7304,7.7304,7.7304,7.7084,7.6607,7.6607,7.6533,7.6387,7.6387,7.6717,7.7304,7.7304,7.7304,7.7304,7.7304,7.7304,7.7304,7.7304,7.7304,7.7304,7.7304,7.7304,7.7304,0.0,0.0,0.0,0.0,5.1217,5.1725,5.3281,5.5784,5.7611,5.7848,0.0,0.0,6.3903,6.3632,0.0,0.0,6.2516,6.0351,0.0,0.0,5.46,0.0,0.0,0.0,0.0,5.3382,5.3518,5.3518,5.3518,5.3518,5.3518,5.3518,5.2909,5.1928,0.0,5.3991,5.3923,0.0,5.6697,5.7848,6.0182,6.1332,6.2178,6.7895,7.0601,7.1312,7.1312,7.1312,7.0906,6.8335,6.7455,6.7151,6.5425,6.4309,6.3497,6.2888,6.2347,0.0,5.9641,6.0486,6.1298,5.8558,5.8186,5.7881,5.5649,5.4905,5.4703,5.4647,5.478,0.0,0.0,0.0,5.4913,0.0,0.0,5.8535,6.1501,6.1315,6.2822,6.7853,6.7534,6.8109,7.1044,7.033,7.0257,7.1725,7.0073,6.9926,7.2055,7.3854,7.5212,7.6056,7.646,7.6864,7.7304,7.6864,7.646,7.6093,7.5726,7.5469,7.5249,7.4955,7.5249,7.6056,7.6937,7.7304,7.7304,7.7304,7.7304,7.7304,7.7304,7.7304,7.7304,7.7304,7.7304,7.7304,4.9898,4.9492,0.0,0.0,0.0,5.1725,5.3281,0.0,0.0,0.0,0.0,0.0,0.0,0.0,0.0,0.0,0.0,6.3362,6.3294,0.0,5.5412,0.0,0.0,5.3145,0.0,0.0,5.3518,5.3518,5.3518,5.3518,5.3518,5.3518,5.3484,5.3484,5.4972,5.6427,5.7814,5.9302,6.2009,6.5392,6.6237,6.8301,7.0601,6.7963,6.8774,7.1312,7.1312,7.1312,7.1075,6.9553,6.9045,6.8639,6.6373,6.6102,6.6237,6.4106,6.4952,6.5967,6.3024,6.4377,6.5189,5.9336,5.8964,5.8896,5.4566,5.575,5.7137,5.5075,5.6799,5.8152,5.6021,0.0,0.0,0.0,0.0,0.0,0.0,5.7109,5.8794,6.3686,6.699,6.9467,7.1174,6.7797,6.6806,6.9926,6.5778,6.5521,7.1064,7.1431,7.2899,7.6019,7.5395,7.5726,7.7304,7.5763,7.5359,7.6093,7.4771,7.4184,7.4147,7.3083,7.2642,7.2826,7.5983,7.7304,7.7304,7.7304,7.7304,7.7304,7.7304,7.7304,7.7304,7.7304,7.7304,7.7304,0.0,0.0,0.0,0.0,0.0,0.0,0.0,5.5074,0.0,0.0,0.0,0.0,0.0,7.2326,7.2834,0.0,0.0,6.8538,6.6542,6.2245,0.0,0.0,0.0,5.5074,0.0,0.0,0.0,5.3518,5.3518,5.3518,5.3518,5.3518,5.3518,5.3551,5.4532,5.6325,0.0,0.0,0.0,0.0,6.6136,6.8605,7.121,7.0195,7.0432,7.1312,7.1312,7.1312,7.1244,7.0737,6.9925,6.9045,6.8774,6.7455,6.6,6.5764,6.5865,6.5831,6.485,6.6406,6.7117,6.211,6.1231,6.0452,5.5987,5.6494,5.7273,5.504,5.6968,5.8321,5.6122,0.0,0.0,0.0,0.0,0.0,0.0,5.6035,5.7226,6.0493,6.3723,6.5301,6.42,6.3833,6.4127,6.5191,6.2768,6.3025,6.7136,6.9339,7.1248,7.2899,7.4221,7.5175,7.5726,7.5175,7.4771,7.4515,7.4037,7.356,7.3046,7.2679,7.367,7.5652,7.4588,7.4147,7.4221,7.5285,7.5102,7.4147,7.4147,7.5432,7.7304,7.7304,7.7304,7.7304,5.0913,0.0,0.0,0.0,0.0,0.0,0.0,0.0,0.0,0.0,6.6812,0.0,7.5574,0.0,7.6623,0.0,7.5608,7.2699,6.7827,6.5595,0.0,6.0622,5.8693,0.0,0.0,0.0,0.0,0.0,0.0,5.3754,5.3518,5.3518,5.3518,5.3585,5.5074,5.7408,6.0317,6.1839,6.3971,6.6406,6.7827,6.9586,7.1312,7.1312,7.1312,7.1312,7.1312,7.1312,7.1278,7.1007,7.0297,6.9519,6.9722,6.847,6.688,6.6812,6.7049,6.7049,6.5967,6.7354,6.8166,6.4174,6.3159,6.2076,5.7848,5.8457,5.9167,5.6664,5.8118,5.9471,5.8321,5.7182,0.0,0.0,0.0,0.0,0.0,5.5244,5.6161,5.774,6.0786,6.2365,6.1374,6.141,6.13,6.0713,5.9722,6.0309,6.2989,6.6219,6.8862,7.0807,7.2679,7.4037,7.4918,7.4331,7.3927,7.3707,7.3413,7.301,7.2496,7.2496,7.3634,7.5506,7.3413,7.2496,7.2569,7.3634,7.345,7.2496,7.2496,7.4478,7.7304,7.7304,7.7304,7.7304,5.2164,0.0,0.0,0.0,5.3585,0.0,0.0,0.0,6.299,0.0,6.8842,7.3071,7.686,7.7908,7.8585,7.9228,7.9228,7.5845,6.7895,6.9248,0.0,0.0,6.0926,6.0554,5.8389,0.0,0.0,0.0,0.0,5.4194,5.3551,5.3518,5.3518,5.3619,5.6528,5.9505,6.2516,6.5493,6.8538,7.1312,7.1312,7.1312,7.1312,7.1312,7.1312,7.1312,7.1278,7.1278,7.1142,7.0398,7.0128,7.0026,6.935,6.9147,6.8808,6.7387,6.8504,6.9553,6.6677,6.7523,6.8504,6.5561,6.4783,6.3768,6.0114,6.1569,6.2854,5.9844,6.0452,6.167,6.2178,5.9898,5.8099,0.0,0.0,0.0,5.3433,5.4546,5.5537,5.5574,5.8253,6.0713,6.2291,6.0382,5.84,5.6822,5.6638,5.7373,5.9061,6.2254,6.5815,6.9779,7.0844,7.2422,7.4771,7.3266,7.2899,7.3634,7.2863,7.2496,7.2496,7.2496,7.2532,7.2569,7.2532,7.2532,7.2569,7.2532,7.2496,7.2496,7.2496,7.4368,7.7084,7.7268,7.7304,7.7304,5.2367,5.2773,5.3348,0.0,5.389,5.4329,0.0,0.0,0.0,0.0,7.3477,7.7908,8.2171,8.2813,8.2543,8.1629,8.1054,0.0,0.0,0.0,0.0,6.9857,6.6948,6.5121,6.4546,6.052,0.0,5.7611,0.0,0.0,5.4296,5.3754,5.3518,5.3619,5.6021,5.8761,6.1772,6.4715,6.803,7.1312,7.1312,7.1312,7.1312,7.1312,7.1312,7.1244,7.0669,7.0466,7.0364,6.962,6.9383,6.9451,6.9789,6.9553,6.9113,6.9282,6.9722,7.0026,6.9248,6.9857,7.0297,6.8402,6.7083,6.5696,6.3632,6.4613,6.529,6.2854,6.3531,6.3768,6.1163,5.9108,5.7543,0.0,0.0,0.0,0.0,5.4069,5.4913,5.5537,5.5794,5.6345,5.7336,5.6895,5.6088,5.5097,5.4473,5.5354,5.8143,6.1374,6.4457,6.732,6.9963,7.1908,7.312,7.2716,7.2606,7.2826,7.2606,7.2496,7.2496,7.2496,7.2826,7.334,7.2753,7.2826,7.334,7.2753,7.2496,7.2496,7.2496,7.301,7.4037,7.6423,7.7304,7.7304,5.2841,0.0,0.0,5.5074,0.0,0.0,5.9607,6.1535,0.0,7.0567,7.5202,0.0,8.146,8.3456,8.4167,8.2983,8.2205,0.0,7.7198,0.0,0.0,7.2631,7.0432,6.8639,6.732,6.3159,0.0,5.8524,0.0,5.4363,5.4093,5.3687,5.3518,5.3585,5.548,5.7983,6.1028,6.4986,6.847,7.1278,7.0973,7.1007,0.0,7.0939,7.1041,7.1176,7.0094,6.9925,7.0026,6.8944,6.8571,6.8707,6.9485,6.9417,6.9316,7.0364,7.0669,7.0669,7.0669,7.0973,7.1109,7.0263,6.9417,6.8301,6.6474,6.644,6.6373,6.4783,6.4106,6.3328,6.1873,5.9518,5.7393,0.0,0.0,0.0,5.4326,5.495,5.55,5.5574,5.55,5.5354,5.5097,5.4436,5.3849,5.3371,5.3592,5.4363,5.5831,5.9942,6.3246,6.5375,6.8898,7.1321,7.2496,7.2863,7.2863,7.2496,7.2496,7.2496,7.2496,7.2496,7.2753,7.3156,7.2716,7.2753,7.312,7.2679,7.2496,7.2496,7.2496,7.2496,7.2716,7.4551,7.6093,7.7304,5.3382,0.0,0.0,0.0,0.0,0.0,6.4512,6.5019,6.7049,7.1582,7.6183,7.8957,7.8855,8.2306,8.4268,8.3422,8.278,8.0682,7.6555,7.7435,7.6352,7.236,7.2529,7.1413,6.8673,6.5189,6.1806,0.0,5.6461,5.4837,5.3653,5.3551,5.3518,5.3551,5.504,5.7408,6.0554,6.5425,6.8774,7.0838,7.0364,7.0635,7.1244,7.0601,7.0737,7.1109,6.962,6.9519,6.9823,6.8402,6.7827,6.7895,6.8707,6.8944,6.9248,7.0737,7.1176,7.1176,7.1278,7.1312,7.1312,7.1312,7.1312,7.0804,6.8808,6.776,6.7049,6.6406,6.4005,6.2313,6.3328,6.0237,5.7164,5.579,5.552,5.5485,5.5574,5.6198,5.6381,5.5684,5.6124,0.0,5.4546,5.3041,5.2087,5.2013,5.3298,5.3849,5.3225,5.8253,6.1998,6.387,6.7724,7.066,7.2496,7.3193,7.323,7.2679,7.2569,7.2496,7.2496,7.2496,7.2496,7.2496,7.2496,7.2496,7.2496,7.2496,7.2496,7.2496,7.2496,7.2496,7.2496,7.2496,7.4551,7.7304,5.3484,0.0,0.0,0.0,0.0,6.441,6.9214,7.3071,7.5777,7.669,8.1257,8.4167,8.3524,8.4167,8.4065,8.2712,8.2475,0.0,0.0,0.0,0.0,7.6893,7.5168,7.368,7.2529,6.6,6.2584,6.2516,5.6731,5.4059,5.4397,5.3788,5.3518,5.3551,5.504,5.7712,6.1264,6.4005,6.6474,6.8605,6.9722,7.0635,7.1312,7.1176,7.121,7.1109,6.962,6.918,6.9147,6.8199,6.7489,6.7117,6.7861,6.8098,6.8402,6.9925,7.0398,7.0534,7.1142,7.1312,7.1312,7.1312,7.1312,7.121,7.0804,7.0128,6.9553,6.9417,6.7523,6.5392,6.3802,5.9382,5.5706,5.484,5.4688,5.4905,5.553,5.5721,5.5757,5.5611,5.5133,5.473,5.4436,5.3555,5.2711,5.205,5.227,5.2637,5.3188,5.6638,5.9979,6.2952,6.6329,6.9522,7.2459,7.2642,7.2973,7.3487,7.2826,7.2496,7.2496,7.2496,7.2496,7.2496,7.2496,7.2496,7.2496,7.2496,7.2496,7.2496,7.2496,7.2496,7.2496,7.2496,7.4551,7.7304,5.6765,0.0,0.0,0.0,0.0,6.9079,7.3544,7.8314,8.0615,7.828,8.0175,8.146,8.0716,8.2678,8.3592,8.2509,8.2069,8.1359,8.0276,7.916,7.801,7.686,7.5405,7.4086,7.2935,6.7117,6.37,6.2922,5.7374,5.4431,5.4025,5.3687,5.3518,5.3551,5.4634,5.7205,6.0757,6.2245,6.4816,6.7996,6.9147,7.0297,7.1278,7.0872,7.0973,7.1109,6.962,6.9113,6.891,6.7726,6.7117,6.6948,6.7658,6.7895,6.8132,6.9282,6.9891,7.0263,7.0635,7.1007,7.1312,7.1312,7.1312,7.1457,7.2004,7.0803,6.9761,7.0259,6.7876,6.485,6.2212,5.9005,5.6969,5.7463,5.7227,5.7384,5.8527,5.8327,5.7629,5.6381,5.5868,5.517,5.3922,5.3812,5.3482,5.2674,5.2637,5.2784,5.3188,5.5868,5.8657,6.1484,6.5154,6.8421,7.1211,7.2496,7.312,7.3083,7.2679,7.2496,7.2496,7.2496,7.2496,7.2496,7.2496,7.2496,7.2496,7.2496,7.2496,7.2496,7.2496,7.2496,7.2496,7.2496,7.4551,7.7304,0.0,6.0459,0.0,0.0,7.0288,7.439,7.6758,8.1393,8.3355,7.987,7.9397,7.9194,7.8619,8.1494,8.3186,8.2475,8.1731,8.0919,8.0006,7.872,7.7367,7.6014,7.4931,7.3815,7.2665,6.7929,6.4377,6.2144,5.7848,5.4871,5.3247,5.3416,5.3416,5.3281,5.4025,5.6224,5.9471,6.0757,6.3768,6.776,6.8876,7.0128,7.1244,7.0635,7.0804,7.1109,6.962,6.9214,6.9113,6.7557,6.7049,6.7151,6.7726,6.803,6.8301,6.9113,6.9755,7.0229,7.0398,7.0872,7.1312,7.1312,7.1312,7.1546,7.2279,7.0755,6.9304,7.0127,6.7373,6.3971,6.1095,5.9549,5.8903,5.9752,5.9688,5.9907,6.0946,6.1006,5.9905,5.7152,5.7116,5.6161,5.3225,5.3849,5.3995,5.3041,5.3115,5.3225,5.3225,5.5354,5.7593,5.9832,6.387,6.721,6.9816,7.2055,7.3046,7.2753,7.2569,7.2496,7.2496,7.2496,7.2496,7.2496,7.2496,7.2496,7.2496,7.2496,7.2496,7.2496,7.2496,7.2496,7.2496,7.2496,7.4111,7.6387,0.0,0.0,6.6354,6.7306,7.3064,7.757,7.7841,8.1731,8.4471,8.4065,8.3998,8.3964,8.3896,8.3659,8.3186,8.2475,8.1731,8.0682,7.9295,7.845,7.7638,7.6826,7.4728,7.3544,7.3375,6.7692,6.3632,6.14,5.7577,5.46,5.2435,5.3179,5.3112,5.2469,5.3247,5.4905,5.7306,6.0114,6.3463,6.7117,6.9214,7.0567,7.1312,7.1244,7.1244,7.1109,6.962,6.9519,6.9857,6.8335,6.7793,6.7793,6.7895,6.8402,6.9113,6.9857,7.0128,7.0331,7.1041,7.1278,7.1312,7.1312,7.1312,7.1312,7.1367,7.025,6.9113,6.9252,6.7303,6.4884,6.2584,6.1545,6.0374,5.851,5.937,6.0067,5.953,6.1263,6.1153,5.7262,5.8107,5.7189,5.2564,5.3482,5.3775,5.2234,5.2784,5.3225,5.3225,5.4803,5.6455,5.818,6.2181,6.5815,6.8972,7.0697,7.2239,7.356,7.2863,7.2496,7.2496,7.2496,7.2496,7.2496,7.2496,7.2496,7.2496,7.2496,7.2496,7.2496,7.2496,7.2496,7.2496,7.2496,7.2679,7.3377,6.5548,6.6641,6.8639,7.2477,7.5439,7.8382,8.1494,8.349,8.464,8.464,8.464,8.4437,8.3998,8.3287,8.2543,8.1799,8.1054,8.0209,7.9194,7.8416,7.7266,7.5608,7.4221,7.3071,7.2191,6.8064,6.485,6.2618,5.8863,5.5852,5.3653,5.3078,5.2875,5.3044,5.3822,5.5615,5.8321,6.1366,6.4241,6.7015,6.9282,7.0635,7.1312,7.1312,7.1312,7.1176,7.0128,6.9925,6.9958,6.8402,6.8233,6.8605,6.8605,6.8842,6.9147,6.9451,6.9857,7.0263,7.0567,7.0973,7.1312,7.1312,7.1312,7.1457,7.2056,7.0617,6.9252,6.9913,6.8061,6.5696,6.3463,6.2847,6.264,6.2229,6.2424,6.2723,6.2837,6.2401,6.0786,5.7226,5.6088,5.4473,5.1573,5.2307,5.2894,5.2747,5.3041,5.3225,5.3225,5.3812,5.5133,5.7226,6.075,6.3943,6.6733,6.9779,7.1651,7.2275,7.2422,7.2496,7.2496,7.2496,7.2496,7.2496,7.2496,7.2496,7.2496,7.2496,7.2496,7.2496,7.2496,7.3083,7.3817,7.2863,7.3744,7.5579,6.9284,6.991,7.1683,7.6507,7.8336,8.0412,8.4065,8.464,8.464,8.464,8.464,8.4336,8.3592,8.2847,8.2103,8.1359,8.0615,7.9803,7.8855,7.8077,7.6758,7.4695,7.368,7.2699,7.165,6.8673,6.5933,6.3531,6.0182,5.7171,5.4566,5.3721,5.3721,5.4532,5.5683,5.7746,6.052,6.3294,6.5764,6.7963,6.9789,7.0838,7.1312,7.1312,7.1312,7.121,7.0466,7.0331,7.0331,6.9011,6.9113,6.962,6.8977,6.9045,6.9417,6.9417,6.9789,7.0229,7.0466,7.0906,7.1312,7.1312,7.1312,7.1457,7.2228,7.0669,6.9203,6.946,6.8076,6.6271,6.4478,6.4461,6.4667,6.4623,6.4911,6.4908,6.4281,6.3135,6.097,5.7262,5.5317,5.3445,5.1353,5.1867,5.2601,5.3188,5.3445,5.3555,5.3555,5.3775,5.4803,5.6748,6.0162,6.3025,6.5301,6.8825,7.0844,7.1321,7.1872,7.2275,7.2496,7.2496,7.2496,7.2496,7.2496,7.2496,7.2496,7.2496,7.2496,7.2496,7.2496,7.3193,7.4184,7.4001,7.5359,7.7194,7.0512,7.3458,7.6224,7.8399,8.1976,8.4539,8.4606,8.464,8.464,8.464,8.464,8.4336,8.3592,8.2847,8.2103,8.1359,8.0615,7.9566,7.8111,7.7299,7.6217,7.4695,7.3206,7.2394,7.2394,6.9417,6.644,6.3531,6.1197,5.8186,5.46,5.5344,5.6055,5.6867,5.9066,6.1298,6.3599,6.5831,6.8098,7.0195,7.0973,7.1312,7.1312,7.1312,7.1312,7.121,7.0466,7.0669,7.1176,7.0398,7.0669,7.0906,6.8639,6.8944,7.0161,7.0161,7.0195,7.0364,7.1109,7.1312,7.1312,7.1312,7.1312,7.1312,7.1312,7.0161,6.8673,6.7151,6.6812,6.6576,6.5797,6.6416,6.6338,6.4098,6.5887,6.6192,6.2192,6.3025,6.2254,5.7373,5.6785,5.55,5.2307,5.2711,5.3188,5.3225,5.3959,5.4399,5.4399,5.5133,5.5941,5.6785,6.0713,6.3613,6.5301,6.7724,6.9743,7.1321,7.1321,7.1725,7.2496,7.2496,7.2496,7.2496,7.2496,7.2496,7.2496,7.2496,7.2496,7.2496,7.2496,7.2496,7.2899,7.6093,7.7304,7.6864,7.0861,7.3607,7.6233,7.7896,8.1314,8.4031,8.4539,8.464,8.4437,8.393,8.3862,8.3389,8.2137,8.2238,8.19,8.0648,7.987,7.9058,7.8044,7.6792,7.5642,7.4661,7.3206,7.2157,7.1684,7.0229,6.847,6.6508,6.4275,6.1264,5.7611,5.7848,5.8355,5.9133,6.14,6.3396,6.5189,6.7929,6.9519,7.0263,7.1007,7.1312,7.1312,7.1312,7.1312,7.1278,7.1041,7.1109,7.121,7.0432,7.0703,7.1007,6.9282,6.9755,7.0973,7.0973,7.0973,7.1007,7.1244,7.1312,7.1312,7.1312,7.1312,7.1312,7.1312,7.0669,6.9735,6.8819,6.8682,6.8287,6.6867,6.7936,6.8409,6.6657,6.7099,6.6427,6.2902,6.1484,5.9391,5.5611,5.4216,5.2894,5.1316,5.1903,5.2601,5.3188,5.3445,5.3812,5.4363,5.5133,5.6198,5.7593,6.0456,6.3062,6.5301,6.8238,6.9963,7.0513,7.1615,7.2275,7.2496,7.2496,7.2496,7.2496,7.2496,7.2496,7.2496,7.2496,7.2496,7.2496,7.2496,7.2973,7.3634,7.3927,7.5432,7.6864,7.1061,7.38,7.6368,7.7265,8.0785,8.3659,8.4133,8.4437,8.437,8.3592,8.349,8.2949,8.146,8.1697,8.1494,8.031,7.9532,7.8686,7.7638,7.6149,7.483,7.3815,7.2631,7.1785,7.1312,7.0567,6.9586,6.8335,6.5831,6.326,6.0723,6.0994,6.1366,6.1907,6.4478,6.6102,6.7117,6.9586,7.0601,7.0635,7.1109,7.1312,7.1312,7.1312,7.1312,7.1312,7.1312,7.1312,7.1244,7.077,7.0939,7.1142,7.0229,7.0567,7.1278,7.0973,7.0906,7.0973,7.1244,7.1312,7.1401,7.1776,7.183,7.1901,7.202,7.1201,7.0382,7.0085,6.9877,6.9317,6.8278,6.9062,6.9507,6.8208,6.7555,6.6109,6.2805,6.0272,5.7666,5.4766,5.3518,5.2601,5.1793,5.2711,5.3445,5.3628,5.4509,5.495,5.484,5.5904,5.7226,5.8841,6.1557,6.4016,6.6182,6.8495,6.9963,7.0587,7.1872,7.2496,7.2496,7.2496,7.2496,7.2496,7.2496,7.2496,7.2496,7.2496,7.2496,7.2496,7.2496,7.2899,7.3413,7.2753,7.378,7.5212,7.1309,7.4116,7.6656,7.6933,8.0487,8.3456,8.3558,8.4167,8.4336,8.3524,8.3422,8.2847,8.1359,8.119,8.0919,8.0175,7.9464,7.8382,7.6826,7.5371,7.3883,7.2462,7.1684,7.1312,7.1312,7.0635,6.9925,6.918,6.6373,6.4613,6.3903,6.4613,6.4918,6.5053,6.7895,6.918,6.9282,7.0703,7.1312,7.1312,7.1312,7.1312,7.1312,7.1312,7.1312,7.1312,7.1312,7.1312,7.1312,7.1244,7.1278,7.1312,7.1244,7.1278,7.1176,7.0466,7.0263,7.0432,7.1109,7.1312,7.1546,7.2414,7.2714,7.2916,7.3244,7.1974,7.0741,7.0945,7.0452,6.9849,6.9849,6.989,6.9714,6.8884,6.7336,6.5191,6.1887,5.9391,5.7042,5.4693,5.4509,5.4252,5.3445,5.473,5.528,5.4546,5.6492,5.7152,5.5831,5.7409,5.9024,6.0529,6.3723,6.6182,6.7834,6.8641,6.9853,7.1394,7.2165,7.2496,7.2496,7.2496,7.2496,7.2496,7.2496,7.2496,7.2496,7.2496,7.2496,7.2496,7.2496,7.2496,7.2496,7.2496,7.2496,7.2496,7.1687,7.3674,7.6006,7.8794,8.1142,8.305,8.42,8.4505,8.4167,8.2847,8.2678,8.2103,8.0615,8.0445,8.0175,7.9431,7.8686,7.7367,7.5303,7.4289,7.3341,7.2428,7.1684,7.1312,7.1312,7.1142,7.0669,6.9925,6.9214,6.8504,6.7793,6.7963,6.803,6.8098,6.935,6.9925,6.9992,7.0906,7.1312,7.1312,7.1312,7.1312,7.1312,7.1312,7.1312,7.1312,7.1312,7.1312,7.121,7.0635,7.0838,7.121,7.0635,7.0838,7.1278,7.1109,7.1041,7.1075,7.1278,7.1312,7.1401,7.1634,7.2193,7.3043,7.4083,7.3436,7.2579,7.2063,7.1929,7.1609,7.0865,7.0858,7.0485,6.9096,6.6516,6.3503,6.0236,5.8217,5.6418,5.462,5.55,5.5904,5.5097,5.5354,5.55,5.5317,5.528,5.5904,5.7336,6.0126,6.1851,6.2218,6.4824,6.7283,6.9486,7.033,7.1248,7.2239,7.2422,7.2496,7.2496,7.2496,7.2496,7.2496,7.2496,7.2496,7.2496,7.2496,7.2496,7.2496,7.2496,7.2496,7.2496,7.2496,7.2496,7.2496,7.1073,7.3296,7.5731,7.769,8.0426,8.2678,8.349,8.42,8.42,8.305,8.2611,8.1968,8.0818,8.0412,7.9769,7.8686,7.8213,7.7029,7.4762,7.3916,7.3003,7.1954,7.1515,7.1312,7.1312,7.1312,7.1109,7.0703,7.0703,7.0331,6.962,6.9958,6.9755,6.9147,7.0229,7.05,7.0229,7.1007,7.1109,7.0804,7.0804,7.0601,7.0331,7.0669,7.0804,7.0838,7.1176,7.1312,7.1244,7.0838,7.0973,7.1244,7.0838,7.0973,7.1312,7.1312,7.1312,7.1312,7.1312,7.1312,7.1546,7.2448,7.2749,7.3352,7.5349,7.4204,7.3001,7.3861,7.3227,7.249,7.2328,7.1143,6.9706,6.8054,6.4751,6.141,5.851,5.7042,5.5941,5.506,5.6712,5.7593,5.6785,5.7703,5.774,5.6271,5.6785,5.7556,5.851,6.1998,6.3943,6.3943,6.6696,6.8935,7.0624,7.1468,7.2092,7.2496,7.2496,7.2496,7.2496,7.2496,7.2496,7.2496,7.2496,7.2496,7.2496,7.2496,7.2496,7.2496,7.2496,7.2496,7.2496,7.2496,7.2496,7.2496,7.0464,7.3223,7.5759,7.6213,7.9703,8.2441,8.2543,8.3659,8.4133,8.3287,8.2611,8.19,8.1054,8.0412,7.9431,7.7942,7.7705,7.6724,7.4593,7.3849,7.2834,7.1379,7.1312,7.1312,7.1312,7.1312,7.1312,7.1312,7.1312,7.0973,7.0364,7.1007,7.0635,6.9485,7.0737,7.0973,7.0398,7.1041,7.0872,7.0195,7.0297,6.9925,6.935,7.0094,7.0364,7.0432,7.1075,7.1312,7.1278,7.1041,7.1041,7.1109,7.1007,7.1041,7.1176,7.1278,7.1312,7.1312,7.1312,7.1312,7.1742,7.3807,7.365,7.3772,7.6482,7.473,7.315,7.5274,7.4111,7.2863,7.3413,7.0991,6.8385,6.6769,6.2989,5.9428,5.7116,5.6198,5.5831,5.5941,5.8217,5.9501,5.8804,6.0456,6.0456,5.774,5.9318,6.0272,5.9979,6.3576,6.5778,6.6035,6.8788,7.066,7.1468,7.2165,7.2496,7.2496,7.2496,7.2496,7.2496,7.2496,7.2496,7.2496,7.2496,7.2496,7.2496,7.2496,7.2496,7.2496,7.2496,7.2496,7.2496,7.2496,7.2496,7.2496,7.249,7.4225,7.6425,7.8906,8.1083,8.2611,8.3219,8.3524,8.3186,8.1799,8.1528,8.0953,7.96,7.9363,7.8686,7.7198,7.6454,7.5371,7.3781,7.3544,7.2834,7.1379,7.1312,7.1312,7.1312,7.1312,7.1312,7.1312,7.1312,7.1244,7.1142,7.1278,7.121,7.0973,7.121,7.1244,7.1142,7.1278,7.0872,7.0229,7.0872,7.0703,7.0094,7.0872,7.1142,7.1142,7.1278,7.1312,7.1109,6.9857,6.9857,7.0263,6.9654,6.9857,7.05,7.1142,7.1312,7.1312,7.1312,7.1312,7.1742,7.3807,7.4158,7.4432,7.5917,7.5873,7.5201,7.4235,7.378,7.334,7.2789,7.0624,6.8385,6.6769,6.2511,5.8804,5.7042,5.6712,5.6859,5.7556,6.0382,6.2218,6.2071,6.1777,6.1374,6.0896,6.0566,6.1263,6.3209,6.5852,6.7944,6.9302,7.0513,7.1505,7.2312,7.2459,7.2496,7.2496,7.2496,7.2496,7.2496,7.2496,7.2496,7.2496,7.2496,7.2496,7.2496,7.2496,7.2496,7.2496,7.2496,7.2496,7.2496,7.2496,7.2496,7.2496,7.1825,7.3959,7.6002,7.748,8.0027,8.19,8.2238,8.2644,8.2678,8.1968,8.1528,8.1021,8.0344,7.96,7.8517,7.7029,7.6149,7.4897,7.3037,7.2902,7.2428,7.1379,7.1312,7.1312,7.1312,7.1312,7.1312,7.1312,7.1312,7.1312,7.1312,7.1312,7.1312,7.1312,7.1312,7.1312,7.1278,7.0872,7.05,7.0195,7.0128,6.9925,6.9688,7.0432,7.0703,7.077,7.1176,7.1312,7.1142,7.006,6.9925,7.006,6.9316,6.9316,6.9755,7.05,7.1007,7.1312,7.1312,7.1312,7.1742,7.3807,7.385,7.4052,7.6254,7.598,7.5352,7.5568,7.4588,7.3707,7.378,7.077,6.7871,6.6696,6.2034,5.829,5.7556,5.7446,5.7923,5.9134,6.2181,6.4163,6.4163,6.42,6.387,6.2989,6.2989,6.3723,6.5301,6.7283,6.9082,7.0697,7.1541,7.2349,7.312,7.2716,7.2496,7.2496,7.2496,7.2496,7.2496,7.2496,7.2496,7.2496,7.2496,7.2496,7.2496,7.2496,7.2496,7.2496,7.2496,7.2496,7.2496,7.2496,7.2496,7.2686,7.0889,7.3475,7.5643,7.5803,7.8824,8.1291,8.1291,8.1765,8.2069,8.1934,8.1393,8.0953,8.0784,7.9634,7.8247,7.6758,7.5743,7.439,7.2529,7.2225,7.1887,7.1345,7.1312,7.1312,7.1312,7.1312,7.1312,7.1312,7.1312,7.1312,7.1312,7.1312,7.1312,7.1312,7.1312,7.1312,7.1278,7.0703,7.0364,7.0161,6.9755,6.9519,6.9451,7.0161,7.0466,7.0534,7.1109,7.121,7.0939,7.0195,6.9823,6.9553,6.9011,6.8944,6.9248,6.9958,7.0737,7.1312,7.1312,7.1312,7.1742,7.3807,7.3729,7.385,7.6664,7.6254,7.5567,7.6778,7.5542,7.4331,7.4588,7.1138,6.7797,6.6439,6.2071,5.8694,5.8327,5.8584,5.9501,6.1337,6.3943,6.5742,6.6109,6.6366,6.6072,6.5007,6.5521,6.6292,6.7283,6.8678,7.0293,7.2092,7.2569,7.3083,7.367,7.3083,7.2679,7.2496,7.2496,7.2496,7.2496,7.2496,7.2496,7.2496,7.2496,7.2496,7.2496,7.2496,7.2496,7.2496,7.2496,7.2496,7.2496,7.2742,7.2816,7.3172,7.0889,7.3475,7.5803,7.6443,7.9155,8.1291,8.1291,8.1325,8.1122,8.0445,8.031,8.0006,7.9363,7.8551,7.7435,7.5912,7.4458,7.3308,7.2462,7.1751,7.1379,7.1312,7.1312,7.1312,7.1312,7.1312,7.1312,7.1312,7.1312,7.1312,7.1312,7.1312,7.1312,7.1312,7.1312,7.1312,7.1312,7.1244,7.0838,7.0229,7.0872,7.0737,7.0195,7.0939,7.1244,7.1244,7.1312,7.0872,7.0161,6.9417,6.8707,6.8064,6.7996,6.8504,6.9248,6.9958,7.0737,7.1312,7.1312,7.1312,7.1742,7.3807,7.4234,7.4757,7.6793,7.7206,7.6949,7.6313,7.6056,7.5506,7.4037,7.1651,6.8935,6.5888,6.3099,6.0823,5.9318,6.0382,6.2218,6.4677,6.5815,6.699,6.8495,6.7357,6.6769,6.7393,6.7467,6.8201,6.9743,7.066,7.2202,7.4588,7.3964,7.3634,7.3707,7.3634,7.323,7.2496,7.2496,7.2496,7.2496,7.2496,7.2496,7.2496,7.2496,7.2496,7.2496,7.2496,7.2496,7.2496,7.2496,7.2496,7.261,7.3327,7.3841,7.4249,7.2204,7.408,7.6021,7.7218,7.9202,8.0615,8.0615,8.0615,8.0513,8.0242,8.0209,7.9938,7.9194,7.845,7.7198,7.5202,7.4086,7.2969,7.1819,7.1481,7.1312,7.1312,7.1312,7.1312,7.1312,7.1312,7.1312,7.1312,7.1312,7.1312,7.1312,7.1312,7.1312,7.1312,7.1312,7.1312,7.1278,7.0804,7.0737,7.0872,7.0703,7.0737,7.0906,7.121,7.1312,7.1312,7.1312,7.1142,7.077,7.0026,6.9282,6.8639,6.8639,6.8504,6.8605,6.9823,7.0737,7.1457,7.2056,7.2193,7.2749,7.4757,7.5192,7.558,7.6956,7.7304,7.7231,7.6937,7.646,7.5763,7.4661,7.2459,7.0293,6.8568,6.5815,6.387,6.3759,6.4237,6.5154,6.6623,6.7504,6.8421,6.9522,6.8641,6.8311,6.9119,6.9633,7.022,7.0807,7.1615,7.2936,7.4845,7.4625,7.4441,7.4441,7.3927,7.356,7.323,7.2753,7.2753,7.323,7.2716,7.2496,7.2496,7.2496,7.2496,7.2496,7.2496,7.2496,7.2496,7.2496,7.2816,7.3275,7.359,7.4422,7.5344,7.2892,7.4526,7.6038,7.7665,7.915,8.0209,8.0209,8.0209,8.0107,7.987,7.987,7.9566,7.8855,7.7874,7.6555,7.4762,7.3713,7.2631,7.1379,7.1312,7.1312,7.1312,7.1312,7.1312,7.1312,7.1312,7.1312,7.1312,7.1312,7.1312,7.1312,7.1312,7.1312,7.1312,7.1312,7.1312,7.1278,7.077,7.0838,7.1278,7.0737,7.0838,7.1312,7.1312,7.1312,7.1312,7.1312,7.1176,7.0838,7.0094,6.9519,6.9045,6.8808,6.8673,6.8876,7.0161,7.1138,7.1969,7.3044,7.3492,7.4082,7.544,7.5787,7.6027,7.7082,7.7304,7.7304,7.7304,7.6864,7.624,7.5432,7.3523,7.1615,7.0293,6.8054,6.6549,6.6843,6.71,6.765,6.8715,6.9082,6.9596,7.0403,6.9743,6.9633,7.044,7.1211,7.1798,7.2055,7.2569,7.3377,7.4478,7.4771,7.4918,7.4918,7.4368,7.3817,7.3303,7.2753,7.2789,7.3303,7.2753,7.2496,7.2496,7.2686,7.2761,7.2816,7.2997,7.3104,7.3104,7.3104,7.3391,7.3888,7.4117,7.4828,7.5718,7.2861,7.4526,7.6038,7.7665,7.915,8.0209,8.0175,8.0175,7.9938,7.9194,7.9092,7.8822,7.8044,7.6623,7.5405,7.4661,7.324,7.209,7.1379,7.1312,7.1312,7.1312,7.1312,7.1312,7.1312,7.1312,7.1312,7.1312,7.1312,7.1312,7.1312,7.1312,7.1312,7.1312,7.1312,7.1312,7.1312,7.1312,7.1312,7.1312,7.1312,7.1312,7.1312,7.1312,7.1312,7.1312,7.1312,7.0838,7.0094,6.935,6.9113,6.8977,6.8166,6.8977,7.0331,7.1109,7.1969,7.3044,7.4005,7.5048,7.5787,7.5787,7.5787,7.6094,7.7082,7.7304,7.7304,7.7304,7.7304,7.7084,7.624,7.4771,7.2899,7.0513,6.9449,6.8641,6.7834,6.8421,6.9522,7.1138,7.0587,7.044,7.1248,7.0587,7.044,7.1248,7.2055,7.2863,7.367,7.3707,7.3707,7.3707,7.4478,7.4918,7.4882,7.4918,7.4111,7.2532,7.2496,7.2496,7.2496,7.2496,7.2496,7.2553,7.3119,7.3391,7.3442,7.4072,7.4293,7.4293,7.4293,7.4293,7.4379,7.4905,7.5091,7.5163,7.4312,7.5231,7.6217,7.8378,7.9533,8.004,7.9532,7.9431,7.9363,7.916,7.8653,7.8044,7.7299,7.6318,7.5202,7.3916,7.2935,7.209,7.1379,7.1312,7.1312,7.1312,7.1312,7.1312,7.1312,7.1312,7.1312,7.1312,7.1312,7.1312,7.1312,7.1312,7.1312,7.1312,7.1312,7.1312,7.1312,7.1312,7.1312,7.1312,7.1312,7.1312,7.1312,7.1312,7.1312,7.1312,7.1312,7.1176,7.0939,7.0737,6.9958,6.9079,6.8808,6.9789,7.1041,7.1244,7.1969,7.3044,7.4005,7.5048,7.5959,7.6728,7.6856,7.6956,7.7243,7.7304,7.7304,7.7304,7.7304,7.7084,7.624,7.5249,7.4111,7.2826,7.1945,7.1358,7.1101,7.1284,7.1615,7.2092,7.1431,7.1284,7.2055,7.1431,7.1284,7.2092,7.2349,7.312,7.4478,7.4001,7.3707,7.3707,7.4478,7.4368,7.323,7.378,7.4111,7.4184,7.3046,7.2789,7.3303,7.2753,7.2496,7.2496,7.2686,7.2761,7.2871,7.3888,7.3972,7.3532,7.4328,7.437,7.4106,7.4826,7.5379,7.5787,7.4521,7.5387,7.6297,7.8657,7.9464,7.9634,7.9194,7.8855,7.845,7.7841,7.7638,7.7029,7.5709,7.51,7.4356,7.3172,7.2394,7.1785,7.1345,7.1312,7.1312,7.1312,7.1312,7.1312,7.1312,7.1312,7.1312,7.1312,7.1312,7.1312,7.1312,7.1312,7.1312,7.1312,7.1312,7.1312,7.1312,7.1312,7.1312,7.1312,7.1312,7.1312,7.1312,7.1312,7.1312,7.1312,7.1312,7.1312,7.1278,7.0973,7.0263,6.9674,7.0311,7.1199,7.2004,7.2364,7.288,7.365,7.461,7.5369,7.6027,7.7019,7.7304,7.7304,7.7304,7.7304,7.7304,7.7304,7.7304,7.7157,7.668,7.5946,7.5102,7.4294,7.3487,7.2863,7.2532,7.2496,7.2496,7.2496,7.2092,7.1982,7.2459,7.2055,7.2239,7.3377,7.3156,7.356,7.4845,7.4441,7.4037,7.3707,7.4478,7.4441,7.345,7.3634,7.378,7.3964,7.2973,7.2753,7.3193,7.2716,7.2496,7.2496,7.2816,7.305,7.329,7.4506,7.4139,7.2979,7.3667,7.3853,7.38,7.4298,7.4689,7.513,7.3886,7.5086,7.6326,7.8489,7.8957,7.8991,7.8923,7.828,7.7299,7.598,7.6318,7.5912,7.3916,7.3578,7.3206,7.2563,7.1751,7.1312,7.1312,7.1312,7.1312,7.1312,7.1312,7.1312,7.1312,7.1312,7.1312,7.1312,7.1312,7.1312,7.1312,7.1312,7.1312,7.1312,7.1312,7.1312,7.1312,7.1312,7.1312,7.1312,7.1312,7.1312,7.1312,7.1312,7.1312,7.1312,7.1312,7.1312,7.121,7.0432,7.0317,7.0682,7.2188,7.281,7.309,7.4005,7.4385,7.461,7.558,7.5891,7.6161,7.7082,7.7304,7.7304,7.7304,7.7304,7.7304,7.7304,7.7304,7.7304,7.7304,7.6644,7.5873,7.5249,7.4368,7.356,7.2826,7.2642,7.2569,7.2496,7.2496,7.2496,7.2496,7.2496,7.3156,7.4698,7.4037,7.3964,7.4845,7.4845,7.4478,7.3707,7.4404,7.4771,7.4698,7.3964,7.3266,7.2606,7.2532,7.2496,7.2496,7.2496,7.2496,7.2553,7.3429,7.3888,7.4212,7.5178,7.4322,7.2476,7.2552,7.2937,7.3399,7.3476,7.3514,7.3707,7.3483,7.4743,7.6076,7.7174,7.7841,7.8044,7.7468,7.669,7.6284,7.6589,7.5743,7.5134,7.5202,7.4187,7.3409,7.3274,7.2056,7.1312,7.1312,7.1312,7.1312,7.1312,7.1312,7.1312,7.1312,7.1312,7.1312,7.1312,7.1312,7.1312,7.1312,7.1312,7.1312,7.1312,7.1312,7.1312,7.1312,7.1312,7.1312,7.1312,7.1312,7.1312,7.1312,7.1312,7.1312,7.1312,7.1312,7.1312,7.121,7.0432,7.1113,7.2188,7.1987,7.2878,7.4005,7.4234,7.483,7.551,7.5718,7.6396,7.7019,7.7243,7.7304,7.7304,7.7304,7.7304,7.7304,7.7304,7.7304,7.7304,7.7304,7.6644,7.624,7.6717,7.5579,7.4588,7.4404,7.3854,7.3193,7.2569,7.2496,7.2496,7.2496,7.2496,7.2899,7.3891,7.3193,7.3377,7.4845,7.4294,7.3891,7.3707,7.3854,7.367,7.3046,7.2863,7.2973,7.3413,7.2789,7.2496,7.2496,7.2496,7.2496,7.2553,7.3651,7.3651,7.2828,7.2269,7.1706,7.136,7.2245,7.2552,7.2552,7.3245,7.3514,7.3553,7.3662,7.4915,7.596,7.68,7.7198,7.7198,7.6454,7.5676,7.5067,7.4796,7.4356,7.395,7.3646,7.324,7.2834,7.2462,7.1751,7.1312,7.1312,7.1312,7.1312,7.1312,7.1312,7.1312,7.1312,7.1312,7.1312,7.1312,7.1312,7.1312,7.1312,7.1312,7.1312,7.1312,7.1312,7.1312,7.1312,7.1312,7.1312,7.1312,7.1312,7.1312,7.1312,7.1312,7.1312,7.1312,7.1312,7.1312,7.1334,7.1386,7.202,7.2892,7.347,7.429,7.512,7.558,7.5718,7.5891,7.6396,7.6563,7.6728,7.7181,7.7304,7.7304,7.7304,7.7304,7.7304,7.7304,7.7304,7.7194,7.6827,7.6387,7.613,7.6166,7.5469,7.4918,7.4918,7.4551,7.3964,7.3156,7.3083,7.2936,7.2532,7.2496,7.2826,7.3634,7.3303,7.3597,7.4845,7.4515,7.4441,7.4845,7.4478,7.4074,7.367,7.3266,7.3083,7.312,7.2716,7.263,7.2943,7.2943,7.2997,7.3156,7.3934,7.4249,7.3991,7.181,7.0898,7.0975,7.1552,7.1706,7.1629,7.2091,7.2245,7.2245,7.3901,7.5054,7.5936,7.6564,7.669,7.642,7.5642,7.4897,7.3984,7.2732,7.3003,7.2868,7.1819,7.2124,7.209,7.1379,7.1312,7.1312,7.1312,7.1312,7.1312,7.1312,7.1312,7.1312,7.1312,7.1312,7.1312,7.1312,7.1312,7.1312,7.1312,7.1312,7.1312,7.1312,7.1312,7.1312,7.1312,7.1312,7.1312,7.1312,7.1312,7.1312,7.1312,7.1312,7.1312,7.1312,7.1312,7.1367,7.1688,7.2498,7.3044,7.3615,7.5263,7.5959,7.6264,7.7019,7.6728,7.6264,7.7082,7.6728,7.6264,7.7082,7.7304,7.7304,7.7304,7.7304,7.7304,7.7304,7.7304,7.7121,7.6423,7.6313,7.6093,7.5432,7.5322,7.5285,7.5139,7.4992,7.4625,7.378,7.356,7.323,7.2569,7.2496,7.2789,7.345,7.3487,7.3854,7.4661,7.4588,7.4882,7.5652,7.4918,7.4515,7.4515,7.3817,7.3156,7.2496,7.2573,7.2889,7.3391,7.3391,7.3553,7.3888,7.4023,7.4676,7.5322,7.2206,7.0898,7.0898,7.0898,7.0898,7.0898,7.0898,7.0898,7.0898,7.3628,7.4772,7.5754,7.5879,7.5845,7.5608,7.4864,7.4119,7.3578,7.3375,7.2868,7.2699,7.3138,7.2732,7.209,7.1379,7.1312,7.1312,7.1312,7.1312,7.1312,7.1312,7.1312,7.1312,7.1312,7.1312,7.1312,7.1312,7.1312,7.1312,7.1312,7.1312,7.1312,7.1312,7.1312,7.1312,7.1312,7.1312,7.1312,7.1312,7.1312,7.1312,7.1312,7.1312,7.1312,7.1312,7.1312,7.183,7.2666,7.2714,7.3928,7.544,7.5718,7.6396,7.7082,7.7243,7.7181,7.7118,7.7243,7.7181,7.7118,7.7243,7.7304,7.7304,7.7304,7.7304,7.7304,7.7304,7.7304,7.7304,7.7194,7.7157,7.7121,7.7011,7.7011,7.6754,7.6056,7.5359,7.4625,7.378,7.3083,7.2606,7.2496,7.2496,7.2569,7.2642,7.2679,7.301,7.3817,7.3193,7.3193,7.4001,7.323,7.2826,7.2826,7.2716,7.2606,7.2496,7.305,7.329,7.3391,7.3391,7.385,7.4596,7.3686,7.3483,7.3707,7.1706,7.0898,7.0898,7.0898,7.0898,7.0898,7.0898,7.0898,7.0898,7.2871,7.4134,7.5236,7.5642,7.5709,7.5439,7.4728,7.4322,7.3815,7.2969,7.2597,7.236,7.2293,7.1988,7.165,7.1345,7.1312,7.1312,7.1312,7.1312,7.1312,7.1312,7.1312,7.1312,7.1312,7.1312,7.1312,7.1312,7.1312,7.1312,7.1312,7.1312,7.1312,7.1312,7.1312,7.1312,7.1312,7.1312,7.1312,7.1312,7.1312,7.16,7.2056,7.1546,7.1688,7.2056,7.1546,7.1917,7.288,7.3492,7.461,7.5891,7.6498,7.6956,7.7304,7.7304,7.7304,7.7304,7.7304,7.7304,7.7304,7.7304,7.7304,7.7304,7.7304,7.7304,7.7304,7.7304,7.7304,7.7194,7.6717,7.6644,7.6644,7.6644,7.6644,7.668,7.6754,7.6093,7.5285,7.4478,7.367,7.334,7.3817,7.3413,7.3156,7.3156,7.2753,7.2863,7.367,7.334,7.3523,7.4331,7.3597,7.3156,7.3156,7.2716,7.2686,7.2997,7.3238,7.359,7.3934,7.4212,7.4751,7.5408,7.426,7.366,7.336,7.1629,7.0898,7.0898,7.0898,7.0898,7.0898,7.0898,7.0898,7.0898]},{"header":{"parameterUnit":"m.s-1","parameterCategory":1,"la1":30.6,"la2":28.766,"lo1":-90.7593,"lo2":-88.6598,"dy":0.0162,"dx":0.0183,"nx":116,"ny":114,"refTime":"2023-04-22T06:00:00:Z","depth":0,"parameterNumber":3,"parameterNumberName":"V-component_of_WINDS"},"data":[0.0,0.0,0.0,0.0,0.0,0.0,0.0,0.0,0.0,0.0,0.0,0.0,0.0,0.0,0.0,0.0,0.0,0.0,0.0,0.0,0.0,0.0,0.0,0.0,0.0,0.0,0.0,0.0,0.0,0.0,0.0,0.0,0.0,0.0,0.0,0.0,0.0,0.0,0.0,0.0,0.0,0.0,0.0,0.0,0.0,0.0,0.0,0.0,0.0,0.0,0.0,0.0,0.0,0.0,0.0,0.0,0.0,0.0,0.0,0.0,0.0,0.0,0.0,0.0,0.0,0.0,0.0,0.0,0.0,0.0,0.0,0.0,0.0,0.0,0.0,0.0,0.0,0.0,0.0,0.0,0.0,0.0,0.0,0.0,0.0,0.0,0.0,0.0,0.0,0.0,0.0,0.0,0.0,0.0,0.0,0.0,0.0,0.0,0.0,0.0,0.0,0.0,0.0,0.0,0.0,0.0,0.0,0.0,0.0,0.0,0.0,0.0,0.0,0.0,0.0,0.0,0.0,0.0,0.0,0.0,0.0,0.0,0.0,0.0,0.0,0.0,0.0,0.0,0.0,0.0,0.0,0.0,0.0,0.0,0.0,0.0,0.0,0.0,0.0,0.0,0.0,0.0,0.0,0.0,0.0,0.0,0.0,0.0,0.0,0.0,0.0,0.0,0.0,0.0,0.0,0.0,0.0,0.0,0.0,0.0,0.0,0.0,0.0,0.0,0.0,0.0,0.0,0.0,0.0,0.0,0.0,0.0,0.0,0.0,0.0,0.0,0.0,0.0,0.0,0.0,0.0,0.0,0.0,0.0,0.0,0.0,0.0,0.0,0.0,0.0,0.0,0.0,0.0,0.0,0.0,0.0,0.0,0.0,0.0,0.0,0.0,0.0,0.0,0.0,0.0,0.0,0.0,0.0,0.0,0.0,0.0,0.0,0.0,0.0,0.0,0.0,0.0,0.0,0.0,0.0,0.0,0.0,0.0,0.0,0.0,0.0,0.0,0.0,0.0,0.0,0.0,0.0,0.0,0.0,0.0,0.0,0.0,0.0,0.0,0.0,0.0,0.0,0.0,0.0,0.0,0.0,0.0,0.0,0.0,0.0,0.0,0.0,0.0,0.0,0.0,0.0,0.0,0.0,0.0,0.0,0.0,0.0,0.0,0.0,0.0,0.0,0.0,0.0,0.0,0.0,0.0,0.0,0.0,0.0,0.0,0.0,0.0,0.0,0.0,0.0,0.0,0.0,0.0,0.0,0.0,0.0,0.0,0.0,0.0,0.0,0.0,0.0,0.0,0.0,0.0,0.0,0.0,0.0,0.0,0.0,0.0,0.0,0.0,0.0,0.0,0.0,0.0,0.0,0.0,0.0,0.0,0.0,0.0,0.0,0.0,0.0,0.0,0.0,0.0,0.0,0.0,0.0,0.0,0.0,0.0,0.0,0.0,0.0,0.0,0.0,0.0,0.0,0.0,0.0,0.0,0.0,0.0,0.0,0.0,0.0,0.0,0.0,0.0,0.0,0.0,0.0,0.0,0.0,0.0,0.0,0.0,0.0,0.0,0.0,0.0,0.0,0.0,0.0,0.0,0.0,0.0,0.0,0.0,0.0,0.0,0.0,0.0,0.0,0.0,0.0,0.0,0.0,0.0,0.0,0.0,0.0,0.0,0.0,0.0,0.0,0.0,0.0,0.0,0.0,0.0,0.0,0.0,0.0,0.0,0.0,0.0,0.0,0.0,0.0,0.0,0.0,0.0,0.0,0.0,0.0,0.0,0.0,0.0,0.0,0.0,0.0,0.0,0.0,0.0,0.0,0.0,0.0,0.0,0.0,0.0,0.0,0.0,0.0,0.0,0.0,0.0,0.0,0.0,0.0,0.0,0.0,0.0,0.0,0.0,0.0,0.0,0.0,0.0,0.0,0.0,0.0,0.0,0.0,0.0,0.0,0.0,0.0,0.0,0.0,0.0,0.0,0.0,0.0,0.0,0.0,0.0,0.0,0.0,0.0,0.0,0.0,0.0,0.0,0.0,0.0,0.0,0.0,0.0,0.0,0.0,0.0,0.0,0.0,0.0,0.0,0.0,0.0,0.0,0.0,0.0,0.0,0.0,0.0,0.0,0.0,0.0,0.0,0.0,0.0,0.0,0.0,0.0,0.0,0.0,0.0,0.0,0.0,0.0,0.0,0.0,0.0,0.0,0.0,0.0,0.0,0.0,0.0,0.0,0.0,0.0,0.0,0.0,0.0,0.0,0.0,0.0,0.0,0.0,0.0,0.0,0.0,0.0,0.0,0.0,0.0,0.0,0.0,0.0,0.0,0.0,0.0,0.0,0.0,0.0,0.0,0.0,0.0,0.0,0.0,0.0,0.0,0.0,0.0,0.0,0.0,0.0,0.0,0.0,0.0,0.0,0.0,0.0,0.0,0.0,0.0,0.0,0.0,0.0,0.0,0.0,0.0,0.0,0.0,0.0,0.0,0.0,0.0,0.0,0.0,0.0,0.0,0.0,0.0,0.0,0.0,0.0,0.0,0.0,0.0,0.0,0.0,0.0,0.0,0.0,0.0,0.0,0.0,0.0,0.0,0.0,0.0,0.0,0.0,0.0,0.0,0.0,0.0,0.0,0.0,0.0,0.0,0.0,0.0,0.0,0.0,0.0,0.0,0.0,0.0,0.0,0.0,0.0,0.0,0.0,0.0,0.0,0.0,0.0,0.0,0.0,0.0,0.0,0.0,0.0,0.0,0.0,0.0,0.0,0.0,0.0,0.0,0.0,0.0,0.0,0.0,0.0,0.0,0.0,0.0,0.0,0.0,0.0,0.0,0.0,0.0,0.0,0.0,0.0,0.0,0.0,0.0,0.0,0.0,0.0,0.0,0.0,0.0,0.0,0.0,0.0,0.0,0.0,0.0,0.0,0.0,0.0,0.0,0.0,0.0,0.0,0.0,0.0,0.0,0.0,0.0,0.0,0.0,0.0,0.0,0.0,0.0,0.0,0.0,0.0,0.0,0.0,0.0,0.0,0.0,0.0,0.0,0.0,0.0,0.0,0.0,0.0,0.0,0.0,0.0,0.0,0.0,0.0,0.0,0.0,0.0,0.0,0.0,0.0,0.0,0.0,0.0,0.0,0.0,0.0,0.0,0.0,0.0,0.0,0.0,0.0,0.0,0.0,0.0,0.0,0.0,0.0,0.0,0.0,0.0,0.0,0.0,0.0,0.0,0.0,0.0,0.0,0.0,0.0,0.0,0.0,0.0,0.0,0.0,0.0,0.0,0.0,0.0,0.0,0.0,0.0,0.0,0.0,0.0,0.0,0.0,0.0,0.0,0.0,0.0,0.0,0.0,0.0,0.0,0.0,0.0,0.0,0.0,0.0,0.0,0.0,0.0,0.0,0.0,0.0,0.0,0.0,0.0,0.0,0.0,0.0,0.0,0.0,0.0,0.0,0.0,0.0,0.0,0.0,0.0,0.0,0.0,0.0,0.0,0.0,0.0,0.0,0.0,0.0,0.0,0.0,0.0,0.0,0.0,0.0,0.0,0.0,0.0,0.0,0.0,0.0,0.0,0.0,0.0,0.0,0.0,0.0,0.0,0.0,0.0,0.0,0.0,0.0,0.0,0.0,0.0,0.0,0.0,0.0,0.0,0.0,0.0,0.0,0.0,0.0,0.0,0.0,0.0,0.0,0.0,0.0,0.0,0.0,0.0,0.0,0.0,0.0,0.0,0.0,0.0,0.0,0.0,0.0,0.0,0.0,0.0,0.0,0.0,0.0,0.0,0.0,0.0,0.0,0.0,0.0,0.0,0.0,0.0,0.0,0.0,0.0,0.0,0.0,0.0,0.0,0.0,0.0,0.0,0.0,0.0,0.0,0.0,0.0,0.0,0.0,0.0,0.0,0.0,0.0,0.0,0.0,0.0,0.0,0.0,0.0,0.0,0.0,0.0,0.0,0.0,0.0,0.0,0.0,0.0,0.0,0.0,0.0,0.0,0.0,0.0,0.0,0.0,0.0,0.0,0.0,0.0,0.0,0.0,0.0,0.0,0.0,0.0,0.0,0.0,0.0,0.0,0.0,0.0,0.0,0.0,0.0,0.0,0.0,0.0,0.0,0.0,0.0,0.0,0.0,0.0,0.0,0.0,0.0,0.0,0.0,0.0,0.0,0.0,0.0,0.0,0.0,0.0,0.0,0.0,0.0,0.0,0.0,0.0,0.0,0.0,0.0,0.0,0.0,0.0,0.0,0.0,0.0,0.0,0.0,0.0,0.0,0.0,0.0,0.0,0.0,0.0,0.0,0.0,0.0,0.0,0.0,0.0,0.0,0.0,0.0,0.0,0.0,0.0,0.0,0.0,0.0,0.0,0.0,0.0,0.0,0.0,0.0,0.0,0.0,0.0,0.0,0.0,0.0,0.0,0.0,0.0,0.0,0.0,0.0,0.0,0.0,0.0,0.0,0.0,0.0,0.0,0.0,0.0,0.0,0.0,0.0,0.0,0.0,0.0,0.0,0.0,0.0,0.0,0.0,0.0,0.0,0.0,0.0,0.0,0.0,0.0,0.0,0.0,0.0,0.0,0.0,0.0,0.0,0.0,0.0,0.0,0.0,0.0,0.0,0.0,0.0,0.0,0.0,0.0,0.0,0.0,0.0,0.0,0.0,0.0,0.0,0.0,0.0,0.0,0.0,0.0,0.0,0.0,0.0,0.0,0.0,0.0,0.0,0.0,0.0,0.0,0.0,0.0,0.0,0.0,0.0,0.0,0.0,0.0,0.0,0.0,0.0,0.0,0.0,0.0,0.0,0.0,0.0,0.0,0.0,0.0,0.0,0.0,0.0,0.0,0.0,0.0,0.0,0.0,0.0,0.0,0.0,0.0,0.0,0.0,0.0,0.0,0.0,0.0,0.0,0.0,0.0,0.0,0.0,0.0,0.0,0.0,0.0,0.0,0.0,0.0,0.0,0.0,0.0,0.0,0.0,0.0,0.0,0.0,0.0,0.0,0.0,0.0,0.0,0.0,0.0,0.0,0.0,0.0,0.0,0.0,0.0,0.0,0.0,0.0,0.0,0.0,0.0,0.0,0.0,0.0,0.0,0.0,0.0,0.0,0.0,0.0,0.0,0.0,0.0,0.0,0.0,0.0,0.0,0.0,0.0,0.0,0.0,0.0,0.0,0.0,0.0,0.0,0.0,0.0,0.0,0.0,0.0,0.0,0.0,0.0,0.0,0.0,0.0,0.0,0.0,0.0,0.0,0.0,0.0,0.0,0.0,0.0,0.0,0.0,0.0,0.0,0.0,0.0,0.0,0.0,0.0,0.0,0.0,0.0,0.0,0.0,0.0,0.0,0.0,0.0,0.0,0.0,0.0,0.0,0.0,0.0,0.0,0.0,0.0,0.0,0.0,0.0,0.0,0.0,0.0,0.0,0.0,0.0,0.0,0.0,0.0,0.0,0.0,0.0,0.0,0.0,0.0,0.0,0.0,0.0,0.0,0.0,0.0,0.0,0.0,0.0,0.0,0.0,0.0,0.0,0.0,0.0,0.0,0.0,0.0,0.0,0.0,0.0,0.0,0.0,0.0,0.0,0.0,0.0,0.0,0.0,0.0,0.0,0.0,0.0,0.0,0.0,0.0,0.0,0.0,0.0,0.0,0.0,0.0,0.0,0.0,0.0,0.0,0.0,0.0,0.0,0.0,0.0,0.0,0.0,0.0,0.0,0.0,0.0,0.0,0.0,0.0,0.0,0.0,0.0,0.0,0.0,0.0,0.0,0.0,0.0,0.0,0.0,0.0,0.0,0.0,0.0,0.0,0.0,0.0,0.0,0.0,0.0,0.0,0.0,0.0,0.0,0.0,0.0,0.0,0.0,0.0,0.0,0.0,0.0,0.0,0.0,0.0,0.0,0.0,0.0,0.0,0.0,0.0,0.0,0.0,0.0,0.0,0.0,0.0,0.0,0.0,0.0,0.0,0.0,0.0,0.0,0.0,0.0,0.0,0.0,0.0,0.0,0.0,0.0,0.0,0.0,0.0,0.0,0.0,0.0,0.0,0.0,0.0,0.0,0.0,0.0,0.0,0.0,0.0,0.0,0.0,0.0,0.0,0.0,2.2231,2.2579,0.0,0.0,0.0,0.0,0.0,0.0,0.0,0.0,0.0,0.0,0.0,0.0,0.0,0.0,0.0,0.0,0.0,0.0,0.0,0.0,0.0,0.0,0.0,0.0,0.0,0.0,0.0,0.0,0.0,0.0,0.0,0.0,0.0,0.0,0.0,0.0,0.0,0.0,0.0,0.0,0.0,0.0,0.0,0.0,0.0,0.0,0.0,0.0,0.0,0.0,0.0,0.0,0.0,0.0,0.0,0.0,0.0,0.0,0.0,0.0,0.0,0.0,0.0,0.0,0.0,0.0,0.0,0.0,0.0,0.0,0.0,0.0,0.0,0.0,0.0,0.0,0.0,0.0,0.0,0.0,0.0,0.0,0.0,0.0,0.0,0.0,0.0,0.0,0.0,0.0,0.0,0.0,0.0,0.0,0.0,0.0,0.0,0.0,0.0,0.0,0.0,0.0,0.0,0.0,0.0,0.0,0.0,0.0,0.0,0.0,0.0,0.0,0.0,0.0,2.3033,2.2699,0.0,0.0,0.0,0.0,0.0,0.0,0.0,0.0,0.0,0.0,0.0,0.0,0.0,0.0,0.0,0.0,0.0,0.0,0.0,0.0,0.0,0.0,0.0,0.0,4.3011,4.3112,4.3112,4.3162,0.0,0.0,0.0,0.0,0.0,0.0,0.0,0.0,0.0,0.0,0.0,0.0,0.0,0.0,0.0,0.0,0.0,0.0,0.0,0.0,0.0,0.0,0.0,0.0,0.0,0.0,0.0,0.0,0.0,0.0,0.0,0.0,0.0,0.0,0.0,0.0,0.0,0.0,0.0,0.0,0.0,0.0,0.0,0.0,0.0,0.0,0.0,0.0,0.0,0.0,0.0,0.0,0.0,0.0,0.0,0.0,0.0,0.0,0.0,0.0,0.0,0.0,0.0,0.0,0.0,0.0,0.0,0.0,0.0,0.0,0.0,0.0,0.0,0.0,0.0,0.0,0.0,0.0,0.0,0.0,2.4636,2.5277,2.6026,2.5772,2.5718,2.5745,2.4543,2.342,2.2525,2.3607,0.0,0.0,0.0,0.0,0.0,0.0,0.0,0.0,0.0,0.0,0.0,0.0,0.0,0.0,0.0,0.0,0.0,0.0,0.0,0.0,0.0,4.261,4.3162,4.3639,4.3689,4.389,0.0,0.0,0.0,0.0,0.0,0.0,0.0,3.8927,3.7777,3.8353,0.0,3.9601,3.814,4.1661,4.2477,4.1199,4.0488,0.0,0.0,0.0,0.0,0.0,0.0,0.0,0.0,0.0,0.0,0.0,0.0,0.0,0.0,0.0,0.0,0.0,0.0,0.0,0.0,0.0,0.0,0.0,0.0,0.0,0.0,0.0,0.0,0.0,0.0,0.0,0.0,0.0,0.0,0.0,0.0,0.0,0.0,0.0,0.0,0.0,0.0,0.0,2.4531,2.2621,0.0,0.0,0.0,0.0,0.0,0.0,0.0,0.0,0.0,0.0,0.0,0.0,0.0,2.4289,2.5104,2.5144,2.5331,2.5665,2.5745,2.5972,2.6333,2.6293,2.656,2.7028,2.6827,0.0,2.4249,2.3674,0.0,0.0,0.0,0.0,0.0,0.0,0.0,0.0,0.0,0.0,0.0,0.0,0.0,0.0,0.0,0.0,0.0,0.0,0.0,0.0,0.0,4.2911,4.3539,4.379,4.4392,4.4844,4.5095,4.5121,0.0,0.0,0.0,0.0,4.0953,4.0318,3.9701,3.8963,4.1813,4.2444,4.1352,4.4457,4.574,4.5223,4.4107,4.3284,4.2492,4.1614,0.0,0.0,0.0,0.0,0.0,0.0,0.0,0.0,0.0,0.0,0.0,0.0,0.0,0.0,0.0,0.0,0.0,0.0,0.0,0.0,0.0,0.0,0.0,0.0,0.0,0.0,0.0,0.0,0.0,0.0,0.0,0.0,0.0,0.0,0.0,0.0,0.0,0.0,0.0,2.6028,2.3776,2.2445,2.3046,2.338,0.0,0.0,0.0,0.0,0.0,0.0,0.0,0.0,0.0,2.473,2.5037,2.5371,2.5758,2.6253,2.6734,2.7188,2.7522,2.7936,2.8377,2.8377,2.8511,2.8751,2.8751,2.803,2.6774,2.5545,2.4623,2.3901,0.0,0.0,0.0,0.0,2.3367,2.3466,0.0,0.0,0.0,0.0,0.0,0.0,0.0,0.0,0.0,0.0,0.0,0.0,4.2534,4.3313,4.3915,4.4217,4.5121,4.5748,4.5899,4.5773,0.0,0.0,0.0,4.4375,4.1468,4.271,4.2134,3.9523,4.3428,4.502,4.4386,4.7033,4.8335,4.8234,4.7304,4.6139,4.48,4.4004,4.3083,0.0,0.0,0.0,0.0,0.0,0.0,0.0,0.0,0.0,0.0,0.0,0.0,0.0,0.0,0.0,0.0,0.0,0.0,0.0,0.0,0.0,0.0,0.0,0.0,0.0,0.0,0.0,0.0,0.0,0.0,0.0,0.0,0.0,0.0,0.0,0.0,0.0,0.0,2.5013,2.3594,2.2539,2.3407,2.3834,0.0,0.0,0.0,0.0,0.0,0.0,2.4302,2.4877,2.5504,2.6159,2.6547,2.6814,2.6961,2.7762,2.843,2.8938,2.9459,3.002,3.0595,3.0595,3.0541,3.0474,3.0394,2.9913,2.9032,2.7321,2.5798,2.4529,2.4222,2.3968,2.3794,2.4022,2.4289,2.4543,0.0,0.0,0.0,0.0,0.0,0.0,0.0,0.0,0.0,0.0,0.0,4.1982,4.3539,4.3765,4.4242,4.5321,4.5924,4.6502,4.7029,4.6552,4.6502,4.7029,4.6552,4.613,4.596,4.6105,4.4425,4.1069,4.5615,4.6932,4.5357,4.817,4.9515,4.9515,4.9411,4.7912,4.529,4.3891,4.3018,4.2638,0.0,0.0,0.0,0.0,0.0,0.0,0.0,0.0,0.0,0.0,0.0,0.0,0.0,0.0,0.0,0.0,0.0,0.0,0.0,0.0,0.0,0.0,0.0,0.0,0.0,0.0,0.0,0.0,0.0,0.0,0.0,0.0,0.0,0.0,0.0,0.0,0.0,0.0,0.0,2.2498,2.3233,0.0,0.0,0.0,0.0,2.3688,2.4743,2.5518,2.5825,2.64,2.7108,2.7976,2.8577,2.9152,2.9713,3.0314,3.0768,3.1076,3.1383,3.1851,3.2412,3.2412,3.2265,3.1984,3.1704,3.1236,3.0501,2.8177,2.7001,2.656,2.5451,2.5504,2.6119,2.5304,2.5197,2.5371,0.0,0.0,0.0,0.0,0.0,0.0,0.0,0.0,4.1254,4.1781,4.2183,4.3162,4.5196,4.5422,4.5999,4.7481,4.8109,4.836,4.8209,4.7657,4.728,4.7154,4.6602,4.6301,4.6301,4.5478,4.5299,4.5489,4.8252,4.9257,4.8583,5.0031,5.067,5.067,5.067,5.0181,4.9051,4.7515,4.6264,4.5279,4.4681,4.304,0.0,0.0,0.0,0.0,0.0,0.0,0.0,0.0,0.0,0.0,0.0,0.0,0.0,0.0,0.0,0.0,0.0,0.0,0.0,0.0,0.0,0.0,0.0,0.0,0.0,0.0,0.0,0.0,0.0,0.0,0.0,0.0,0.0,0.0,0.0,0.0,0.0,2.4462,2.5531,0.0,2.4796,2.4716,2.485,2.5157,2.5905,2.6653,2.7321,2.811,2.8938,2.982,3.0421,3.0929,3.1316,3.1717,3.1971,3.2078,3.2185,3.2345,3.2545,3.2545,3.2492,3.2372,3.2078,3.1717,3.1249,2.9833,2.8524,2.7295,2.6306,2.5879,2.5838,2.5892,2.6106,2.636,0.0,0.0,0.0,0.0,0.0,0.0,0.0,0.0,4.1404,4.158,4.2735,4.4166,4.5849,4.6702,4.7657,4.8937,4.9213,4.9163,4.8786,4.7883,4.7305,4.7154,4.6778,4.6502,4.6301,4.6214,4.6925,4.8485,5.0167,5.0896,5.072,5.1473,5.1724,5.1548,5.1548,5.1548,5.1473,5.0167,4.8918,4.7676,4.6504,4.486,4.2754,0.0,0.0,0.0,0.0,0.0,0.0,0.0,0.0,0.0,0.0,0.0,0.0,0.0,0.0,0.0,0.0,0.0,0.0,0.0,0.0,0.0,0.0,0.0,0.0,0.0,0.0,0.0,0.0,0.0,0.0,0.0,0.0,0.0,0.0,0.0,2.636,2.6266,2.7201,2.7468,2.6493,2.64,2.652,2.6827,2.7575,2.8404,2.9285,2.99,3.0581,3.1356,3.1864,3.2158,3.2251,3.2639,3.2786,3.2692,3.2786,3.2839,3.2839,3.2839,3.2786,3.2679,3.2478,3.2171,3.1757,3.1089,2.9993,2.8644,2.7669,2.7041,2.6747,2.7134,2.7402,2.7562,0.0,0.0,0.0,0.0,0.0,0.0,0.0,4.0626,4.1153,4.0601,4.2936,4.4895,4.5522,4.7531,4.9063,4.9665,4.9163,4.8812,4.8786,4.7255,4.6577,4.7104,4.7104,4.6878,4.6426,4.851,4.964,4.9665,5.1322,5.185,5.1348,5.2427,5.2628,5.2126,5.2126,5.2126,5.2101,5.1548,5.067,4.9565,4.841,4.7199,4.5823,0.0,0.0,0.0,0.0,0.0,0.0,0.0,0.0,0.0,0.0,0.0,0.0,0.0,0.0,0.0,0.0,0.0,0.0,0.0,0.0,0.0,0.0,0.0,0.0,0.0,0.0,0.0,0.0,0.0,0.0,0.0,0.0,0.0,2.469,2.6239,2.7442,2.7749,2.8056,2.8016,2.7428,2.7896,2.8364,2.8684,2.9766,3.0795,3.165,3.1704,3.1971,3.2559,3.2839,3.2866,3.2585,3.3133,3.3267,3.3,3.328,3.3414,3.3414,3.3414,3.3253,3.2986,3.2986,3.2652,3.2104,3.181,3.1343,3.0702,2.9526,2.9058,2.9045,2.9045,2.9032,2.8938,0.0,0.0,0.0,0.0,0.0,0.0,0.0,4.0626,4.1279,4.1128,4.3539,4.5924,4.7682,4.9113,5.067,5.2427,5.0971,4.9791,4.9389,4.7832,4.6979,4.7129,4.6753,4.7205,4.8661,4.9665,5.0594,5.1423,5.2277,5.2628,5.2477,5.2779,5.2854,5.2703,5.2703,5.2703,5.2653,5.2126,5.1699,5.1247,4.9314,4.7764,4.6357,0.0,0.0,0.0,0.0,0.0,0.0,0.0,0.0,0.0,0.0,0.0,0.0,0.0,0.0,0.0,0.0,0.0,0.0,0.0,0.0,0.0,0.0,0.0,0.0,0.0,0.0,0.0,0.0,0.0,0.0,0.0,0.0,2.676,2.6841,2.8016,2.9058,2.9566,3.0261,3.0474,2.9887,3.0154,3.0501,3.0808,3.1316,3.1824,3.2278,3.2505,3.2786,3.316,3.3253,3.336,3.3521,3.344,3.3374,3.3293,3.3374,3.3414,3.3414,3.3414,3.3374,3.328,3.3066,3.2893,3.2692,3.2185,3.177,3.1316,3.014,2.9539,2.9339,2.9125,2.8911,2.8698,0.0,0.0,0.0,0.0,0.0,0.0,0.0,4.0425,4.0902,4.0676,4.3865,4.6577,4.7631,4.9967,5.1699,5.2277,5.0946,4.964,4.8636,4.7657,4.7029,4.6803,4.7355,4.8385,4.9916,5.0946,5.19,5.2779,5.3105,5.3381,5.3607,5.3356,5.3381,5.3607,5.3607,5.3607,5.3582,5.3281,5.3005,5.2653,5.1122,4.9711,4.8488,4.6514,4.5662,4.521,4.3134,4.2074,4.1519,3.9882,0.0,0.0,0.0,0.0,0.0,0.0,0.0,0.0,0.0,0.0,0.0,0.0,0.0,0.0,0.0,0.0,0.0,0.0,0.0,0.0,0.0,0.0,0.0,0.0,3.0029,2.9366,3.1183,3.0711,3.0474,3.1196,3.173,3.1904,3.1557,3.1904,3.2158,3.2211,3.2719,3.3053,3.3106,3.3387,3.3614,3.3788,3.3788,3.3881,3.4068,3.3881,3.3788,3.3788,3.3668,3.3614,3.3601,3.3467,3.3414,3.34,3.324,3.3093,3.2946,3.2612,3.2291,3.1931,0.0,0.0,0.0,0.0,2.9325,2.8951,0.0,0.0,0.0,0.0,0.0,0.0,0.0,4.0224,4.04,3.9848,4.4116,4.6954,4.6301,5.0067,5.2076,5.0645,4.9791,4.8686,4.723,4.7029,4.6903,4.6778,4.8711,5.0117,5.087,5.2402,5.3432,5.3884,5.3884,5.411,5.4561,5.411,5.416,5.4662,5.4712,5.4762,5.4762,5.4762,5.4461,5.3934,5.3482,5.2477,5.1064,4.8816,4.8324,4.8434,4.6238,4.4079,4.1983,4.1473,0.0,0.0,0.0,0.0,0.0,0.0,0.0,0.0,0.0,0.0,0.0,0.0,0.0,0.0,0.0,0.0,0.0,0.0,0.0,0.0,0.0,0.0,0.0,0.0,3.1911,3.2376,3.6163,3.376,3.1864,3.2652,3.2746,3.2732,3.2706,3.3187,3.34,3.3106,3.3855,3.4202,3.3948,3.4175,0.0,0.0,0.0,3.4336,3.4362,3.4336,3.4322,3.4322,3.4028,3.3881,3.3881,3.3561,3.3414,3.3414,3.3414,3.3267,3.3026,3.3026,3.2839,3.2465,3.161,3.1076,3.0755,3.0474,3.0007,2.9486,0.0,0.0,0.0,0.0,0.0,0.0,0.0,4.0551,4.0978,4.0425,4.4669,4.723,4.5799,4.8786,5.0971,5.1096,4.8962,4.7481,4.7154,4.6301,4.6954,4.9515,5.0469,5.185,5.3733,5.4511,5.4963,5.5064,5.5064,5.4888,5.4587,5.4913,5.5114,5.5239,5.5691,5.5892,5.5892,5.5892,5.5817,5.5717,5.5616,5.3858,5.1222,5.0223,4.9917,4.9544,4.5782,4.4754,4.4748,4.0878,3.9731,3.9707,3.8652,0.0,0.0,0.0,0.0,0.0,0.0,0.0,0.0,0.0,0.0,0.0,0.0,0.0,0.0,0.0,0.0,0.0,0.0,0.0,0.0,3.6682,3.5883,3.6031,3.8059,3.5745,3.3788,3.3961,3.3975,3.3881,3.3654,3.3935,3.4028,3.3734,3.4082,3.4295,3.4242,3.4295,3.4429,3.4656,3.4442,3.4429,3.467,3.4442,3.4322,3.4322,3.4028,0.0,3.3881,3.3561,3.3414,3.3414,3.3414,3.3374,3.3334,3.3334,3.3013,3.2478,3.1837,3.1263,3.0755,3.0474,3.014,2.9753,0.0,0.0,0.0,0.0,0.0,0.0,0.0,4.04,4.0827,4.0551,4.4116,4.6376,4.5573,4.8184,4.969,4.8862,4.7004,4.6125,4.6677,4.7506,4.8937,5.1172,5.2603,5.411,5.5767,5.6344,5.6771,5.7022,5.6771,5.6646,5.6646,5.6344,5.6369,5.6671,5.7223,5.7474,5.7474,5.775,5.7549,5.7097,5.765,5.6194,5.3683,5.313,5.2904,5.2554,5.0253,4.8027,4.6123,4.3992,4.1759,3.9746,3.9101,3.875,3.8535,0.0,0.0,0.0,0.0,0.0,0.0,0.0,0.0,0.0,0.0,0.0,0.0,0.0,0.0,3.646,0.0,0.0,3.9288,4.1023,3.9308,3.8675,4.0717,3.7745,3.503,3.4589,3.4416,3.4322,3.4322,3.4456,3.4536,3.4536,3.467,3.4817,3.4963,3.4977,3.5044,3.5191,3.5044,3.4977,3.4977,3.483,3.4763,3.475,3.4309,3.4108,3.4082,3.3627,3.3414,3.3414,3.3414,3.3414,3.3414,3.3414,3.3066,3.2519,3.2225,3.1664,3.0969,3.0688,3.0394,3.0034,0.0,0.0,0.0,0.0,0.0,0.0,0.0,4.0325,4.0727,4.0827,4.3564,4.5397,4.5171,4.733,4.7983,4.5999,4.5397,4.5623,4.6878,4.9238,5.1322,5.298,5.4863,5.6445,5.765,5.8127,5.8579,5.8981,5.8579,5.8529,5.8855,5.8052,5.7926,5.8403,5.8956,5.9207,5.9232,5.9633,5.9332,5.8604,5.9483,5.8755,5.7123,5.6545,5.6018,5.5465,5.4359,5.0819,4.6667,4.6557,4.3363,3.9355,3.9434,3.9219,3.8926,3.875,3.8027,0.0,0.0,0.0,0.0,0.0,0.0,0.0,0.0,0.0,3.7904,3.6534,3.7662,3.8449,3.7394,3.9423,4.2249,4.4961,4.2938,4.1644,4.3411,3.9747,3.6448,3.5177,3.4843,3.4736,3.491,3.499,3.5097,3.5271,3.5338,3.5471,3.5698,3.5712,3.5685,3.5631,3.5631,3.5485,3.5204,3.5191,3.5191,3.5191,3.4656,3.4402,3.4389,3.3774,3.3507,3.3494,3.344,3.3414,3.3414,3.3347,3.3013,3.2532,3.2478,3.1984,3.1276,3.0915,3.0648,3.0314,0.0,0.0,0.0,0.0,0.0,0.0,0.0,0.0,4.143,4.1907,4.4016,4.5095,4.4091,4.5171,4.5447,4.4192,4.5773,4.7531,4.9113,5.0444,5.2779,5.6319,5.7223,5.8353,5.991,6.001,6.0085,6.0136,6.0085,5.9834,5.9408,5.9784,5.9985,6.006,6.0638,6.0914,6.0914,6.0964,6.0914,6.0839,6.0939,6.0839,6.0563,5.9985,5.8252,5.5676,5.2938,4.9787,4.6523,4.4955,4.244,3.9883,4.0254,4.0351,4.0156,3.9355,0.0,3.7305,3.7305,3.6406,3.584,3.7402,3.7266,3.7246,0.0,0.0,3.9883,4.0337,4.1539,4.2048,4.0681,4.4063,4.7075,4.658,4.6861,4.6485,4.4864,4.1829,3.9053,3.6504,3.6059,3.5792,3.5551,3.5778,3.5832,3.5591,3.5832,3.5992,3.6019,3.6019,3.5899,3.5631,3.5631,3.5485,3.5204,3.5191,3.5191,3.5191,3.487,3.471,3.4696,3.4108,3.3828,3.3814,3.3534,3.3414,3.3387,3.3133,3.2839,3.2519,3.2251,3.1931,3.1557,3.0996,3.0768,3.0621,0.0,0.0,0.0,0.0,0.0,0.0,0.0,0.0,0.0,4.2082,4.3815,4.4694,4.389,4.4217,4.4317,4.384,4.5246,4.7154,4.9439,5.185,5.4637,5.7851,5.9156,6.0286,6.1291,6.1291,6.1466,6.1768,6.1466,6.119,6.0939,6.0864,6.0814,6.0864,6.1743,6.1969,6.1692,6.237,6.227,6.1692,6.2019,6.1768,6.109,6.0186,5.8328,5.5801,5.3179,4.9689,0.0,0.0,4.1902,3.9922,4.0098,4.0156,3.998,3.9101,3.8105,0.0,3.6387,3.6523,0.0,0.0,3.8984,4.0019,4.1426,4.2148,4.2695,4.3281,4.4629,4.5687,4.5858,4.8088,5.0106,0.0,4.8119,4.599,4.5677,4.1435,3.7754,3.649,3.6299,3.6273,3.6153,3.6246,3.634,3.6393,3.6353,3.6393,3.658,3.6433,3.6273,3.6139,3.6139,3.6006,3.5712,3.5538,3.5444,3.5444,3.4977,3.4763,3.475,3.4336,3.4042,3.3868,3.3547,3.3414,3.34,3.328,3.3053,3.2772,3.2478,3.2185,3.1851,3.1263,3.1049,3.0915,0.0,0.0,0.0,0.0,0.0,0.0,0.0,0.0,0.0,0.0,4.3664,4.4242,4.384,4.394,4.3915,4.3614,4.4895,4.6828,4.9414,5.2553,5.5691,5.878,6.0362,6.1592,6.2446,6.2471,6.2747,6.3274,6.2873,6.2697,6.2672,6.227,6.2094,6.2119,6.2923,6.3048,6.2747,6.355,6.335,6.2496,6.2898,6.232,6.104,5.9759,5.74,5.4642,5.2574,4.892,4.4725,4.2921,4.0881,3.9082,3.9551,3.9707,3.9551,3.8809,3.7969,3.7109,3.6309,0.0,0.0,3.9258,4.0898,4.2617,4.3711,4.4726,4.5605,4.6152,4.7441,4.8789,4.9863,5.0996,5.2168,5.3359,5.0248,4.7125,4.6175,4.2635,3.9358,3.727,3.7041,3.7096,3.7179,3.6788,3.662,3.6901,3.6834,3.6794,3.6941,3.6834,3.6687,3.6513,3.65,3.6366,3.6072,3.5778,3.5631,3.5618,3.5124,3.4883,3.487,3.4496,3.4108,3.3748,3.3507,3.3414,3.3414,3.3414,3.324,3.2946,3.2652,3.2372,3.2038,3.153,3.1289,3.1116,0.0,0.0,0.0,0.0,0.0,0.0,0.0,0.0,0.0,0.0,0.0,0.0,0.0,4.4267,4.4166,4.3087,4.502,4.723,4.9439,5.2176,5.544,5.9307,6.0563,6.1943,6.3601,6.3651,6.3902,6.4404,6.4404,6.4379,6.4379,6.4379,6.4354,6.4354,6.4404,6.4404,6.4404,6.4429,6.4128,6.3651,6.3651,6.2672,6.1014,5.9357,5.5732,5.1249,5.0215,4.6552,4.2253,4.1229,3.9065,3.7051,3.8711,3.9219,0.0,3.8691,3.7969,3.7383,3.7754,0.0,3.957,4.1269,4.2676,4.4101,4.582,4.7187,4.834,4.9219,5.0098,5.084,5.1289,5.209,5.2969,5.3867,5.415,5.2477,4.6902,4.7529,4.6354,4.0063,3.8811,3.856,0.0,3.747,3.662,3.6901,3.7195,3.7235,3.6941,3.7195,3.7088,3.6513,3.65,3.6366,3.6072,3.5778,3.5631,3.5631,3.5324,3.5177,3.5164,3.4576,3.3988,3.3427,3.3414,3.3414,3.3414,3.3414,3.324,3.2946,3.2652,3.2372,3.2064,3.177,3.1476,3.1142,0.0,0.0,0.0,0.0,0.0,0.0,0.0,0.0,0.0,0.0,0.0,0.0,0.0,0.0,0.0,0.0,4.4342,4.6125,4.8335,5.1423,5.4411,5.7198,5.9809,6.1617,6.2546,6.2923,6.355,6.4454,6.4128,6.4128,6.4454,6.4454,6.4454,6.4479,6.4856,6.4806,6.4479,6.4856,6.4505,6.3626,6.2873,6.2019,6.0705,5.6682,5.2865,4.9125,0.0,4.1771,3.9369,3.7463,3.6321,3.5918,3.6504,3.707,3.7441,3.7012,3.748,3.8184,3.832,4.0234,4.2539,4.4004,4.5762,4.75,4.8965,4.9844,5.0351,5.0371,5.0156,5.0098,5.0527,5.084,5.1582,5.3301,5.2436,5.0425,4.7307,4.5476,4.2996,3.9375,3.7586,0.0,0.0,0.0,3.6206,3.6901,3.7195,3.7422,3.7515,3.7595,3.7569,3.7382,3.7195,3.6941,3.6647,3.6166,3.5819,3.5631,3.5338,3.5191,3.5177,3.4589,3.4202,3.3988,3.3587,3.3414,3.3414,3.3414,3.336,3.324,3.2946,3.2772,3.2625,3.2131,3.1891,3.1717,0.0,0.0,0.0,0.0,0.0,0.0,0.0,0.0,0.0,0.0,0.0,0.0,0.0,0.0,0.0,0.0,0.0,4.5095,4.6928,4.9439,5.1925,5.4336,5.6872,5.8679,5.9608,5.9985,6.0814,6.2119,6.1994,6.2395,6.3299,6.35,6.3802,6.4203,6.4555,6.463,6.4454,6.4429,6.3676,6.2345,6.0839,5.9098,5.6919,5.2477,4.8567,0.0,4.0515,3.7921,3.6383,3.4882,3.4668,3.498,3.5293,3.5879,3.6465,3.6641,3.793,3.9414,4.0019,4.2695,4.5586,4.6758,4.8535,5.0273,5.1269,5.1582,5.1465,5.0723,4.9766,4.9101,4.9219,4.8887,4.9375,5.1836,5.0858,4.8862,4.6739,4.5776,4.3479,3.9539,3.8088,3.7637,0.0,0.0,0.0,3.654,3.7088,3.7462,3.7635,3.7742,3.7782,3.7676,3.7382,3.7128,3.6941,3.6473,3.6032,3.5631,3.5338,3.5137,3.503,3.4536,3.4269,3.4135,3.3627,3.3414,3.3414,3.3414,3.3414,3.3387,3.3093,3.2973,3.2906,3.2318,3.2104,3.2011,0.0,0.0,0.0,0.0,0.0,0.0,0.0,0.0,0.0,0.0,0.0,0.0,0.0,0.0,0.0,0.0,0.0,0.0,4.5321,4.6476,4.8284,5.0946,5.2201,5.3582,5.5189,5.5239,5.6068,5.7725,5.8252,5.9332,6.0889,6.1441,6.2295,6.3299,6.3299,6.3576,6.3977,6.2898,6.1517,5.9679,5.75,5.4104,5.0026,4.717,4.3225,3.8912,3.7192,3.5289,3.3496,3.3906,3.4062,3.4258,3.5098,3.5684,3.6348,3.7637,3.9297,4.1094,4.2832,4.5801,4.8613,4.9492,5.0976,5.2305,5.2656,5.2402,5.1699,5.0332,4.8945,4.7832,0.0,0.0,4.6582,4.9402,4.9675,4.8544,4.5656,4.8213,4.7689,0.0,0.0,0.0,0.0,0.0,0.0,3.6006,3.6874,3.7382,3.7448,3.7702,3.7742,3.7448,3.7155,3.6981,3.6967,3.662,3.6179,3.5631,3.5338,3.5057,3.4776,3.4469,3.4162,3.3895,3.3561,3.3414,3.3414,3.3414,3.3414,3.3387,3.3106,3.3,3.2933,3.2358,3.2144,3.2038,0.0,0.0,0.0,0.0,0.0,0.0,0.0,0.0,0.0,0.0,0.0,0.0,0.0,0.0,0.0,0.0,0.0,0.0,4.4192,4.5673,4.7029,4.8134,5.0444,5.2101,5.2929,5.3331,5.416,5.5415,5.5566,5.6043,5.6872,5.7424,5.7851,5.8127,5.8127,5.8202,5.8278,5.7575,5.6179,5.4156,5.2257,4.9888,4.7166,4.3752,4.1125,3.8735,3.6557,3.4724,3.3437,3.3555,3.4004,3.459,3.4805,3.584,3.7285,3.8926,4.1308,4.3848,4.5879,4.8711,5.1308,5.2168,5.3203,5.3867,5.332,5.2617,5.1348,4.8769,4.6426,4.4433,0.0,0.0,0.0,4.5427,4.7571,0.0,4.4189,4.4318,0.0,4.0699,0.0,3.8127,3.8825,3.6872,0.0,0.0,3.6727,3.7195,3.833,3.8464,3.8464,3.8397,3.7849,3.7489,3.7275,3.6326,3.5778,3.5631,3.5338,3.5151,3.507,3.4549,3.4282,3.4175,3.3641,3.3414,3.3414,3.3414,3.3414,3.34,3.3334,3.3293,3.3253,3.2893,3.2612,3.2385,0.0,0.0,0.0,0.0,0.0,0.0,0.0,0.0,0.0,0.0,0.0,0.0,0.0,0.0,0.0,0.0,0.0,0.0,0.0,4.4317,4.5095,4.5648,4.7179,4.8259,4.8812,4.9113,4.9941,5.1297,5.1297,5.195,5.3206,5.3532,5.3934,5.4411,5.4411,5.4085,5.3636,5.2872,5.1216,0.0,0.0,4.4681,4.2303,3.9751,3.7921,3.6439,3.4764,3.4141,0.0,0.0,0.0,3.5976,3.6738,3.8164,3.9922,4.1875,4.4297,4.6816,4.8965,5.1621,5.3926,5.4609,5.4726,5.4297,5.2851,5.1269,4.9141,4.5742,4.3281,0.0,4.0,4.1367,4.2563,0.0,0.0,0.0,4.4869,4.4112,4.314,0.0,3.9957,0.0,3.875,3.7456,3.6874,0.0,3.7128,3.7382,3.8477,3.8504,3.8504,3.8504,3.7929,3.7422,3.7021,3.6219,3.5765,3.5631,3.5338,3.5191,3.5177,3.4589,3.4322,3.4282,3.3681,3.3414,3.3414,3.3414,3.3414,3.3414,3.3414,3.3414,3.336,3.2946,3.2692,3.2478,0.0,0.0,0.0,0.0,0.0,0.0,0.0,0.0,0.0,0.0,0.0,0.0,0.0,0.0,0.0,0.0,0.0,0.0,0.0,0.0,4.3187,4.3664,4.3689,4.3915,4.4392,4.4392,4.5121,4.6577,4.6652,4.7657,4.954,4.9615,5.0037,5.083,5.0964,5.0358,4.8982,4.8188,4.6271,4.3534,4.1601,3.9231,3.6813,0.0,0.0,3.3281,3.2871,0.0,0.0,0.0,3.7051,3.8203,3.9941,4.166,4.3476,4.5762,4.7793,4.9766,5.1992,5.4316,5.6191,5.6582,5.5664,5.4062,5.1719,4.9141,4.6133,4.2187,0.0,3.8516,3.7656,3.9062,4.0407,4.0535,0.0,4.5421,4.6606,4.5406,4.4411,4.4125,4.2364,4.0415,3.8906,3.8434,3.8262,3.833,3.8357,3.8262,3.829,3.833,3.829,3.8183,3.7676,3.7128,3.658,3.6233,3.5939,3.5685,3.5351,3.5191,3.5177,3.4589,3.4322,3.4282,3.3681,3.3414,3.3414,3.3414,3.3414,3.3414,3.3414,3.3414,3.3347,3.2839,3.2612,3.2478,0.0,0.0,0.0,0.0,0.0,0.0,0.0,0.0,0.0,0.0,4.2168,4.1533,0.0,0.0,0.0,0.0,0.0,0.0,0.0,0.0,0.0,4.3112,4.3112,4.3162,4.3263,4.3263,4.3413,4.3689,4.4166,4.4568,4.4945,4.5422,4.4981,4.4036,4.53,4.4305,4.18,4.2485,4.0861,3.8038,3.7185,3.5707,3.412,3.3836,0.0,0.0,0.0,0.0,0.0,0.0,3.9414,4.1328,4.3066,4.4785,4.6719,4.959,5.0957,5.207,5.459,5.6113,5.7012,5.709,5.5879,5.3828,5.0605,4.7578,0.0,0.0,3.7773,3.6309,3.543,3.7539,3.9815,4.0976,4.3785,4.6618,4.8032,4.5749,4.4902,0.0,4.3342,4.0839,4.2919,4.2856,0.0,0.0,4.1387,4.1475,3.8869,3.8651,3.8397,3.7916,3.7569,3.7195,3.6861,3.634,3.6046,3.5992,3.5458,3.5191,3.5177,3.4589,3.4322,3.4282,3.3681,3.3414,3.3414,3.3414,3.3414,3.3414,3.3414,3.3414,3.34,3.3293,3.2959,3.2532,0.0,0.0,0.0,0.0,0.0,0.0,0.0,4.0366,4.0588,4.3762,4.2671,4.2031,4.3325,4.3162,4.2986,0.0,0.0,0.0,0.0,0.0,0.0,0.0,4.2986,4.2625,4.1785,4.1785,4.145,4.088,0.0,4.1837,4.1377,4.2195,4.1705,4.0144,4.0976,4.0002,3.7797,3.8287,3.7105,3.4936,3.4713,3.4133,3.3418,0.0,0.0,0.0,0.0,0.0,0.0,0.0,3.9883,4.3496,4.5449,4.7539,4.9687,5.1816,5.3066,5.4219,5.6367,5.7578,5.8183,5.7969,5.5762,5.2637,4.873,0.0,0.0,0.0,3.5215,3.4219,3.3789,3.6172,3.8326,3.8447,4.1161,4.4553,4.8548,4.6062,4.5933,5.1395,4.7786,4.4916,0.0,4.4532,4.3225,3.9864,4.084,4.0769,3.8731,3.8718,3.8504,3.8076,3.7742,3.7382,3.6941,3.6366,3.5992,3.5832,3.5404,3.5191,3.5177,3.4589,3.4322,3.4282,3.3681,3.3414,3.3414,3.3414,3.3414,3.3414,3.3414,3.3414,3.3387,3.324,3.2919,3.2519,0.0,0.0,0.0,0.0,0.0,0.0,0.0,4.0379,4.0453,4.3378,4.2664,4.2257,4.3301,4.3137,4.2849,0.0,0.0,0.0,0.0,0.0,0.0,0.0,0.0,0.0,0.0,0.0,0.0,3.8806,3.9731,0.0,0.0,0.0,0.0,0.0,3.8104,3.7144,3.5335,3.5683,3.486,0.0,0.0,3.3418,0.0,0.0,0.0,0.0,0.0,0.0,0.0,0.0,3.9141,4.3398,4.5644,4.8808,5.1914,5.3027,5.4414,5.5937,5.7558,5.8594,5.9023,5.8418,5.5312,5.1289,4.6894,4.2637,0.0,3.4707,3.332,3.2832,3.291,3.4941,3.6713,0.0,3.9246,4.3018,4.9293,4.7321,4.7817,0.0,5.2072,0.0,4.7244,4.6475,0.0,4.2038,4.1436,4.0577,3.8731,3.8651,3.8504,3.8263,3.7929,3.7489,3.7048,3.6393,3.5952,3.5725,3.5364,3.5191,3.5177,3.4656,3.4376,3.4295,3.3748,3.3467,3.3414,3.3414,3.3414,3.3414,3.3414,3.3414,3.3387,3.316,3.2853,3.2505,0.0,0.0,0.0,0.0,0.0,0.0,0.0,3.878,3.8828,4.1031,4.0874,4.092,4.2018,4.2627,4.2375,0.0,0.0,0.0,0.0,0.0,0.0,0.0,0.0,0.0,0.0,0.0,0.0,3.8291,3.8365,0.0,0.0,0.0,0.0,0.0,0.0,3.6539,3.365,3.5211,0.0,0.0,0.0,0.0,0.0,0.0,0.0,0.0,0.0,0.0,0.0,0.0,0.0,3.8965,4.1523,4.7051,5.2695,5.3203,0.0,0.0,5.8125,5.8828,5.8887,5.7637,5.4414,5.0332,4.5644,0.0,3.7715,3.4199,3.3105,3.291,3.3301,3.3906,0.0,0.0,0.0,4.5125,5.1502,5.0638,5.1599,5.734,0.0,0.0,5.3292,5.0911,4.8718,4.79,4.722,4.4382,3.8963,3.8437,3.829,3.8263,3.7716,3.7382,3.7342,3.6513,3.6059,3.6019,3.5458,3.5191,3.5191,3.487,3.4576,3.4295,3.3975,3.3681,3.3414,3.3414,3.3414,3.3414,3.3414,3.3414,3.3414,3.3387,3.3026,3.2519,0.0,0.0,0.0,0.0,0.0,0.0,4.0955,3.9974,3.98,4.1839,4.1183,4.0603,4.0897,4.0429,3.9985,3.9712,0.0,0.0,0.0,0.0,0.0,0.0,0.0,0.0,0.0,0.0,3.5976,3.4941,3.6167,0.0,0.0,0.0,0.0,0.0,0.0,3.4632,3.3418,3.4133,0.0,0.0,0.0,0.0,0.0,0.0,0.0,0.0,0.0,0.0,3.1699,3.291,0.0,0.0,3.707,4.1289,0.0,0.0,5.2773,5.4883,5.7734,5.8828,5.8887,5.7539,5.373,4.9258,4.5293,0.0,3.6601,3.3652,3.2715,3.2383,3.2285,3.2422,3.3516,0.0,0.0,0.0,4.6074,4.6457,4.8519,5.4617,5.381,0.0,0.0,0.0,4.8667,4.6027,4.556,4.4096,4.1647,4.1289,4.0246,3.8263,3.7849,3.7555,3.7382,3.6513,3.6072,3.6059,3.5471,3.5191,3.5191,3.4897,3.4603,3.4309,3.4015,3.3708,3.3414,3.3414,3.3414,3.3414,3.3414,3.3414,3.3414,3.3414,3.304,3.2532,0.0,0.0,0.0,0.0,0.0,3.9283,3.9826,3.9148,3.9003,4.0344,3.9944,3.9462,3.9314,3.8033,3.7272,3.7701,3.6588,0.0,0.0,0.0,0.0,0.0,0.0,0.0,0.0,0.0,3.4328,3.2988,3.4346,3.4487,0.0,0.0,3.4487,3.3418,0.0,0.0,0.0,0.0,0.0,0.0,0.0,0.0,0.0,0.0,0.0,0.0,0.0,0.0,0.0,0.0,0.0,0.0,0.0,0.0,0.0,0.0,5.0098,5.3066,5.6465,5.8262,5.8789,5.7226,5.3144,4.8555,0.0,0.0,3.5976,3.3496,3.2559,3.207,3.1758,3.1504,3.1992,3.4004,3.4746,3.6953,4.2324,4.3769,4.6308,5.1777,0.0,5.3801,5.4578,5.2394,4.9212,4.5672,4.5757,4.5264,4.3579,4.4049,4.2509,3.8506,3.7969,3.7676,3.7382,3.6513,3.6072,3.6059,3.5471,3.5191,3.5191,3.4977,3.4736,3.4429,3.4135,3.3841,3.3547,3.3454,3.3414,3.3414,3.3414,3.3414,3.3414,3.3414,3.304,3.2532,0.0,0.0,0.0,0.0,0.0,0.0,3.4763,3.5118,3.5417,3.4831,3.6336,3.7191,3.6957,3.5575,3.4698,3.4442,3.4022,0.0,0.0,0.0,0.0,0.0,0.0,0.0,0.0,0.0,3.3008,3.3418,3.3418,3.3418,3.3418,3.3418,3.3418,3.3418,0.0,0.0,0.0,0.0,0.0,0.0,0.0,0.0,0.0,0.0,0.0,0.0,0.0,0.0,0.0,0.0,0.0,0.0,0.0,0.0,0.0,0.0,4.709,5.1933,5.4121,5.6894,5.8652,5.6484,5.2715,4.8398,0.0,3.9766,3.6055,3.3867,3.2754,3.2168,3.2168,3.1465,3.1465,3.3164,3.4883,3.7656,4.2422,4.457,4.6797,4.9844,5.0586,5.1875,5.4473,5.3941,5.1985,4.8463,5.0563,4.9608,4.4109,4.595,4.447,3.8479,3.7969,3.7676,3.7382,3.6513,3.6072,3.6059,3.5471,3.5191,3.5191,3.5191,3.503,3.4736,3.4442,3.4148,3.3855,3.3547,3.3414,3.3414,3.3414,3.3414,3.3414,3.3414,3.304,3.2519,0.0,0.0,0.0,0.0,0.0,0.0,0.0,3.4795,3.4497,3.4944,3.4592,3.4358,3.4532,3.3656,3.2975,3.2855,3.2175,0.0,0.0,0.0,0.0,0.0,0.0,0.0,0.0,0.0,3.3281,3.3418,3.3711,3.4023,3.4277,3.4004,3.3867,3.3848,3.3555,3.3418,0.0,0.0,0.0,0.0,0.0,0.0,3.332,0.0,0.0,0.0,0.0,0.0,0.0,0.0,0.0,0.0,0.0,0.0,0.0,3.6914,4.1582,4.6191,4.8359,5.0508,5.1621,4.9453,4.6777,4.3926,4.1074,3.7773,3.4805,3.2949,3.2109,3.1641,3.1348,3.1074,3.1738,3.4355,3.5469,3.7051,4.0019,4.3203,4.625,4.8984,5.3574,5.5955,5.4671,5.2073,4.9803,4.8568,4.7106,4.5272,4.3579,4.4064,4.2391,3.821,3.7676,3.7382,3.7088,3.6393,3.6072,3.6059,3.5471,3.5191,3.5191,3.5191,3.4923,3.4456,3.4362,3.4028,3.3547,3.3454,3.3414,3.3414,3.3414,3.3414,3.3414,3.3414,3.304,3.2532,0.0,0.0,0.0,0.0,0.0,0.0,0.0,3.3434,3.3064,3.3735,3.2893,3.2539,3.3125,3.2285,3.1816,3.2148,3.1523,0.0,0.0,0.0,0.0,0.0,0.0,0.0,3.3027,3.3281,3.3954,3.5012,3.5295,3.5895,3.6929,3.5875,3.5208,3.5027,3.3847,3.3418,0.0,0.0,0.0,0.0,0.0,0.0,3.2871,0.0,0.0,0.0,0.0,0.0,0.0,0.0,0.0,0.0,0.0,0.0,0.0,0.0,3.7031,4.043,4.3906,4.6445,4.7695,4.5879,4.3789,0.0,3.9453,3.6621,3.4062,3.2695,3.1934,3.1445,3.1172,3.0996,3.1562,3.3594,3.4687,3.6152,0.0,0.0,0.0,4.9219,5.4277,5.6731,5.4519,5.2156,4.9978,4.8337,4.6139,4.3792,4.1474,4.2223,4.1253,3.7649,3.7595,3.7342,3.6941,3.6366,3.6072,3.6059,3.5471,3.5191,3.5191,3.5084,3.483,3.4469,3.4255,3.3948,0.0,3.3467,3.3414,3.3414,3.3414,3.3414,3.3414,3.3414,3.3106,3.2706,0.0,0.0,0.0,0.0,0.0,0.0,0.0,3.123,3.1465,3.1465,3.1465,3.1777,3.2578,3.1601,3.123,3.2051,0.0,0.0,0.0,0.0,0.0,0.0,0.0,0.0,3.3418,3.3418,3.4679,3.7276,3.7318,3.8315,4.0271,3.8293,3.6981,3.6415,3.4352,3.3418,0.0,0.0,0.0,0.0,0.0,0.0,0.0,0.0,0.0,0.0,0.0,0.0,0.0,0.0,0.0,0.0,0.0,0.0,0.0,0.0,0.0,0.0,0.0,4.3867,4.5762,4.4512,4.2695,4.0684,0.0,0.0,0.0,3.2871,3.2051,3.1484,3.1562,3.1191,3.1094,3.1699,3.3184,3.5273,0.0,4.1816,0.0,0.0,5.3457,5.4785,5.4258,5.352,5.1603,4.7982,4.7214,4.4393,3.8722,4.0659,4.0567,3.7395,3.7635,3.7489,3.6901,3.6353,3.6059,3.6032,3.5471,3.5191,3.5151,3.4883,3.4736,3.467,3.4122,3.3868,3.3828,3.3534,3.3414,3.3414,3.3414,3.3414,3.3414,3.3414,3.3227,3.2959,0.0,0.0,0.0,0.0,0.0,0.0,0.0,0.0,0.0,0.0,3.1035,3.1113,3.1309,3.1074,3.1113,0.0,0.0,0.0,0.0,0.0,0.0,0.0,0.0,0.0,3.3418,3.3418,3.3926,3.4843,3.5162,3.5821,3.6638,3.5801,3.5281,3.5142,3.3877,3.3418,0.0,0.0,0.0,0.0,0.0,0.0,0.0,0.0,0.0,0.0,3.1523,3.1738,0.0,0.0,0.0,0.0,0.0,0.0,0.0,0.0,3.3027,3.3047,3.5,0.0,3.7344,3.6387,3.5762,3.5254,0.0,0.0,0.0,0.0,0.0,3.123,3.1894,3.1406,3.168,3.4101,3.5371,3.6758,3.8769,0.0,0.0,5.4707,5.6953,5.7558,5.6133,5.2393,4.9458,4.8331,4.3564,4.0143,3.8493,3.8855,3.857,3.7382,3.7448,3.7195,3.662,3.6259,3.5952,3.5725,3.5364,3.5084,3.487,3.479,3.4523,3.4082,3.3948,3.3748,3.3521,3.344,3.3414,3.3414,3.3414,3.3414,3.3414,3.3414,3.3227,3.2973,0.0,0.0,0.0,0.0,0.0,0.0,0.0,0.0,0.0,0.0,0.0,3.0898,3.0898,3.0898,0.0,0.0,0.0,0.0,0.0,0.0,0.0,0.0,0.0,3.3184,3.3418,3.3418,3.4092,3.5605,3.5828,3.6664,3.8068,3.6643,3.5949,3.578,3.4171,3.332,0.0,0.0,0.0,0.0,3.2305,0.0,0.0,0.0,0.0,0.0,3.1445,3.168,0.0,3.2578,3.2949,3.3144,0.0,0.0,0.0,0.0,3.2539,3.2051,3.291,3.375,3.4297,3.3828,3.3711,3.3672,3.3476,0.0,0.0,0.0,0.0,0.0,3.1504,3.1367,3.1836,3.3867,3.5254,0.0,0.0,0.0,5.1777,5.6074,5.7422,5.7317,5.5412,5.2584,4.9634,4.6171,4.2621,4.0143,3.8493,3.8116,3.8515,3.9335,3.789,3.6981,3.65,3.6219,3.5925,3.5631,3.5204,3.491,3.475,3.4482,3.4189,3.3881,3.3734,3.3574,3.3414,3.3414,3.3414,3.3414,3.3414,3.3414,3.3414,3.3414,3.3307,3.3173,0.0,0.0,0.0,0.0,0.0,0.0,0.0,0.0,0.0,0.0,0.0,0.0,0.0,0.0,0.0,0.0,0.0,0.0,0.0,0.0,0.0,0.0,3.3203,3.3418,3.3418,3.3418,3.4512,3.6875,3.7168,3.8274,4.036,3.8316,3.7082,3.658,3.4286,3.3086,0.0,0.0,0.0,0.0,3.1543,0.0,0.0,0.0,0.0,0.0,0.0,0.0,0.0,3.2441,3.2695,3.2695,3.2695,0.0,0.0,0.0,0.0,0.0,3.2793,3.3711,3.4297,3.3965,3.3828,3.3691,3.332,0.0,0.0,0.0,0.0,0.0,0.0,3.1562,0.0,0.0,0.0,0.0,4.6172,4.9082,5.1992,5.6094,5.6699,5.5835,5.3327,5.2842,4.9931,4.3611,4.2672,4.1174,3.8358,3.7889,3.8917,4.1427,3.894,3.7359,3.7074,3.6409,3.5899,3.5551,3.5057,3.4776,3.4683,3.4175,3.3895,3.3801,3.3534,3.3414,3.3414,3.3414,3.3414,3.3414,3.3414,3.3414,3.3414,3.3414,3.3414,3.34,0.0,0.0,0.0,0.0,0.0,0.0,0.0,0.0,0.0,0.0,0.0,0.0,0.0,0.0,0.0,0.0,0.0,0.0,0.0,0.0,0.0,3.2812,3.3203,3.3418,3.3418,3.3418,3.3603,3.3974,3.5475,3.6222,3.625,3.6618,3.5771,3.3954,3.323,3.2656,3.2266,3.2266,0.0,0.0,3.166,0.0,0.0,0.0,0.0,0.0,0.0,0.0,0.0,3.209,3.2266,3.2266,3.2266,0.0,0.0,0.0,0.0,0.0,3.3887,3.5039,3.5293,3.3437,3.2715,3.2441,3.2383,0.0,0.0,0.0,0.0,0.0,0.0,3.3086,3.3887,0.0,0.0,4.3652,5.0273,5.1543,5.2988,5.6211,5.7226,5.6008,5.1639,4.9947,4.7316,4.3053,4.0548,3.8532,3.7529,3.7489,3.8612,4.1303,4.0557,4.0017,3.9693,3.7353,3.5805,3.5257,3.5177,3.487,3.4389,3.4295,3.3975,3.348,3.3427,3.3414,3.3414,3.3414,3.3414,3.3414,3.3414,3.3414,3.3414,3.3414,3.3414,3.336,0.0,0.0,0.0,0.0,0.0,0.0,0.0,0.0,0.0,0.0,0.0,0.0,0.0,0.0,0.0,0.0,0.0,0.0,0.0,0.0,3.2871,3.3125,3.3105,3.3086,3.3086,3.3769,3.4238,3.4492,3.5762,3.6504,3.6758,3.6465,3.5156,3.3066,3.2871,3.2441,3.1816,3.1816,3.168,3.1465,0.0,0.0,0.0,0.0,0.0,0.0,0.0,0.0,0.0,0.0,3.1816,3.1816,3.1816,0.0,0.0,0.0,0.0,0.0,3.3281,3.3965,3.4258,3.4219,3.4394,3.4297,3.3105,0.0,0.0,0.0,0.0,0.0,0.0,0.0,3.6816,4.082,0.0,4.7207,5.0879,5.1797,5.3027,5.5586,5.625,5.4655,4.9891,4.8786,4.6076,4.0747,3.9166,3.8076,3.7635,3.8974,4.0973,4.3626,4.1836,4.1408,4.253,3.8198,3.5618,3.5191,3.5044,3.4736,3.4322,3.4162,3.3841,3.3414,3.3414,3.3414,3.3414,3.3414,3.3414,3.3414,3.3414,3.3414,3.3387,3.324,3.328,3.332,0.0,0.0,0.0,0.0,0.0,0.0,0.0,0.0,0.0,0.0,0.0,0.0,0.0,0.0,0.0,0.0,0.0,0.0,0.0,3.2519,3.2422,3.2949,3.2949,3.3086,3.3398,3.4453,3.5332,3.5996,3.6953,3.7598,3.7891,3.6523,3.4766,3.2793,3.2578,3.207,3.1367,3.1367,3.1191,3.0898,0.0,0.0,0.0,0.0,0.0,0.0,0.0,0.0,0.0,0.0,0.0,0.0,0.0,0.0,0.0,3.1484,3.1523,3.1719,3.2676,3.3086,3.3555,3.4902,0.0,3.5664,3.4687,0.0,0.0,0.0,0.0,0.0,0.0,3.7383,0.0,4.4766,4.7812,5.0176,5.1641,5.2422,5.3555,5.5527,5.5664,5.3522,4.8529,4.7957,4.5194,3.8519,3.8036,3.7929,3.7635,4.015,4.2759,4.5531,4.2949,4.2461,4.4483,3.9178,3.6027,3.5191,3.4897,3.4603,3.4309,3.4015,3.3708,3.3414,3.3414,3.3414,3.3414,3.3414,3.3414,3.3414,3.3414,3.3414,3.3374,3.3053,3.3146,3.3293,0.0,0.0,0.0,0.0,0.0,0.0,0.0,0.0,0.0,0.0,0.0,0.0,0.0,0.0,0.0,0.0,0.0,0.0,0.0,3.2207,3.2012,3.166,3.2754,3.3945,3.5176,3.5684,3.6523,3.7734,3.9043,3.9062,3.7891,3.6211,3.4492,3.2754,3.1973,3.1367,3.0937,3.0937,3.0918,3.0898,3.0898,0.0,0.0,0.0,0.0,0.0,0.0,0.0,0.0,0.0,0.0,0.0,0.0,0.0,3.1016,3.1406,3.1523,3.1797,3.3027,3.3965,3.459,3.4726,3.4199,0.0,3.6992,3.666,0.0,0.0,0.0,0.0,0.0,4.1094,4.4531,4.6465,4.9648,5.2598,5.4687,5.5039,5.5566,5.6914,5.6738,5.4149,4.7859,4.7214,4.4458,3.7924,3.7448,3.7315,3.7008,3.9284,4.2065,4.4791,4.4101,4.3723,4.4101,4.0692,3.7667,3.5191,3.4897,3.4603,3.4309,3.4015,3.3708,3.3414,3.3414,3.3414,3.3414,3.3414,3.3414,3.3414,3.3414,3.3414,3.336,3.2986,3.308,3.3293,0.0,0.0,0.0,0.0,0.0,0.0,0.0,0.0,0.0,0.0,0.0,0.0,0.0,0.0,0.0,0.0,0.0,0.0,0.0,3.166,3.1543,3.1914,3.2383,3.3242,3.4551,3.6562,3.8242,3.9551,3.9785,3.8945,3.7109,3.5644,3.3906,3.1992,3.166,3.1289,3.0898,3.0898,3.0898,3.0898,3.0898,3.0898,0.0,0.0,0.0,0.0,0.0,0.0,0.0,0.0,3.0898,3.0957,3.1387,3.1406,3.1309,3.1465,3.1523,3.1621,3.2109,3.3242,3.4453,3.5,0.0,0.0,0.0,0.0,0.0,0.0,0.0,0.0,0.0,0.0,4.6621,4.8633,5.1621,5.416,5.5508,5.5937,5.6289,5.6758,5.668,5.4186,4.7809,4.7115,4.4411,3.7856,3.7195,3.7631,3.9024,4.1652,4.4172,4.7095,4.4951,4.3747,4.372,3.8929,3.5844,3.4656,3.4723,3.4509,3.4042,3.3935,3.3708,3.3414,3.3414,3.3414,3.3414,3.3414,3.3414,3.3414,3.3414,3.3414,3.3347,3.2839,3.2973,3.3267,0.0,0.0,0.0,0.0,0.0,0.0,0.0,0.0,0.0,0.0,0.0,0.0,0.0,0.0,0.0,0.0,0.0,0.0,3.1719,3.1211,3.1152,3.1738,3.2031,3.2773,3.4043,3.7031,3.9082,4.0098,3.9824,3.8516,3.625,3.5059,3.3496,3.1719,3.1582,3.1367,3.1074,3.0937,3.0898,3.0898,3.0898,3.0898,0.0,0.0,0.0,0.0,0.0,0.0,0.0,0.0,3.0898,3.0957,3.1387,3.1426,3.1348,3.1484,3.1426,3.1328,3.1328,3.2168,3.3379,0.0,0.0,0.0,0.0,0.0,0.0,0.0,4.3711,0.0,0.0,0.0,0.0,4.9824,5.2598,5.4863,5.5976,5.6269,5.6426,5.6562,5.6465,5.398,4.7625,4.6835,4.4067,3.76,3.6901,3.7948,4.0386,4.2755,4.5002,4.674,4.4734,4.3148,4.198,3.7137,3.4469,3.4189,3.4389,3.4282,3.3881,3.3788,3.3614,3.3414,3.3414,3.3414,3.3414,3.3414,3.3414,3.3414,3.3414,3.3414,3.332,3.2545,3.2519,3.2746,0.0,0.0,0.0,0.0,0.0,0.0,0.0,0.0,0.0,0.0,0.0,0.0,0.0,0.0,0.0,0.0,0.0,0.0,3.0898,3.0898,3.0898,3.0898,3.1719,3.2754,3.4023,3.6992,3.875,3.9199,3.9199,3.7871,3.5351,3.4473,3.3379,3.2148,3.1699,3.1523,3.1484,3.1074,3.0898,3.0898,3.0898,3.0898,3.0898,0.0,0.0,0.0,0.0,0.0,0.0,0.0,3.0898,3.0957,3.1387,3.123,3.0976,3.1406,3.123,3.0898,3.0898,3.0898,0.0,0.0,0.0,0.0,0.0,0.0,0.0,4.7519,0.0,4.5058,4.5058,4.6094,0.0,4.9824,5.2344,5.4629,5.6328,5.6191,5.6094,5.6523,5.6191,5.3566,4.7491,4.624,4.3378,3.6964,3.65,3.7629,4.0029,4.2405,4.3681,4.3318,4.2972,4.1409,3.8485,3.5703,3.4162,3.3881,3.3881,3.3881,3.3868,3.3547,3.3414,3.3414,3.3414,3.3414,3.3414,3.3414,3.3414,3.3414,3.3414,3.3414,3.3267,3.2104,3.1664,3.1664,0.0,0.0,0.0,0.0,0.0,0.0,0.0,0.0,0.0,0.0,0.0,0.0,0.0,0.0,0.0,0.0,0.0,0.0,3.0898,3.0898,3.0898,3.0898,3.1426,3.1758,3.1836,3.3887,3.6504,3.9687,3.8457,3.6543,3.3984,3.3125,3.2207,3.1269,3.1445,3.1348,3.1094,3.1269,3.1328,3.1367,3.166,3.1601,3.1328,0.0,0.0,0.0,0.0,0.0,0.0,0.0,0.0,0.0,3.1387,3.1641,3.1758,3.1562,3.1641,3.166,3.1055,3.1758,0.0,0.0,0.0,0.0,0.0,4.4766,0.0,0.0,4.8359,4.7168,4.6875,4.7891,4.8965,4.9609,5.2148,5.4316,5.5137,5.539,5.5547,5.5664,5.3802,5.0741,4.6673,4.4137,4.0966,3.6732,3.6126,3.7617,4.2024,4.2693,4.374,4.5361,4.3451,4.104,3.8139,3.5396,3.3855,3.3547,3.3547,3.3547,3.3547,3.3454,3.3414,3.34,3.32,3.3227,3.3387,3.312,3.316,3.3414,3.3414,3.3414,3.3267,3.2104,3.1664,3.1664,0.0,0.0,0.0,0.0,0.0,0.0,0.0,0.0,0.0,0.0,0.0,0.0,0.0,0.0,0.0,0.0,0.0,0.0,0.0,3.0898,3.0898,3.0898,3.1133,3.1465,3.1894,3.3066,3.4883,3.7324,3.6445,3.4961,3.293,3.293,3.2461,3.168,3.2441,3.2363,3.166,3.1914,3.1836,3.1562,3.1992,3.2012,3.1758,0.0,0.0,0.0,0.0,0.0,0.0,0.0,0.0,0.0,3.1191,3.1445,3.1641,3.1543,3.1465,3.1387,3.1387,0.0,0.0,0.0,0.0,0.0,0.0,0.0,0.0,0.0,4.9766,4.8906,4.8652,4.8965,4.9551,5.041,5.2207,5.3828,5.4805,5.5,5.5117,5.5293,5.2605,4.9301,4.6256,4.3018,3.9587,3.6221,3.5658,3.7124,4.1122,4.1087,4.1615,4.2832,4.144,3.9104,3.6234,3.4473,3.3601,3.3414,3.3293,3.324,3.324,3.336,3.3347,3.3227,3.2933,3.2906,3.3053,3.2812,3.2853,3.3066,3.3066,3.2933,3.2639,3.1931,3.1664,3.1664,0.0,0.0,0.0,0.0,0.0,0.0,0.0,0.0,0.0,0.0,0.0,0.0,0.0,0.0,0.0,0.0,0.0,0.0,0.0,3.0898,3.0898,3.0898,3.0898,3.1621,3.3164,3.3574,3.3594,3.3184,3.375,3.334,3.209,3.3398,3.3555,3.2793,3.4062,3.3926,3.2734,3.2734,3.2285,3.1621,3.2051,3.2226,3.2168,3.1738,0.0,0.0,0.0,0.0,0.0,0.0,0.0,0.0,3.0898,3.0918,3.1016,3.1367,3.0918,3.0605,3.1934,0.0,0.0,0.0,0.0,0.0,0.0,0.0,5.1953,5.1465,0.0,5.0332,5.0293,4.9668,4.9805,5.1758,5.2441,5.3262,5.4844,5.4746,5.4648,5.5019,5.2024,4.8804,4.5806,4.2439,3.8903,3.5442,3.5177,3.6107,3.8283,3.8253,3.8089,3.7959,3.7944,3.6433,3.3414,3.3387,3.3374,3.3374,3.308,3.2933,3.2946,3.3213,3.3173,3.2879,3.2652,3.2532,3.2505,3.2505,3.2519,3.2532,3.2452,3.2104,3.1664,3.1664,3.1664,3.1664,0.0,0.0,0.0,0.0,0.0,0.0,0.0,0.0,0.0,0.0,0.0,0.0,0.0,0.0,0.0,0.0,0.0,0.0,0.0,3.0898,3.0898,3.0898,3.0898,3.1055,3.1426,3.1523,3.1523,3.1445,3.2871,3.2734,3.1191,3.2812,3.3105,3.2363,3.3633,3.3496,3.2305,3.2305,3.2187,3.207,3.25,3.2656,3.2617,3.2187,3.1816,0.0,0.0,0.0,0.0,0.0,0.0,0.0,3.0898,3.1113,3.1328,3.1094,3.1133,3.1504,3.2793,3.3711,0.0,0.0,4.4453,4.8183,4.9863,5.1211,5.1875,5.1094,5.1328,5.1562,5.123,5.1289,5.1543,5.2012,5.2441,5.2832,5.3223,5.3183,5.3164,5.3262,5.0586,4.7765,4.504,4.1744,3.846,3.5428,3.4977,3.5803,3.7739,3.7909,3.7745,3.7401,3.7386,3.6202,3.3414,3.3187,3.3066,3.3066,3.2772,3.2639,3.2639,3.2706,3.2572,3.2305,3.2465,3.2412,3.2198,3.2198,3.2332,3.2465,3.1704,3.1503,3.1664,3.1664,3.1664,3.1664,0.0,0.0,0.0,0.0,0.0,0.0,0.0,0.0,0.0,0.0,0.0,0.0,0.0,0.0,0.0,0.0,0.0,0.0,0.0,0.0,3.0898,3.0898,3.1074,3.1094,3.0898,3.1094,3.1094,3.0898,3.1777,3.1758,3.0918,3.2637,3.3086,3.2519,3.3809,3.3672,3.248,3.2676,3.2539,3.2226,3.2851,3.3105,3.3027,3.2402,3.2031,3.1738,3.1113,0.0,0.0,0.0,0.0,0.0,0.0,0.0,3.1211,3.1191,3.1055,3.1348,3.3457,0.0,0.0,4.2871,0.0,4.9707,5.0351,5.0859,5.1152,5.1113,5.1621,5.1953,5.1523,5.1621,5.1836,5.2051,5.2266,5.248,5.2676,5.2715,5.2715,5.2715,5.0046,4.7641,4.6198,4.3051,3.9958,3.7016,3.6308,3.6116,3.5635,3.5607,3.5522,3.5352,3.5408,3.4547,3.32,3.2919,3.2772,3.2772,3.2478,3.2265,3.2131,3.2265,3.2251,3.2104,3.2118,3.1957,3.1677,3.1677,3.1744,3.181,3.149,3.1142,3.0902,3.1463,3.1664,3.1664,0.0,0.0,0.0,0.0,0.0,0.0,0.0,0.0,0.0,0.0,0.0,0.0,0.0,0.0,0.0,0.0,0.0,0.0,0.0,0.0,0.0,3.0898,3.123,3.125,3.0898,3.123,3.123,3.0898,3.0898,3.0976,3.1152,3.2695,3.3242,3.2949,3.4082,3.3926,3.2812,3.3008,3.2734,3.2226,3.293,3.3301,3.332,3.248,3.2168,3.2051,3.1191,3.0898,3.0898,3.0898,0.0,0.0,0.0,0.0,3.0957,3.1309,3.0898,3.0918,3.373,0.0,3.959,4.5469,4.8242,0.0,5.0078,5.0176,5.0371,5.1074,5.1562,5.1797,5.1582,5.1426,5.1465,5.1894,5.1855,5.1875,5.2226,5.2266,5.2266,5.2266,4.9902,4.8053,4.7036,4.4242,4.1144,3.7835,3.7168,3.5892,3.3627,3.3414,3.3387,3.3334,3.3106,3.2959,3.2906,3.2612,3.2465,3.2465,3.2171,3.1877,3.1597,3.1837,3.1957,3.1931,3.169,3.1423,3.1156,3.1156,3.1089,3.1022,3.1343,3.0835,3.0034,3.1009,3.137,3.137,0.0,0.0,0.0,0.0,0.0,0.0,0.0,0.0,0.0,0.0,0.0,0.0,0.0,0.0,0.0,0.0,0.0,0.0,3.0898,0.0,0.0,3.0898,3.0937,3.0937,3.0898,3.0937,3.0937,3.0898,3.0898,3.1269,3.2012,3.2969,3.3398,3.3359,3.3906,3.3652,3.2754,3.207,3.1934,3.2187,3.2285,3.2773,3.332,3.248,3.2168,3.2051,3.1191,3.0898,3.0898,3.0898,3.0898,0.0,0.0,0.0,3.0898,3.0957,3.0898,3.1211,0.0,0.0,4.2578,0.0,4.8242,4.9648,0.0,0.0,5.0215,5.0312,5.0683,5.1191,5.1875,5.1387,5.1035,5.1445,5.0898,5.0449,5.0508,5.0508,5.0508,5.0508,5.0067,4.8033,4.3451,4.2575,4.0196,3.495,3.4503,3.4138,3.3427,3.3414,3.3293,3.304,3.3,3.2866,3.2612,3.2305,3.2158,3.2158,3.1864,3.157,3.1289,3.133,3.1343,3.1343,3.1303,3.1116,3.0849,3.0849,3.0742,3.0581,3.0635,3.0354,2.994,3.0087,3.0154,3.0154,0.0,0.0,0.0,0.0,0.0,0.0,0.0,0.0,0.0,0.0,0.0,0.0,0.0,0.0,0.0,3.0898,3.0898,3.0898,3.0898,3.0898,3.0898,3.0898,3.0898,3.0898,3.0898,3.0898,3.0898,3.0898,3.0898,3.1699,0.0,3.3613,3.3652,3.3437,3.3633,3.3359,3.2773,3.2402,3.2344,3.2539,3.2773,3.2949,3.3008,3.2402,3.2012,3.1719,3.1113,3.0898,3.0898,3.0898,3.0898,3.0898,3.0898,0.0,0.0,0.0,3.0703,3.1289,3.4961,3.8769,4.2617,0.0,4.7871,4.8672,4.9609,4.9609,4.959,5.0078,5.0137,5.0273,5.0898,5.0703,5.0508,5.0703,5.041,5.0176,5.0176,5.0176,5.0176,5.0176,4.8977,4.7002,4.4815,4.3045,4.0308,3.645,3.5863,3.5123,3.3414,3.3253,3.3106,3.2986,3.2666,3.2425,3.2291,3.1837,3.153,3.137,3.1236,3.1169,3.1142,3.1036,3.0982,3.0982,3.0982,3.0822,3.0555,3.0555,3.0394,3.0167,3.0167,3.0074,2.9913,2.9913,2.9913,2.9913,0.0,0.0,0.0,0.0,0.0,0.0,0.0,0.0,0.0,0.0,0.0,0.0,0.0,0.0,0.0,0.0,3.0898,3.0898,3.0898,3.0898,3.0898,3.0898,3.0898,3.0898,3.0898,3.0898,3.0898,3.0898,3.0898,0.0,3.4238,3.4238,3.4355,0.0,3.4121,3.3633,3.3105,0.0,0.0,3.2949,3.2832,3.2715,3.2578,3.2051,3.1719,3.1465,3.1035,3.0898,0.0,0.0,3.0898,3.0898,3.0898,3.0898,0.0,0.0,0.0,0.0,0.0,0.0,4.1113,4.498,4.6523,4.7441,4.873,4.8848,4.8906,4.9687,4.959,4.9453,4.9785,4.9941,5.0019,5.0019,4.9922,4.9844,4.9844,4.9844,4.9636,4.905,4.7073,4.5501,4.4129,4.1829,3.9488,3.6758,3.6269,3.5308,3.3385,3.2986,3.2839,3.2759,3.2265,3.1957,3.1877,3.137,3.1036,3.0862,3.0822,3.0795,3.0782,3.0635,3.0488,3.0354,3.0501,3.0368,3.0034,3.0074,2.9967,2.978,2.9873,2.9913,2.9913,2.9913,2.9913,2.9913,0.0,0.0,0.0,0.0,0.0,0.0,0.0,0.0,0.0,0.0,0.0,0.0,3.0898,3.0898,3.0898,3.0898,3.0898,3.0898,3.0898,3.0898,3.0898,3.0898,3.0898,0.0,3.0898,3.0898,3.0898,3.0898,0.0,0.0,3.4668,3.4668,3.5742,3.7617,3.6016,3.4805,3.3926,0.0,0.0,0.0,3.166,3.1484,3.2109,3.1269,3.1191,3.1465,3.1035,0.0,0.0,0.0,0.0,0.0,0.0,3.0898,3.0898,0.0,0.0,0.0,0.0,3.5234,0.0,4.084,4.3652,4.6113,4.7383,4.7969,4.8379,4.8828,4.8906,4.8906,4.8926,4.9277,4.957,4.957,4.9199,4.8926,4.8926,4.8926,4.8146,4.5622,4.5227,4.3123,3.8307,3.7432,3.6085,3.3408,3.2942,3.2781,3.2585,3.2572,3.2438,3.2158,3.1851,3.1557,3.1276,3.0969,3.0902,3.1062,3.0875,3.0515,2.998,2.9967,2.9659,2.9165,2.9713,2.9633,2.9125,2.9312,2.9379,2.9392,2.9766,2.9913,2.9913,2.9913,2.9913,2.9913,0.0,0.0,0.0,0.0,0.0,0.0,0.0,0.0,0.0,0.0,0.0,0.0,0.0,3.0898,3.0898,3.0898,3.0898,3.0898,3.0898,3.0898,3.0898,3.0898,3.0898,3.0898,3.0898,3.0898,3.0898,3.0898,3.0898,3.1914,3.3887,3.4453,3.5273,3.6289,3.5957,3.5312,3.4394,3.3125,0.0,0.0,0.0,0.0,0.0,0.0,0.0,0.0,0.0,0.0,0.0,0.0,0.0,0.0,0.0,0.0,0.0,0.0,0.0,0.0,0.0,0.0,3.6055,3.9492,4.1777,4.3594,4.5176,4.6504,4.7422,4.7598,4.7851,4.8047,4.8047,4.8613,4.9101,4.9101,4.8965,4.8867,4.8867,4.8867,4.7883,4.5361,4.3642,4.1139,3.7674,3.5447,3.3932,3.2973,3.2706,3.2545,3.2545,3.2185,3.1931,3.1824,3.1356,3.0969,3.0675,3.0381,3.0167,3.006,2.9793,2.9619,2.9539,2.9406,2.9032,2.8484,2.8965,2.9192,2.9232,2.9299,2.9486,2.9726,2.986,2.9446,2.8778,2.8778,2.9259,2.9913,0.0,0.0,0.0,0.0,0.0,0.0,0.0,0.0,0.0,3.0898,0.0,0.0,0.0,0.0,3.0898,3.0898,3.0898,3.0898,3.0898,3.0898,3.0898,3.0898,3.0898,3.0898,3.0898,3.0742,3.0742,3.0898,3.0742,3.1601,3.3437,3.4004,3.4746,3.5605,3.543,3.5117,0.0,0.0,0.0,3.2519,0.0,0.0,3.1699,0.0,0.0,0.0,0.0,0.0,0.0,0.0,0.0,0.0,0.0,0.0,0.0,0.0,0.0,0.0,3.207,0.0,0.0,3.7949,3.9453,4.0801,4.3535,4.4824,4.5664,4.6543,4.707,4.7402,4.7558,4.8047,4.8418,4.8418,4.8555,4.8633,4.8633,4.8769,4.764,4.4033,4.2104,3.9564,3.6007,3.3808,3.2639,3.2545,3.2265,3.2064,3.1957,3.1583,3.133,3.1236,3.0755,3.0354,3.0074,2.9766,2.9499,2.9232,2.9098,2.9005,2.8938,2.8911,2.8617,2.8163,2.843,2.8684,2.8938,2.8938,2.9085,2.9325,2.9325,2.8845,2.8136,2.8136,2.8644,2.9325,0.0,0.0,0.0,0.0,0.0,0.0,0.0,0.0,3.0898,3.0898,0.0,0.0,0.0,0.0,0.0,3.0898,3.0898,3.0898,3.0898,3.0898,3.0898,3.0898,3.0898,3.0898,3.0898,3.0449,3.043,3.0898,3.043,3.1289,3.334,3.3379,3.4297,3.5859,3.4609,3.4258,3.457,0.0,3.3379,3.3203,0.0,3.1016,3.2187,0.0,0.0,0.0,3.248,3.2012,0.0,3.0976,0.0,0.0,0.0,0.0,0.0,0.0,0.0,0.0,0.0,0.0,0.0,3.5879,3.6543,3.7773,4.2383,4.2832,4.3008,4.5605,4.6484,4.6933,4.7441,4.7519,4.7519,4.7539,4.791,4.8183,4.8183,4.8555,4.6746,4.1369,4.0768,3.8544,3.313,3.2265,3.1971,3.1677,3.1383,3.1089,3.0808,3.0768,3.0635,3.0327,3.0047,2.9753,2.9472,2.9179,2.8925,2.8738,2.8925,2.8711,2.815,2.8457,2.843,2.8136,2.8136,2.8136,2.8136,2.8136,2.8136,2.8136,2.8136,2.8136,2.8136,2.8136,2.8136,2.8136,0.0,0.0,0.0,0.0,0.0,0.0,3.0391,3.0684,3.0898,0.0,0.0,0.0,3.0898,3.0898,3.0898,3.0898,3.0898,3.0898,3.0898,3.0898,3.0898,3.0898,3.0898,3.0898,3.0898,3.0762,3.0762,3.0898,3.0762,3.0996,3.1601,3.2226,3.2773,3.3242,3.3496,3.334,3.2832,3.2285,0.0,3.2441,3.1523,3.1738,0.0,0.0,0.0,0.0,0.0,3.2715,3.3144,0.0,3.2441,3.1934,0.0,0.0,0.0,0.0,0.0,0.0,3.0742,0.0,0.0,0.0,0.0,0.0,3.6758,3.7988,3.9453,4.2051,4.293,4.3828,4.584,4.6211,4.6308,4.6601,4.7266,4.7754,4.7754,4.7851,4.5994,4.0795,4.0215,3.8198,3.2817,3.1957,3.1664,3.137,3.1076,3.0875,3.0795,3.0394,2.9927,2.9419,2.9325,2.9245,2.9165,2.8871,2.8698,2.8644,2.847,2.831,2.815,2.823,2.823,2.8136,2.8136,2.8136,2.8136,2.8136,2.8136,2.8136,2.8136,2.8136,2.8136,2.8136,2.8136,2.8136,0.0,0.0,0.0,0.0,0.0,3.0254,3.0449,3.0723,3.0898,0.0,0.0,0.0,3.0898,3.1055,3.1074,3.0898,3.0898,3.0898,3.0898,3.0898,3.0898,3.0898,3.0898,3.0898,3.0898,3.0703,3.0703,3.0898,3.0703,3.0703,3.0898,3.1406,3.1641,3.166,0.0,0.0,0.0,0.0,0.0,0.0,3.2012,0.0,0.0,3.3301,3.3535,0.0,0.0,0.0,3.459,3.4336,3.3594,0.0,0.0,0.0,0.0,0.0,0.0,0.0,0.0,0.0,0.0,0.0,0.0,0.0,3.5,3.5742,3.6836,4.0,4.1113,4.2168,4.4219,4.4726,4.5,4.543,4.5918,4.6133,4.5896,4.5811,4.4051,3.8894,3.8004,3.631,3.1948,3.1396,3.1183,3.0889,3.0595,3.0327,3.0074,2.974,2.9392,2.9045,2.8925,2.8858,2.8858,2.8564,2.8417,2.8417,2.823,2.8136,2.8136,2.8136,2.8136,2.8136,2.8136,2.8136,2.8136,2.8136,2.8136,2.8136,2.8136,2.8136,2.8136,2.8136,2.8136,2.8136,0.0,0.0,0.0,2.9902,3.0098,3.0293,3.0742,3.0859,3.0898,0.0,3.0976,3.1055,3.1094,3.1387,3.1426,3.0996,3.0918,3.0898,3.0898,3.0898,3.0898,3.0898,3.0898,3.0898,3.0898,3.0488,3.0469,3.0898,3.0469,3.0488,3.0898,3.0898,3.0898,3.0898,0.0,0.0,0.0,0.0,0.0,3.1601,3.25,3.3379,0.0,0.0,3.6191,3.5762,3.6953,3.6699,3.5781,3.5605,3.4414,0.0,0.0,0.0,0.0,0.0,3.0918,0.0,0.0,0.0,0.0,0.0,3.1758,0.0,3.4965,3.4731,3.4883,3.8205,3.9542,4.0685,4.2363,4.2826,4.3234,4.3828,4.4141,4.4164,4.3499,4.336,4.1395,3.6236,3.5242,3.3875,3.0859,3.0648,3.0528,3.0234,2.9967,2.9579,2.9018,2.8991,2.8978,2.8938,2.8684,2.8564,2.8564,2.8283,2.8136,2.8136,2.8136,2.8136,2.8136,2.8136,2.8136,2.8136,2.8136,2.8136,2.8136,2.8136,2.8136,2.8136,2.8136,2.8136,2.8136,2.8136,2.8136,2.8136,0.0,0.0,2.8574,2.9082,2.9453,2.9844,3.0273,3.0644,3.0898,3.0898,3.1484,3.2051,3.2383,3.2187,3.1875,3.1426,3.1094,3.0898,3.0898,3.0898,3.0898,3.0898,3.0898,3.0898,3.0898,3.0801,3.0801,3.0898,3.0801,3.0801,3.0898,3.0898,3.0898,3.0898,3.0898,0.0,0.0,0.0,0.0,3.1621,3.2812,3.3809,3.4687,3.5742,3.6465,3.6992,3.7598,3.8086,3.8242,3.6875,3.5488,3.4082,0.0,0.0,0.0,3.1406,0.0,0.0,0.0,0.0,0.0,0.0,3.1562,0.0,2.9981,3.1142,3.2652,3.3196,3.3391,3.4808,3.9096,3.9203,3.9043,4.0588,4.25,4.3915,4.4087,4.2864,4.0649,3.6976,3.5165,3.3129,2.9958,2.974,2.9619,2.9325,2.9245,2.9058,2.8711,2.8684,2.8577,2.8323,2.827,2.823,2.823,2.8177,2.8136,2.8136,2.8136,2.8136,2.8136,2.8136,2.8136,2.8136,2.8136,2.8136,2.8136,2.8136,2.8136,2.8136,2.8136,2.8136,2.8136,2.8136,2.8136,2.8136,0.0,0.0,2.8496,2.9141,2.9414,2.9785,3.0449,3.0742,3.1035,3.1465,3.2266,3.2793,3.2793,3.2598,3.2226,3.1582,3.1328,3.1113,3.0898,3.0898,3.0898,3.0898,3.0898,3.0898,3.0898,3.0898,3.0898,3.0898,3.0898,3.0898,3.0898,3.0898,3.0664,3.0254,3.0703,0.0,0.0,0.0,3.1016,3.1387,3.3535,0.0,3.5547,3.7285,3.8223,3.8652,3.9062,3.9492,3.9492,3.7148,3.6055,0.0,3.3398,3.2637,3.2422,0.0,3.1855,3.1445,0.0,0.0,0.0,3.1191,3.1348,0.0,0.0,3.0888,3.145,3.1341,3.1356,3.2313,3.5538,3.5694,3.6234,3.9038,4.0625,4.1442,4.1303,4.1118,3.9097,3.3709,3.3126,3.215,2.9461,2.9259,2.9138,2.8845,2.8818,2.8698,2.839,2.8377,2.831,2.815,2.8136,2.8136,2.8136,2.8136,2.8136,2.8136,2.8136,2.8136,2.8136,2.8136,2.8136,2.8136,2.8136,2.8136,2.8136,2.8136,2.8136,2.8136,2.8136,2.8136,2.8136,2.8136,2.8136,2.8136,0.0,0.0,0.0,2.9414,2.957,2.9863,3.0762,3.0898,3.125,3.2285,3.3066,3.3476,3.332,3.3144,3.2832,3.2305,3.166,3.1289,3.1367,3.0996,3.0762,3.0762,3.084,3.0859,3.0762,3.084,3.0898,3.0898,3.0898,3.0898,3.0898,3.0898,3.0508,2.9844,3.0469,0.0,0.0,0.0,0.0,3.1621,0.0,3.5469,3.5703,3.8457,3.9512,3.9609,4.0371,4.0644,4.0234,3.7441,3.6699,3.6484,3.4062,3.3457,0.0,0.0,0.0,0.0,0.0,0.0,0.0,0.0,3.1738,3.1385,0.0,0.0,0.0,3.0644,3.061,3.1084,3.2482,3.2606,3.3675,3.7119,3.7972,3.7724,3.639,3.7597,3.6459,3.0405,3.0667,3.0709,2.8937,2.8631,2.8524,2.8524,2.831,2.8163,2.8136,2.8136,2.8136,2.8136,2.8136,2.8136,2.8136,2.8136,2.8136,2.8136,2.8136,2.8136,2.8136,2.8136,2.8136,2.8136,2.8136,2.8136,2.8136,2.8136,2.8136,2.8136,2.8136,2.8136,2.8136,2.8136,2.8136,2.8136,2.8301,2.8301,0.0,0.0,2.957,2.9863,3.0762,3.0898,3.1465,3.3066,3.3711,3.4277,3.5019,0.0,0.0,0.0,0.0,0.0,3.3008,0.0,3.0273,3.0273,3.0664,3.0703,3.0293,3.0684,3.0898,3.0898,3.0898,3.0898,3.0898,3.0898,3.084,3.0723,3.041,0.0,0.0,0.0,3.1387,3.3301,3.5195,3.4824,3.3535,3.6875,3.8144,3.8398,4.0391,4.1094,4.082,3.8926,3.8066,3.7461,0.0,3.4844,3.4551,3.4492,0.0,0.0,0.0,0.0,3.4453,3.2617,3.3769,3.4197,2.9849,0.0,3.1796,2.924,0.0,2.9452,3.1854,0.0,0.0,3.2215,3.3556,3.3285,2.9688,3.1481,3.2489,3.057,2.8917,2.7892,2.7829,2.7148,2.7108,2.8123,2.7228,2.7081,2.8083,2.8136,2.8136,2.8136,2.8136,2.8136,2.8136,2.8136,2.8136,2.8136,2.8136,2.8136,2.8136,2.8136,2.8136,2.8136,2.8136,2.8136,2.8136,2.8136,2.8136,2.8136,2.8136,2.8136,2.8136,2.8136,2.8136,2.8136,2.8301,2.8301,0.0,0.0,2.957,2.9863,3.0762,3.1953,3.291,3.3359,3.4453,3.5449,0.0,0.0,0.0,0.0,0.0,3.2871,0.0,0.0,0.0,3.0605,3.0781,3.0801,3.0605,3.0801,3.0898,3.0898,3.0898,3.0898,3.0898,3.0898,3.0625,3.0137,3.0449,0.0,3.0508,0.0,3.1484,3.2461,3.4199,3.4199,3.3652,3.8105,3.9805,3.9941,4.084,4.1172,4.0898,3.916,3.8457,3.8086,3.6875,3.6016,3.5469,3.5469,0.0,0.0,0.0,3.4336,3.4648,3.3242,3.3711,3.3875,3.118,3.1161,3.1026,2.8893,0.0,0.0,0.0,0.0,0.0,0.0,3.1635,3.1007,2.7915,2.8237,2.8594,2.7748,2.7606,2.7354,2.6786,2.636,2.6413,2.7081,2.6507,2.6426,2.7094,2.7602,2.7883,2.7883,2.8056,2.8136,2.8136,2.8136,2.8056,2.7883,2.7883,2.7856,2.7802,2.7802,2.7923,2.8136,2.8136,2.8136,2.8136,2.8136,2.8136,2.8136,2.8136,2.8136,2.8136,2.8136,2.8136,2.8136,0.0,0.0,0.0,0.0,2.957,2.9863,3.0762,3.2207,3.3262,3.3398,0.0,0.0,3.6894,3.6738,0.0,0.0,3.6094,3.4844,0.0,0.0,3.1523,0.0,0.0,0.0,0.0,3.082,3.0898,3.0898,3.0898,3.0898,3.0898,3.0898,3.0547,2.998,0.0,3.1172,3.1133,0.0,3.2734,3.3398,3.4746,3.541,3.5898,3.9199,4.0762,4.1172,4.1172,4.1172,4.0937,3.9453,3.8945,3.8769,3.7773,3.7129,3.666,3.6309,3.5996,0.0,3.4434,3.4922,3.5391,3.3809,3.3594,3.3418,3.2129,3.1699,3.1107,2.9517,2.9434,0.0,0.0,0.0,2.9352,0.0,0.0,2.8707,2.6264,2.5398,2.4905,2.4864,2.6263,2.6829,2.6034,2.5598,2.5571,2.6106,2.5504,2.5451,2.6226,2.6881,2.7375,2.7682,2.7829,2.7976,2.8136,2.7976,2.7829,2.7696,2.7562,2.7468,2.7388,2.7281,2.7388,2.7682,2.8003,2.8136,2.8136,2.8136,2.8136,2.8136,2.8136,2.8136,2.8136,2.8136,2.8136,2.8136,2.8809,2.8574,0.0,0.0,0.0,2.9863,3.0762,0.0,0.0,0.0,0.0,0.0,0.0,0.0,0.0,0.0,0.0,3.6582,3.6543,0.0,3.1992,0.0,0.0,3.0684,0.0,0.0,3.0898,3.0898,3.0898,3.0898,3.0898,3.0898,3.0879,3.0879,3.1738,3.2578,3.3379,3.4238,3.5801,3.7754,3.8242,3.9434,4.0762,3.9238,3.9707,4.1172,4.1172,4.1172,4.1035,4.0156,3.9863,3.9629,3.832,3.8164,3.8242,3.7012,3.75,3.8086,3.6387,3.7168,3.7637,3.4258,3.4043,3.4004,3.1504,3.2187,3.2988,3.1638,3.2793,3.3574,3.2344,0.0,0.0,0.0,0.0,0.0,0.0,2.1922,2.1545,2.318,2.4382,2.5456,2.5905,2.4676,2.4315,2.5451,2.3941,2.3848,2.5865,2.5999,2.6533,2.7669,2.7442,2.7562,2.8136,2.7575,2.7428,2.7696,2.7215,2.7001,2.6987,2.66,2.644,2.6507,2.7655,2.8136,2.8136,2.8136,2.8136,2.8136,2.8136,2.8136,2.8136,2.8136,2.8136,2.8136,0.0,0.0,0.0,0.0,0.0,0.0,0.0,3.1797,0.0,0.0,0.0,0.0,0.0,4.1758,4.2051,0.0,0.0,3.957,3.8418,3.5937,0.0,0.0,0.0,3.1797,0.0,0.0,0.0,3.0898,3.0898,3.0898,3.0898,3.0898,3.0898,3.0918,3.1484,3.2519,0.0,0.0,0.0,0.0,3.8184,3.9609,4.1113,4.0527,4.0664,4.1172,4.1172,4.1172,4.1133,4.084,4.0371,3.9863,3.9707,3.8945,3.8105,3.7969,3.8027,3.8008,3.7441,3.834,3.875,3.5859,3.5351,3.4902,3.2324,3.2617,3.3066,3.1777,3.2891,3.3672,3.2402,0.0,0.0,0.0,0.0,0.0,0.0,2.0672,2.0828,2.2017,2.3193,2.3768,2.3367,2.3233,2.334,2.3728,2.2846,2.2939,2.4436,2.5237,2.5932,2.6533,2.7014,2.7362,2.7562,2.7362,2.7215,2.7121,2.6947,2.6774,2.6587,2.6453,2.6814,2.7535,2.7148,2.6987,2.7014,2.7402,2.7335,2.6987,2.6987,2.7455,2.8136,2.8136,2.8136,2.8136,2.9394,0.0,0.0,0.0,0.0,0.0,0.0,0.0,0.0,0.0,3.8574,0.0,4.3633,0.0,4.4238,0.0,4.3652,4.1973,3.916,3.7871,0.0,3.5,3.3887,0.0,0.0,0.0,0.0,0.0,0.0,3.1035,3.0898,3.0898,3.0898,3.0937,3.1797,3.3144,3.4824,3.5703,3.6934,3.834,3.916,4.0176,4.1172,4.1172,4.1172,4.1172,4.1172,4.1172,4.1152,4.0996,4.0586,4.0137,4.0254,3.9531,3.8613,3.8574,3.8711,3.8711,3.8086,3.8887,3.9355,3.7051,3.6465,3.584,3.3398,3.375,3.416,3.2715,3.3555,3.4336,3.3672,3.2517,0.0,0.0,0.0,0.0,0.0,2.0107,2.0441,2.1015,2.2124,2.2699,2.2338,2.2352,2.2311,2.2098,2.1737,2.1951,2.2926,2.4102,2.5064,2.5772,2.6453,2.6947,2.7268,2.7054,2.6907,2.6827,2.672,2.6573,2.6386,2.6386,2.68,2.7482,2.672,2.6386,2.6413,2.68,2.6734,2.6386,2.6386,2.7108,2.8136,2.8136,2.8136,2.8136,3.0117,0.0,0.0,0.0,3.0937,0.0,0.0,0.0,3.6367,0.0,3.9746,4.2187,4.4375,4.498,4.5371,4.5742,4.5742,4.3789,3.9199,3.998,0.0,0.0,3.5176,3.4961,3.3711,0.0,0.0,0.0,0.0,3.1289,3.0918,3.0898,3.0898,3.0957,3.2637,3.4355,3.6094,3.7812,3.957,4.1172,4.1172,4.1172,4.1172,4.1172,4.1172,4.1172,4.1152,4.1152,4.1074,4.0644,4.0488,4.043,4.0039,3.9922,3.9726,3.8906,3.9551,4.0156,3.8496,3.8984,3.9551,3.7851,3.7402,3.6816,3.4707,3.5547,3.6289,3.4551,3.4902,3.5605,3.5898,3.2861,2.9923,0.0,0.0,0.0,1.9712,1.9853,2.0214,2.0227,2.1203,2.2098,2.2672,2.1977,2.1256,2.0681,2.0615,2.0882,2.1496,2.2659,2.3955,2.5398,2.5785,2.636,2.7215,2.6667,2.6533,2.68,2.652,2.6386,2.6386,2.6386,2.64,2.6413,2.64,2.64,2.6413,2.64,2.6386,2.6386,2.6386,2.7068,2.8056,2.8123,2.8136,2.8136,3.0234,3.0469,3.0801,0.0,3.1113,3.1367,0.0,0.0,0.0,0.0,4.2422,4.498,4.7441,4.7812,4.7656,4.7129,4.6797,0.0,0.0,0.0,0.0,4.0332,3.8652,3.7598,3.7266,3.4941,0.0,3.3262,0.0,0.0,3.1348,3.1035,3.0898,3.0957,3.2344,3.3926,3.5664,3.7363,3.9277,4.1172,4.1172,4.1172,4.1172,4.1172,4.1172,4.1133,4.0801,4.0684,4.0625,4.0195,4.0059,4.0098,4.0293,4.0156,3.9902,4.0,4.0254,4.043,3.998,4.0332,4.0586,3.9492,3.873,3.793,3.6738,3.7305,3.7695,3.6289,3.668,3.6816,3.5312,3.2596,2.9637,0.0,0.0,0.0,0.0,1.9679,1.9987,2.0214,2.0307,2.0508,2.0869,2.0708,2.0414,2.0054,1.9826,2.0147,2.1162,2.2338,2.346,2.4502,2.5464,2.6172,2.6613,2.6466,2.6426,2.6507,2.6426,2.6386,2.6386,2.6386,2.6507,2.6694,2.648,2.6507,2.6694,2.648,2.6386,2.6386,2.6386,2.6573,2.6947,2.7816,2.8136,2.8136,3.0508,0.0,0.0,3.1797,0.0,0.0,3.4414,3.5527,0.0,4.0742,4.3418,0.0,4.7031,4.8183,4.8594,4.791,4.7461,0.0,4.457,0.0,0.0,4.1933,4.0664,3.9629,3.8867,3.6465,0.0,3.3789,0.0,3.1387,3.123,3.0996,3.0898,3.0937,3.2031,3.3476,3.5234,3.7519,3.9531,4.1152,4.0976,4.0996,0.0,4.0957,4.1016,4.1094,4.0469,4.0371,4.043,3.9805,3.959,3.9668,4.0117,4.0078,4.0019,4.0625,4.0801,4.0801,4.0801,4.0976,4.1055,4.0566,4.0078,3.9434,3.8379,3.8359,3.832,3.7402,3.7012,3.6562,3.5723,3.2822,2.9243,0.0,0.0,0.0,1.9773,2.0,2.0201,2.0227,2.0201,2.0147,2.0054,1.9813,1.9599,1.9426,1.9506,1.9786,2.0321,2.1817,2.302,2.3794,2.5077,2.5959,2.6386,2.652,2.652,2.6386,2.6386,2.6386,2.6386,2.6386,2.648,2.6627,2.6466,2.648,2.6613,2.6453,2.6386,2.6386,2.6386,2.6386,2.6466,2.7134,2.7696,2.8136,3.082,0.0,0.0,0.0,0.0,0.0,3.7246,3.7539,3.8711,4.1328,4.3984,4.5586,4.5527,4.7519,4.8652,4.8164,4.7793,4.6582,4.4199,4.4707,4.4082,4.1777,4.1875,4.123,3.9648,3.7637,3.5684,0.0,3.2598,3.166,3.0976,3.0918,3.0898,3.0918,3.1777,3.3144,3.4961,3.7773,3.9707,4.0898,4.0625,4.0781,4.1133,4.0762,4.084,4.1055,4.0195,4.0137,4.0312,3.9492,3.916,3.9199,3.9668,3.9805,3.998,4.084,4.1094,4.1094,4.1152,4.1172,4.1172,4.1172,4.1172,4.0879,3.9726,3.9121,3.8711,3.834,3.6953,3.5976,3.6562,3.3218,2.8657,2.3825,2.159,2.047,2.0227,2.0454,2.0521,2.0267,2.0428,0.0,1.9853,1.9305,1.8958,1.8931,1.9399,1.9599,1.9372,2.1203,2.2565,2.3247,2.4649,2.5718,2.6386,2.664,2.6653,2.6453,2.6413,2.6386,2.6386,2.6386,2.6386,2.6386,2.6386,2.6386,2.6386,2.6386,2.6386,2.6386,2.6386,2.6386,2.6386,2.6386,2.7134,2.8136,3.0879,0.0,0.0,0.0,0.0,3.7187,3.9961,4.2187,4.375,4.4277,4.6914,4.8594,4.8223,4.8594,4.8535,4.7754,4.7617,0.0,0.0,0.0,0.0,4.4394,4.3398,4.2539,4.1875,3.8105,3.6133,3.6094,3.2754,3.1211,3.1406,3.1055,3.0898,3.0918,3.1777,3.332,3.5371,3.6953,3.8379,3.9609,4.0254,4.0781,4.1172,4.1094,4.1113,4.1055,4.0195,3.9941,3.9922,3.9375,3.8965,3.875,3.918,3.9316,3.9492,4.0371,4.0644,4.0723,4.1074,4.1172,4.1172,4.1172,4.1172,4.1113,4.0879,4.0488,4.0156,4.0078,3.8984,3.7754,3.6836,3.2747,2.8078,2.3561,2.2513,2.1766,2.0348,2.0281,2.0294,2.0241,2.0067,1.992,1.9813,1.9492,1.9185,1.8945,1.9025,1.9158,1.9359,2.0615,2.183,2.2913,2.4142,2.5304,2.6373,2.644,2.656,2.6747,2.6507,2.6386,2.6386,2.6386,2.6386,2.6386,2.6386,2.6386,2.6386,2.6386,2.6386,2.6386,2.6386,2.6386,2.6386,2.6386,2.7134,2.8136,3.2773,0.0,0.0,0.0,0.0,3.9883,4.2461,4.5215,4.6543,4.5195,4.6289,4.7031,4.6601,4.7734,4.8262,4.7637,4.7383,4.6973,4.6348,4.5703,4.5039,4.4375,4.3535,4.2773,4.2109,3.875,3.6777,3.6328,3.3125,3.1426,3.1191,3.0996,3.0898,3.0918,3.1543,3.3027,3.5078,3.5937,3.7422,3.9258,3.9922,4.0586,4.1152,4.0918,4.0976,4.1055,4.0195,3.9902,3.9785,3.9101,3.875,3.8652,3.9062,3.9199,3.9336,4.0,4.0351,4.0566,4.0781,4.0996,4.1172,4.1172,4.1172,4.0841,3.9707,3.9855,3.9872,3.8745,3.8207,3.7441,3.5918,3.2539,2.8871,2.6036,2.4439,2.3039,2.1592,2.1229,2.0975,2.0521,2.0334,2.008,1.9626,1.9586,1.9466,1.9172,1.9158,1.9212,1.9359,2.0334,2.1349,2.2378,2.3714,2.4903,2.5919,2.6386,2.6613,2.66,2.6453,2.6386,2.6386,2.6386,2.6386,2.6386,2.6386,2.6386,2.6386,2.6386,2.6386,2.6386,2.6386,2.6386,2.6386,2.6386,2.7134,2.8136,0.0,3.5435,0.0,0.0,4.0991,4.2949,4.4316,4.6992,4.8125,4.6113,4.584,4.5723,4.5391,4.7051,4.8027,4.7617,4.7187,4.6719,4.6191,4.5449,4.4668,4.3887,4.3262,4.2617,4.1953,3.9219,3.7168,3.5879,3.3398,3.168,3.0742,3.084,3.084,3.0762,3.1191,3.2461,3.4336,3.5078,3.6816,3.9121,3.9766,4.0488,4.1133,4.0781,4.0879,4.1055,4.0195,3.9961,3.9902,3.9004,3.8711,3.8769,3.9101,3.9277,3.9434,3.9902,4.0273,4.0547,4.0644,4.0918,4.1172,4.1172,4.1172,4.0685,3.904,3.922,3.941,3.7681,3.7345,3.6934,3.5273,3.3009,3.0663,2.8341,2.6419,2.4509,2.2484,2.2205,2.1804,2.0802,2.0788,2.0441,1.9372,1.9599,1.9653,1.9305,1.9332,1.9372,1.9372,2.0147,2.0962,2.1777,2.3247,2.4462,2.5411,2.6226,2.6587,2.648,2.6413,2.6386,2.6386,2.6386,2.6386,2.6386,2.6386,2.6386,2.6386,2.6386,2.6386,2.6386,2.6386,2.6386,2.6386,2.6386,2.6974,2.7802,0.0,0.0,3.9281,4.2879,4.4119,4.4785,4.4941,4.7187,4.8769,4.8535,4.8496,4.8476,4.8437,4.8301,4.8027,4.7617,4.7187,4.6582,4.5781,4.5293,4.4824,4.4355,4.3144,4.2461,4.2363,3.9082,3.6738,3.5449,3.3242,3.1523,3.0273,3.0703,3.0664,3.0293,3.0742,3.1699,3.3086,3.4707,3.6641,3.875,3.9961,4.0742,4.1172,4.1133,4.1133,4.1055,4.0195,4.0137,4.0332,3.9453,3.9141,3.9141,3.9199,3.9492,3.9902,4.0332,4.0488,4.0605,4.1016,4.1152,4.1172,4.1172,4.1172,4.1172,4.0997,4.0355,3.9902,3.9581,3.8662,3.7461,3.6133,3.5354,3.3294,2.8222,2.7685,2.643,2.2257,2.2298,2.2258,2.0842,2.1149,2.0815,1.9132,1.9466,1.9573,1.9011,1.9212,1.9372,1.9372,1.9947,2.0548,2.1176,2.2632,2.3955,2.5104,2.5732,2.6293,2.6774,2.652,2.6386,2.6386,2.6386,2.6386,2.6386,2.6386,2.6386,2.6386,2.6386,2.6386,2.6386,2.6386,2.6386,2.6386,2.6386,2.6453,2.6707,4.2364,4.2251,4.289,4.6395,4.5778,4.5254,4.7051,4.8203,4.8867,4.8867,4.8867,4.875,4.8496,4.8086,4.7656,4.7226,4.6797,4.6308,4.5723,4.5273,4.4609,4.3652,4.2851,4.2187,4.168,3.9297,3.7441,3.6152,3.3984,3.2246,3.0976,3.0644,3.0527,3.0625,3.1074,3.2109,3.3672,3.543,3.709,3.8691,4.0,4.0781,4.1172,4.1172,4.1172,4.1094,4.0488,4.0371,4.0391,3.9492,3.9394,3.9609,3.9609,3.9746,3.9922,4.0098,4.0332,4.0566,4.0742,4.0976,4.1172,4.1172,4.1172,4.0841,3.9531,3.9548,3.9581,3.8157,3.8116,3.793,3.6641,3.5196,3.2957,2.9682,2.7956,2.5981,2.3338,2.2712,2.2124,2.0828,2.0414,1.9826,1.8771,1.9038,1.9252,1.9199,1.9305,1.9372,1.9372,1.9586,2.0067,2.0828,2.2111,2.3273,2.4289,2.5398,2.6079,2.6306,2.636,2.6386,2.6386,2.6386,2.6386,2.6386,2.6386,2.6386,2.6386,2.6386,2.6386,2.6386,2.6386,2.66,2.6867,2.652,2.6841,2.7509,4.5858,4.5617,4.6329,5.016,4.8004,4.6426,4.8535,4.8867,4.8867,4.8867,4.8867,4.8691,4.8262,4.7832,4.7402,4.6973,4.6543,4.6074,4.5527,4.5078,4.4316,4.3125,4.2539,4.1973,4.1367,3.9648,3.8066,3.668,3.4746,3.3008,3.1504,3.1016,3.1016,3.1484,3.2148,3.334,3.4941,3.6543,3.7969,3.9238,4.0293,4.0898,4.1172,4.1172,4.1172,4.1113,4.0684,4.0605,4.0605,3.9844,3.9902,4.0195,3.9824,3.9863,4.0078,4.0078,4.0293,4.0547,4.0684,4.0937,4.1172,4.1172,4.1172,4.0841,3.9216,3.9375,3.9353,3.7518,3.793,3.8262,3.7226,3.5182,3.295,3.0651,2.8224,2.5896,2.3714,2.2979,2.2191,2.0842,2.0134,1.9452,1.8691,1.8878,1.9145,1.9359,1.9452,1.9492,1.9492,1.9573,1.9947,2.0655,2.1897,2.2939,2.3768,2.505,2.5785,2.5959,2.6159,2.6306,2.6386,2.6386,2.6386,2.6386,2.6386,2.6386,2.6386,2.6386,2.6386,2.6386,2.6386,2.664,2.7001,2.6934,2.7428,2.8096,4.9602,4.9315,4.9737,5.4135,5.1473,4.8808,4.8848,4.8867,4.8867,4.8867,4.8867,4.8691,4.8262,4.7832,4.7402,4.6973,4.6543,4.5937,4.5098,4.4629,4.4004,4.3125,4.2266,4.1797,4.1797,4.0078,3.8359,3.668,3.5332,3.3594,3.1523,3.1953,3.2363,3.2832,3.4101,3.5391,3.6719,3.8008,3.9316,4.0527,4.0976,4.1172,4.1172,4.1172,4.1172,4.1113,4.0684,4.0801,4.1094,4.0644,4.0801,4.0937,3.9629,3.9805,4.0508,4.0508,4.0527,4.0625,4.1055,4.1172,4.1172,4.1172,4.1172,4.1172,4.1172,4.0508,3.9648,3.8769,3.8574,3.8437,3.7988,3.6249,3.3801,3.0573,2.8819,2.6576,2.2944,2.2939,2.2659,2.0882,2.0668,2.0201,1.9038,1.9185,1.9359,1.9372,1.9639,1.98,1.98,2.0067,2.0361,2.0668,2.2098,2.3153,2.3768,2.4649,2.5384,2.5959,2.5959,2.6106,2.6386,2.6386,2.6386,2.6386,2.6386,2.6386,2.6386,2.6386,2.6386,2.6386,2.6386,2.6386,2.6533,2.7696,2.8136,2.7976,5.2914,5.2261,5.1905,5.4038,5.1058,4.8516,4.8808,4.8867,4.875,4.8457,4.8418,4.8144,4.7422,4.748,4.7285,4.6562,4.6113,4.5644,4.5058,4.4336,4.3672,4.3105,4.2266,4.166,4.1387,4.0547,3.9531,3.8398,3.7109,3.5371,3.3262,3.3398,3.3691,3.4141,3.5449,3.6601,3.7637,3.9219,4.0137,4.0566,4.0996,4.1172,4.1172,4.1172,4.1172,4.1152,4.1016,4.1055,4.1113,4.0664,4.082,4.0996,4.0,4.0273,4.0976,4.0976,4.0976,4.0996,4.1133,4.1172,4.1172,4.1172,4.1172,4.1172,4.1172,3.9375,3.7666,3.6978,3.5564,3.4794,3.5741,3.3135,3.0458,2.8811,2.6939,2.5001,2.305,2.2378,2.1617,2.0241,1.9733,1.9252,1.8677,1.8891,1.9145,1.9359,1.9452,1.9586,1.9786,2.0067,2.0454,2.0962,2.2004,2.2953,2.3768,2.4836,2.5464,2.5665,2.6066,2.6306,2.6386,2.6386,2.6386,2.6386,2.6386,2.6386,2.6386,2.6386,2.6386,2.6386,2.6386,2.656,2.68,2.6907,2.7455,2.7976,5.4527,5.3865,5.3225,5.3851,5.0726,4.8301,4.8574,4.875,4.8711,4.8262,4.8203,4.7891,4.7031,4.7168,4.7051,4.6367,4.5918,4.543,4.4824,4.3965,4.3203,4.2617,4.1933,4.1445,4.1172,4.0742,4.0176,3.9453,3.8008,3.6523,3.5059,3.5215,3.543,3.5742,3.7226,3.8164,3.875,4.0176,4.0762,4.0781,4.1055,4.1172,4.1172,4.1172,4.1172,4.1172,4.1172,4.1172,4.1133,4.0859,4.0957,4.1074,4.0547,4.0742,4.1152,4.0976,4.0937,4.0976,4.1133,4.1172,4.1016,4.0197,4.0021,3.9651,3.8697,3.7659,3.6444,3.5134,3.3517,3.2877,3.3856,3.1292,2.8791,2.8253,2.6101,2.4062,2.2859,2.1937,2.0989,1.9933,1.9479,1.9145,1.8851,1.9185,1.9452,1.9519,1.984,2.0,1.996,2.0347,2.0828,2.1416,2.2405,2.33,2.4088,2.493,2.5464,2.5692,2.6159,2.6386,2.6386,2.6386,2.6386,2.6386,2.6386,2.6386,2.6386,2.6386,2.6386,2.6386,2.6386,2.6533,2.672,2.648,2.6854,2.7375,5.4717,5.4096,5.3426,5.337,5.0539,4.8183,4.8242,4.8594,4.8691,4.8223,4.8164,4.7832,4.6973,4.6875,4.6719,4.6289,4.5879,4.5254,4.4355,4.3516,4.2656,4.1836,4.1387,4.1172,4.1172,4.0781,4.0371,3.9941,3.832,3.7305,3.6894,3.7305,3.748,3.7559,3.9199,3.9941,4.0,4.082,4.1172,4.1172,4.1172,4.1172,4.1172,4.1172,4.1172,4.1172,4.1172,4.1172,4.1172,4.1133,4.1152,4.1172,4.1133,4.1152,4.1094,4.0684,4.0566,4.0664,4.1055,4.1172,4.0685,3.8706,3.8054,3.7153,3.4349,3.5104,3.5656,3.3271,3.2292,3.2201,3.2201,3.0389,2.8699,2.8357,2.6017,2.3728,2.2525,2.1617,2.0762,1.9907,1.984,1.9746,1.9452,1.992,2.012,1.9853,2.0561,2.0802,2.0321,2.0895,2.1483,2.2031,2.3193,2.4088,2.469,2.4983,2.5424,2.5985,2.6266,2.6386,2.6386,2.6386,2.6386,2.6386,2.6386,2.6386,2.6386,2.6386,2.6386,2.6386,2.6386,2.6386,2.6386,2.6386,2.6386,2.6386,5.5506,5.3773,5.2238,5.1659,4.9481,4.7949,4.8613,4.8789,4.8594,4.7832,4.7734,4.7402,4.6543,4.6445,4.6289,4.5859,4.543,4.4668,4.3476,4.2891,4.2344,4.1816,4.1387,4.1172,4.1172,4.1074,4.0801,4.0371,3.9961,3.9551,3.9141,3.9238,3.9277,3.9316,4.0039,4.0371,4.041,4.0937,4.1172,4.1172,4.1172,4.1172,4.1172,4.1172,4.1172,4.1172,4.1172,4.1172,4.1113,4.0781,4.0898,4.1113,4.0781,4.0898,4.1152,4.1055,4.1016,4.1035,4.1152,4.1172,4.1016,4.0529,3.9198,3.6817,3.2597,3.1931,3.1747,3.0775,2.9061,2.8388,2.9898,2.8269,2.6529,2.6006,2.4539,2.3113,2.1924,2.1189,2.0535,1.988,2.0201,2.0347,2.0054,2.0147,2.0201,2.0134,2.012,2.0347,2.0869,2.1884,2.2512,2.2645,2.3594,2.4489,2.5291,2.5598,2.5932,2.6293,2.636,2.6386,2.6386,2.6386,2.6386,2.6386,2.6386,2.6386,2.6386,2.6386,2.6386,2.6386,2.6386,2.6386,2.6386,2.6386,2.6386,2.6386,5.7042,5.4484,5.2292,5.1911,4.9527,4.7734,4.8203,4.8613,4.8613,4.7949,4.7695,4.7324,4.666,4.6426,4.6055,4.543,4.5156,4.4473,4.3164,4.2676,4.2148,4.1543,4.1289,4.1172,4.1172,4.1172,4.1055,4.082,4.082,4.0605,4.0195,4.0391,4.0273,3.9922,4.0547,4.0703,4.0547,4.0996,4.1055,4.0879,4.0879,4.0762,4.0605,4.0801,4.0879,4.0898,4.1094,4.1172,4.1133,4.0898,4.0976,4.1133,4.0898,4.0976,4.1172,4.1172,4.1172,4.1172,4.1172,4.1172,4.0685,3.8724,3.8073,3.6372,3.1018,3.0926,3.1364,2.9281,2.7561,2.6743,2.7945,2.6776,2.5371,2.477,2.3567,2.2352,2.1296,2.0762,2.0361,2.004,2.0641,2.0962,2.0668,2.1002,2.1015,2.0481,2.0668,2.0949,2.1296,2.2565,2.3273,2.3273,2.4275,2.509,2.5705,2.6012,2.6239,2.6386,2.6386,2.6386,2.6386,2.6386,2.6386,2.6386,2.6386,2.6386,2.6386,2.6386,2.6386,2.6386,2.6386,2.6386,2.6386,2.6386,2.6386,2.6386,5.8345,5.5428,5.2801,5.2625,4.9804,4.7598,4.7656,4.8301,4.8574,4.8086,4.7695,4.7285,4.6797,4.6426,4.5859,4.5,4.4863,4.4297,4.3066,4.2637,4.2051,4.1211,4.1172,4.1172,4.1172,4.1172,4.1172,4.1172,4.1172,4.0976,4.0625,4.0996,4.0781,4.0117,4.084,4.0976,4.0644,4.1016,4.0918,4.0527,4.0586,4.0371,4.0039,4.0469,4.0625,4.0664,4.1035,4.1172,4.1152,4.1016,4.1016,4.1055,4.0996,4.1016,4.1094,4.1152,4.1172,4.1172,4.1172,4.1172,4.0178,3.5799,3.6121,3.5782,2.955,3.0573,3.1806,2.8331,2.6974,2.652,2.672,2.5838,2.489,2.4302,2.2926,2.163,2.0788,2.0454,2.0321,2.0361,2.1189,2.1657,2.1403,2.2004,2.2004,2.1015,2.159,2.1937,2.183,2.314,2.3941,2.4035,2.5037,2.5718,2.6012,2.6266,2.6386,2.6386,2.6386,2.6386,2.6386,2.6386,2.6386,2.6386,2.6386,2.6386,2.6386,2.6386,2.6386,2.6386,2.6386,2.6386,2.6386,2.6386,2.6386,2.6386,5.689,5.4673,5.2525,5.1487,4.9202,4.7695,4.8047,4.8223,4.8027,4.7226,4.707,4.6738,4.5957,4.582,4.543,4.457,4.4141,4.3516,4.2598,4.2461,4.2051,4.1211,4.1172,4.1172,4.1172,4.1172,4.1172,4.1172,4.1172,4.1133,4.1074,4.1152,4.1113,4.0976,4.1113,4.1133,4.1074,4.1152,4.0918,4.0547,4.0918,4.082,4.0469,4.0918,4.1074,4.1074,4.1152,4.1172,4.1055,4.0332,4.0332,4.0566,4.0215,4.0332,4.0703,4.1074,4.1172,4.1172,4.1172,4.1172,4.0178,3.5799,3.4975,3.3921,2.8952,2.8179,2.8304,2.7203,2.6854,2.6694,2.6493,2.5705,2.489,2.4302,2.2752,2.1403,2.0762,2.0641,2.0695,2.0949,2.1977,2.2645,2.2592,2.2485,2.2338,2.2164,2.2044,2.2298,2.3006,2.3968,2.473,2.5224,2.5665,2.6026,2.6319,2.6373,2.6386,2.6386,2.6386,2.6386,2.6386,2.6386,2.6386,2.6386,2.6386,2.6386,2.6386,2.6386,2.6386,2.6386,2.6386,2.6386,2.6386,2.6386,2.6386,2.6386,5.8163,5.5228,5.2725,5.2015,4.9281,4.7285,4.748,4.7715,4.7734,4.7324,4.707,4.6777,4.6387,4.5957,4.5332,4.4473,4.3965,4.3242,4.2168,4.209,4.1816,4.1211,4.1172,4.1172,4.1172,4.1172,4.1172,4.1172,4.1172,4.1172,4.1172,4.1172,4.1172,4.1172,4.1172,4.1172,4.1152,4.0918,4.0703,4.0527,4.0488,4.0371,4.0234,4.0664,4.082,4.0859,4.1094,4.1172,4.1074,4.0449,4.0371,4.0449,4.0019,4.0019,4.0273,4.0703,4.0996,4.1172,4.1172,4.1172,4.0178,3.5799,3.5621,3.4925,2.9271,2.8786,2.9114,2.7879,2.7148,2.6827,2.6854,2.5758,2.4703,2.4275,2.2579,2.1216,2.0949,2.0909,2.1082,2.1523,2.2632,2.3354,2.3354,2.3367,2.3247,2.2926,2.2926,2.3193,2.3768,2.4489,2.5144,2.5732,2.6039,2.6333,2.6613,2.6466,2.6386,2.6386,2.6386,2.6386,2.6386,2.6386,2.6386,2.6386,2.6386,2.6386,2.6386,2.6386,2.6386,2.6386,2.6386,2.6386,2.6386,2.6386,2.6386,2.574,5.9483,5.5871,5.2966,5.3078,4.9734,4.6933,4.6933,4.7207,4.7383,4.7305,4.6992,4.6738,4.6641,4.5976,4.5176,4.4316,4.373,4.2949,4.1875,4.1699,4.1504,4.1191,4.1172,4.1172,4.1172,4.1172,4.1172,4.1172,4.1172,4.1172,4.1172,4.1172,4.1172,4.1172,4.1172,4.1172,4.1152,4.082,4.0625,4.0508,4.0273,4.0137,4.0098,4.0508,4.0684,4.0723,4.1055,4.1113,4.0957,4.0527,4.0312,4.0156,3.9844,3.9805,3.998,4.0391,4.084,4.1172,4.1172,4.1172,4.0178,3.5799,3.596,3.5621,2.9621,2.9271,2.9957,2.8325,2.7495,2.7054,2.7148,2.5892,2.4676,2.4182,2.2592,2.1363,2.1229,2.1323,2.1657,2.2325,2.3273,2.3928,2.4062,2.4155,2.4048,2.3661,2.3848,2.4128,2.4489,2.4997,2.5585,2.6239,2.6413,2.66,2.6814,2.66,2.6453,2.6386,2.6386,2.6386,2.6386,2.6386,2.6386,2.6386,2.6386,2.6386,2.6386,2.6386,2.6386,2.6386,2.6386,2.6386,2.6386,2.5581,2.5251,2.3952,5.9483,5.5871,5.3078,5.3526,4.9943,4.6933,4.6933,4.6953,4.6836,4.6445,4.6367,4.6191,4.582,4.5351,4.4707,4.3828,4.2988,4.2324,4.1836,4.1426,4.1211,4.1172,4.1172,4.1172,4.1172,4.1172,4.1172,4.1172,4.1172,4.1172,4.1172,4.1172,4.1172,4.1172,4.1172,4.1172,4.1172,4.1133,4.0898,4.0547,4.0918,4.084,4.0527,4.0957,4.1133,4.1133,4.1172,4.0918,4.0508,4.0078,3.9668,3.9297,3.9258,3.9551,3.998,4.0391,4.084,4.1172,4.1172,4.1172,4.0178,3.5799,3.4813,3.3676,2.9286,2.8292,2.8197,2.7776,2.7682,2.7482,2.6947,2.6079,2.509,2.3981,2.2966,2.2138,2.159,2.1977,2.2645,2.3541,2.3955,2.4382,2.493,2.4516,2.4302,2.4529,2.4556,2.4823,2.5384,2.5718,2.6279,2.7148,2.6921,2.68,2.6827,2.68,2.6653,2.6386,2.6386,2.6386,2.6386,2.6386,2.6386,2.6386,2.6386,2.6386,2.6386,2.6386,2.6386,2.6386,2.6386,2.6386,2.607,2.3472,2.1523,2.0069,5.7692,5.5067,5.2492,5.1352,4.8535,4.6543,4.6543,4.6543,4.6484,4.6328,4.6308,4.6152,4.5723,4.5293,4.457,4.3418,4.2773,4.2129,4.1465,4.1269,4.1172,4.1172,4.1172,4.1172,4.1172,4.1172,4.1172,4.1172,4.1172,4.1172,4.1172,4.1172,4.1172,4.1172,4.1172,4.1172,4.1152,4.0879,4.084,4.0918,4.082,4.084,4.0937,4.1113,4.1172,4.1172,4.1172,4.1074,4.0859,4.043,4.0,3.9629,3.9629,3.9551,3.9609,4.0312,4.084,4.0841,3.9531,3.9198,3.8073,3.3676,3.2694,3.1887,2.8964,2.8136,2.811,2.8003,2.7829,2.7575,2.7175,2.6373,2.5585,2.4957,2.3955,2.3247,2.3207,2.338,2.3714,2.4249,2.4569,2.4903,2.5304,2.4983,2.4863,2.5157,2.5344,2.5558,2.5772,2.6066,2.6547,2.7241,2.7161,2.7094,2.7094,2.6907,2.6774,2.6653,2.648,2.648,2.6653,2.6466,2.6386,2.6386,2.6386,2.6386,2.6386,2.6386,2.6386,2.6386,2.6386,2.5251,2.3632,2.2499,1.942,1.5843,5.6693,5.4395,5.226,4.9955,4.7794,4.6308,4.6308,4.6308,4.625,4.6113,4.6113,4.5937,4.5527,4.4961,4.4199,4.3164,4.2558,4.1933,4.1211,4.1172,4.1172,4.1172,4.1172,4.1172,4.1172,4.1172,4.1172,4.1172,4.1172,4.1172,4.1172,4.1172,4.1172,4.1172,4.1172,4.1172,4.1152,4.0859,4.0898,4.1152,4.084,4.0898,4.1172,4.1172,4.1172,4.1172,4.1172,4.1094,4.0898,4.0469,4.0137,3.9863,3.9726,3.9648,3.9766,4.0508,4.0453,3.9688,3.7419,3.6442,3.5137,3.2217,3.1392,3.091,2.8628,2.8136,2.8136,2.8136,2.7976,2.7749,2.7455,2.676,2.6066,2.5585,2.477,2.4222,2.4329,2.4422,2.4623,2.501,2.5144,2.5331,2.5625,2.5384,2.5344,2.5638,2.5919,2.6132,2.6226,2.6413,2.6707,2.7108,2.7215,2.7268,2.7268,2.7068,2.6867,2.668,2.648,2.6493,2.668,2.648,2.6386,2.6386,2.574,2.5409,2.5251,2.4602,2.4283,2.4283,2.4283,2.314,2.1362,2.0554,1.7792,1.4375,5.6669,5.4395,5.226,4.9955,4.7794,4.6308,4.6289,4.6289,4.6152,4.5723,4.5664,4.5508,4.5058,4.4238,4.3535,4.3105,4.2285,4.1621,4.1211,4.1172,4.1172,4.1172,4.1172,4.1172,4.1172,4.1172,4.1172,4.1172,4.1172,4.1172,4.1172,4.1172,4.1172,4.1172,4.1172,4.1172,4.1172,4.1172,4.1172,4.1172,4.1172,4.1172,4.1172,4.1172,4.1172,4.1172,4.1172,4.0898,4.0469,4.0039,3.9902,3.9824,3.9355,3.9824,4.0605,4.1055,3.9688,3.7419,3.5298,3.3022,3.1392,3.1392,3.1392,3.0744,2.8628,2.8136,2.8136,2.8136,2.8136,2.8056,2.7749,2.7215,2.6533,2.5665,2.5277,2.4983,2.469,2.4903,2.5304,2.5892,2.5692,2.5638,2.5932,2.5692,2.5638,2.5932,2.6226,2.652,2.6814,2.6827,2.6827,2.6827,2.7108,2.7268,2.7255,2.7268,2.6974,2.64,2.6386,2.6386,2.6386,2.6386,2.6386,2.6228,2.4111,2.314,2.298,2.0716,1.9907,1.9907,1.9907,1.9907,1.9582,1.7465,1.6647,1.6319,5.4488,5.3415,5.1651,4.7561,4.6615,4.6211,4.5918,4.5859,4.582,4.5703,4.541,4.5058,4.4629,4.4062,4.3418,4.2676,4.2109,4.1621,4.1211,4.1172,4.1172,4.1172,4.1172,4.1172,4.1172,4.1172,4.1172,4.1172,4.1172,4.1172,4.1172,4.1172,4.1172,4.1172,4.1172,4.1172,4.1172,4.1172,4.1172,4.1172,4.1172,4.1172,4.1172,4.1172,4.1172,4.1172,4.1172,4.1094,4.0957,4.084,4.0391,3.9883,3.9726,4.0293,4.1016,4.1133,3.9688,3.7419,3.5298,3.3022,3.1076,2.9453,2.9118,2.8964,2.8305,2.8136,2.8136,2.8136,2.8136,2.8056,2.7749,2.7388,2.6974,2.6507,2.6186,2.5972,2.5879,2.5945,2.6066,2.6239,2.5999,2.5945,2.6226,2.5999,2.5945,2.6239,2.6333,2.6613,2.7108,2.6934,2.6827,2.6827,2.7108,2.7068,2.6653,2.6854,2.6974,2.7001,2.6587,2.6493,2.668,2.648,2.6386,2.6386,2.574,2.5409,2.5092,2.1362,1.9131,1.8163,1.836,1.8026,1.745,1.676,1.5679,1.4217,5.3401,5.2787,5.1463,4.6564,4.5879,4.5976,4.5723,4.5527,4.5293,4.4941,4.4824,4.4473,4.3711,4.3359,4.293,4.2246,4.1797,4.1445,4.1191,4.1172,4.1172,4.1172,4.1172,4.1172,4.1172,4.1172,4.1172,4.1172,4.1172,4.1172,4.1172,4.1172,4.1172,4.1172,4.1172,4.1172,4.1172,4.1172,4.1172,4.1172,4.1172,4.1172,4.1172,4.1172,4.1172,4.1172,4.1172,4.1172,4.1152,4.0976,4.0566,4.0024,3.9376,3.9466,3.9707,3.8882,3.7737,3.6121,3.4002,3.2381,3.091,2.8796,2.8136,2.8136,2.8136,2.8136,2.8136,2.8136,2.8136,2.8083,2.7909,2.7642,2.7335,2.7041,2.6747,2.652,2.64,2.6386,2.6386,2.6386,2.6239,2.6199,2.6373,2.6226,2.6293,2.6707,2.6627,2.6774,2.7241,2.7094,2.6947,2.6827,2.7108,2.7094,2.6734,2.68,2.6854,2.6921,2.656,2.648,2.664,2.6466,2.6386,2.6386,2.5251,2.4442,2.346,1.9095,1.6606,1.5512,1.5658,1.553,1.5015,1.5116,1.4349,1.3247,5.2946,5.2332,5.0999,4.6464,4.5586,4.5605,4.5566,4.5195,4.4629,4.3867,4.4062,4.3828,4.2676,4.248,4.2266,4.1894,4.1426,4.1172,4.1172,4.1172,4.1172,4.1172,4.1172,4.1172,4.1172,4.1172,4.1172,4.1172,4.1172,4.1172,4.1172,4.1172,4.1172,4.1172,4.1172,4.1172,4.1172,4.1172,4.1172,4.1172,4.1172,4.1172,4.1172,4.1172,4.1172,4.1172,4.1172,4.1172,4.1113,4.0664,4.0393,3.999,3.8383,3.7701,3.7241,3.5298,3.4489,3.4002,3.1887,3.1241,3.0578,2.8628,2.8136,2.8136,2.8136,2.8136,2.8136,2.8136,2.8136,2.8136,2.8136,2.7896,2.7615,2.7388,2.7068,2.6774,2.6507,2.644,2.6413,2.6386,2.6386,2.6386,2.6386,2.6386,2.6627,2.7188,2.6947,2.6921,2.7241,2.7241,2.7108,2.6827,2.7081,2.7215,2.7188,2.6921,2.6667,2.6426,2.64,2.6386,2.6386,2.6386,2.6386,2.6228,2.3152,2.1362,2.0059,1.5295,1.3105,1.2779,1.2793,1.2861,1.2942,1.2956,1.2963,1.2996,5.1693,5.0415,4.8233,4.5233,4.4941,4.5058,4.4726,4.4277,4.4043,4.4219,4.373,4.3379,4.3418,4.2832,4.2383,4.2305,4.1601,4.1172,4.1172,4.1172,4.1172,4.1172,4.1172,4.1172,4.1172,4.1172,4.1172,4.1172,4.1172,4.1172,4.1172,4.1172,4.1172,4.1172,4.1172,4.1172,4.1172,4.1172,4.1172,4.1172,4.1172,4.1172,4.1172,4.1172,4.1172,4.1172,4.1172,4.1172,4.1113,4.0664,3.9622,3.8383,3.7674,3.6535,3.5298,3.4813,3.3512,3.2052,3.1557,3.0093,2.8796,2.8305,2.8136,2.8136,2.8136,2.8136,2.8136,2.8136,2.8136,2.8136,2.8136,2.7896,2.7749,2.7923,2.7509,2.7148,2.7081,2.6881,2.664,2.6413,2.6386,2.6386,2.6386,2.6386,2.6533,2.6894,2.664,2.6707,2.7241,2.7041,2.6894,2.6827,2.6881,2.6814,2.6587,2.652,2.656,2.672,2.6493,2.6386,2.6386,2.6386,2.6386,2.6228,2.2166,2.2166,2.4368,1.6022,1.2644,1.2583,1.2739,1.2793,1.2793,1.2915,1.2963,1.2969,4.992,4.8883,4.7465,4.4789,4.457,4.457,4.4141,4.3691,4.334,4.3183,4.293,4.2695,4.2519,4.2285,4.2051,4.1836,4.1426,4.1172,4.1172,4.1172,4.1172,4.1172,4.1172,4.1172,4.1172,4.1172,4.1172,4.1172,4.1172,4.1172,4.1172,4.1172,4.1172,4.1172,4.1172,4.1172,4.1172,4.1172,4.1172,4.1172,4.1172,4.1172,4.1172,4.1172,4.1172,4.1172,4.1172,4.1172,4.0977,3.9774,3.8697,3.7542,3.524,3.3856,3.2858,3.1887,3.1557,3.1241,3.0093,2.9774,2.9453,2.8473,2.8136,2.8136,2.8136,2.8136,2.8136,2.8136,2.8136,2.8096,2.7963,2.7802,2.7709,2.7722,2.7468,2.7268,2.7268,2.7134,2.6921,2.6627,2.66,2.6547,2.64,2.6386,2.6507,2.68,2.668,2.6787,2.7241,2.7121,2.7094,2.7241,2.7108,2.6961,2.6814,2.6667,2.66,2.6613,2.6466,2.5898,2.4761,2.4761,2.4602,2.4123,2.12,2.0069,1.9826,1.461,1.2501,1.2515,1.2617,1.2644,1.263,1.2712,1.2739,1.2739,4.8221,4.7585,4.6762,4.4651,4.4277,4.4121,4.3672,4.3242,4.2715,4.1992,4.2148,4.207,4.1465,4.1641,4.1621,4.1211,4.1172,4.1172,4.1172,4.1172,4.1172,4.1172,4.1172,4.1172,4.1172,4.1172,4.1172,4.1172,4.1172,4.1172,4.1172,4.1172,4.1172,4.1172,4.1172,4.1172,4.1172,4.1172,4.1172,4.1172,4.1172,4.1172,4.1172,4.1172,4.1172,4.1172,4.1172,4.0997,4.0353,3.8548,3.7419,3.6104,3.253,3.1076,3.0426,2.8796,2.9453,3.0426,2.8628,2.9453,3.0426,2.8628,2.8136,2.8136,2.8136,2.8136,2.8136,2.8136,2.8136,2.807,2.7816,2.7776,2.7696,2.7455,2.7415,2.7402,2.7348,2.7295,2.7161,2.6854,2.6774,2.6653,2.6413,2.6386,2.6493,2.6734,2.6747,2.6881,2.7175,2.7148,2.7255,2.7535,2.7268,2.7121,2.7121,2.6867,2.6627,2.6386,2.6056,2.492,2.314,2.314,2.2487,2.1362,2.0008,1.7069,1.3281,1.2732,1.2501,1.2501,1.2501,1.2501,1.2501,1.2501,1.2501,1.2501,4.7132,4.5596,4.4179,4.3808,4.3789,4.3652,4.3223,4.2793,4.248,4.2363,4.207,4.1973,4.2226,4.1992,4.1621,4.1211,4.1172,4.1172,4.1172,4.1172,4.1172,4.1172,4.1172,4.1172,4.1172,4.1172,4.1172,4.1172,4.1172,4.1172,4.1172,4.1172,4.1172,4.1172,4.1172,4.1172,4.1172,4.1172,4.1172,4.1172,4.1172,4.1172,4.1172,4.1172,4.1172,4.1172,4.1172,4.0021,3.8231,3.8054,3.546,3.2217,3.1557,3.0093,2.8628,2.8305,2.8473,2.8642,2.8305,2.8473,2.8642,2.8305,2.8136,2.8136,2.8136,2.8136,2.8136,2.8136,2.8136,2.8136,2.8096,2.8083,2.807,2.803,2.803,2.7936,2.7682,2.7428,2.7161,2.6854,2.66,2.6426,2.6386,2.6386,2.6413,2.644,2.6453,2.6573,2.6867,2.664,2.664,2.6934,2.6653,2.6507,2.6507,2.6466,2.6426,2.6386,2.4442,2.346,2.314,2.314,2.1351,1.8253,1.7861,1.5955,1.2996,1.2644,1.2501,1.2501,1.2501,1.2501,1.2501,1.2501,1.2501,1.2501,4.6648,4.4765,4.3437,4.3672,4.3711,4.3555,4.3144,4.291,4.2617,4.2129,4.1914,4.1777,4.1738,4.1562,4.1367,4.1191,4.1172,4.1172,4.1172,4.1172,4.1172,4.1172,4.1172,4.1172,4.1172,4.1172,4.1172,4.1172,4.1172,4.1172,4.1172,4.1172,4.1172,4.1172,4.1172,4.1172,4.1172,4.1172,4.1172,4.1172,4.1172,4.0509,3.9531,4.0685,4.0353,3.9531,4.0685,3.9864,3.7737,3.6442,3.4002,3.1241,2.9941,2.8964,2.8136,2.8136,2.8136,2.8136,2.8136,2.8136,2.8136,2.8136,2.8136,2.8136,2.8136,2.8136,2.8136,2.8136,2.8136,2.8096,2.7923,2.7896,2.7896,2.7896,2.7896,2.7909,2.7936,2.7696,2.7402,2.7108,2.6814,2.6694,2.6867,2.672,2.6627,2.6627,2.648,2.652,2.6814,2.6694,2.676,2.7054,2.6787,2.6627,2.6627,2.6466,2.574,2.4602,2.362,2.2499,2.12,2.0059,1.7946,1.5342,1.5108,1.4318,1.2935,1.263,1.2501,1.2501,1.2501,1.2501,1.2501,1.2501,1.2501,1.2501]}]]